[[{"header":{"parameterUnit":"m.s-1","parameterCategory":1,"la1":30.6,"la2":28.766,"lo1":-90.7593,"lo2":-88.6598,"dy":0.0162,"dx":0.0183,"nx":116,"ny":114,"refTime":"2024-07-09T12:00:00:Z","depth":0,"parameterNumber":2,"parameterNumberName":"U-component_of_WINDS"},"data":[0.0,0.0,0.0,0.0,0.0,0.0,0.0,0.0,0.0,0.0,0.0,0.0,0.0,0.0,0.0,0.0,0.0,0.0,0.0,0.0,0.0,0.0,0.0,0.0,0.0,0.0,0.0,0.0,0.0,0.0,0.0,0.0,0.0,0.0,0.0,0.0,0.0,0.0,0.0,0.0,0.0,0.0,0.0,0.0,0.0,0.0,0.0,0.0,0.0,0.0,0.0,0.0,0.0,0.0,0.0,0.0,0.0,0.0,0.0,0.0,0.0,0.0,0.0,0.0,0.0,0.0,0.0,0.0,0.0,0.0,0.0,0.0,0.0,0.0,0.0,0.0,0.0,0.0,0.0,0.0,0.0,0.0,0.0,0.0,0.0,0.0,0.0,0.0,0.0,0.0,0.0,0.0,0.0,0.0,0.0,0.0,0.0,0.0,0.0,0.0,0.0,0.0,0.0,0.0,0.0,0.0,0.0,0.0,0.0,0.0,0.0,0.0,0.0,0.0,0.0,0.0,0.0,0.0,0.0,0.0,0.0,0.0,0.0,0.0,0.0,0.0,0.0,0.0,0.0,0.0,0.0,0.0,0.0,0.0,0.0,0.0,0.0,0.0,0.0,0.0,0.0,0.0,0.0,0.0,0.0,0.0,0.0,0.0,0.0,0.0,0.0,0.0,0.0,0.0,0.0,0.0,0.0,0.0,0.0,0.0,0.0,0.0,0.0,0.0,0.0,0.0,0.0,0.0,0.0,0.0,0.0,0.0,0.0,0.0,0.0,0.0,0.0,0.0,0.0,0.0,0.0,0.0,0.0,0.0,0.0,0.0,0.0,0.0,0.0,0.0,0.0,0.0,0.0,0.0,0.0,0.0,0.0,0.0,0.0,0.0,0.0,0.0,0.0,0.0,0.0,0.0,0.0,0.0,0.0,0.0,0.0,0.0,0.0,0.0,0.0,0.0,0.0,0.0,0.0,0.0,0.0,0.0,0.0,0.0,0.0,0.0,0.0,0.0,0.0,0.0,0.0,0.0,0.0,0.0,0.0,0.0,0.0,0.0,0.0,0.0,0.0,0.0,0.0,0.0,0.0,0.0,0.0,0.0,0.0,0.0,0.0,0.0,0.0,0.0,0.0,0.0,0.0,0.0,0.0,0.0,0.0,0.0,0.0,0.0,0.0,0.0,0.0,0.0,0.0,0.0,0.0,0.0,0.0,0.0,0.0,0.0,0.0,0.0,0.0,0.0,0.0,0.0,0.0,0.0,0.0,0.0,0.0,0.0,0.0,0.0,0.0,0.0,0.0,0.0,0.0,0.0,0.0,0.0,0.0,0.0,0.0,0.0,0.0,0.0,0.0,0.0,0.0,0.0,0.0,0.0,0.0,0.0,0.0,0.0,0.0,0.0,0.0,0.0,0.0,0.0,0.0,0.0,0.0,0.0,0.0,0.0,0.0,0.0,0.0,0.0,0.0,0.0,0.0,0.0,0.0,0.0,0.0,0.0,0.0,0.0,0.0,0.0,0.0,0.0,0.0,0.0,0.0,0.0,0.0,0.0,0.0,0.0,0.0,0.0,0.0,0.0,0.0,0.0,0.0,0.0,0.0,0.0,0.0,0.0,0.0,0.0,0.0,0.0,0.0,0.0,0.0,0.0,0.0,0.0,0.0,0.0,0.0,0.0,0.0,0.0,0.0,0.0,0.0,0.0,0.0,0.0,0.0,0.0,0.0,0.0,0.0,0.0,0.0,0.0,0.0,0.0,0.0,0.0,0.0,0.0,0.0,0.0,0.0,0.0,0.0,0.0,0.0,0.0,0.0,0.0,0.0,0.0,0.0,0.0,0.0,0.0,0.0,0.0,0.0,0.0,0.0,0.0,0.0,0.0,0.0,0.0,0.0,0.0,0.0,0.0,0.0,0.0,0.0,0.0,0.0,0.0,0.0,0.0,0.0,0.0,0.0,0.0,0.0,0.0,0.0,0.0,0.0,0.0,0.0,0.0,0.0,0.0,0.0,0.0,0.0,0.0,0.0,0.0,0.0,0.0,0.0,0.0,0.0,0.0,0.0,0.0,0.0,0.0,0.0,0.0,0.0,0.0,0.0,0.0,0.0,0.0,0.0,0.0,0.0,0.0,0.0,0.0,0.0,0.0,0.0,0.0,0.0,0.0,0.0,0.0,0.0,0.0,0.0,0.0,0.0,0.0,0.0,0.0,0.0,0.0,0.0,0.0,0.0,0.0,0.0,0.0,0.0,0.0,0.0,0.0,0.0,0.0,0.0,0.0,0.0,0.0,0.0,0.0,0.0,0.0,0.0,0.0,0.0,0.0,0.0,0.0,0.0,0.0,0.0,0.0,0.0,0.0,0.0,0.0,0.0,0.0,0.0,0.0,0.0,0.0,0.0,0.0,0.0,0.0,0.0,0.0,0.0,0.0,0.0,0.0,0.0,0.0,0.0,0.0,0.0,0.0,0.0,0.0,0.0,0.0,0.0,0.0,0.0,0.0,0.0,0.0,0.0,0.0,0.0,0.0,0.0,0.0,0.0,0.0,0.0,0.0,0.0,0.0,0.0,0.0,0.0,0.0,0.0,0.0,0.0,0.0,0.0,0.0,0.0,0.0,0.0,0.0,0.0,0.0,0.0,0.0,0.0,0.0,0.0,0.0,0.0,0.0,0.0,0.0,0.0,0.0,0.0,0.0,0.0,0.0,0.0,0.0,0.0,0.0,0.0,0.0,0.0,0.0,0.0,0.0,0.0,0.0,0.0,0.0,0.0,0.0,0.0,0.0,0.0,0.0,0.0,0.0,0.0,0.0,0.0,0.0,0.0,0.0,0.0,0.0,0.0,0.0,0.0,0.0,0.0,0.0,0.0,0.0,0.0,0.0,0.0,0.0,0.0,0.0,0.0,0.0,0.0,0.0,0.0,0.0,0.0,0.0,0.0,0.0,0.0,0.0,0.0,0.0,0.0,0.0,0.0,0.0,0.0,0.0,0.0,0.0,0.0,0.0,0.0,0.0,0.0,0.0,0.0,0.0,0.0,0.0,0.0,0.0,0.0,0.0,0.0,0.0,0.0,0.0,0.0,0.0,0.0,0.0,0.0,0.0,0.0,0.0,0.0,0.0,0.0,0.0,0.0,0.0,0.0,0.0,0.0,0.0,0.0,0.0,0.0,0.0,0.0,0.0,0.0,0.0,0.0,0.0,0.0,0.0,0.0,0.0,0.0,0.0,0.0,0.0,0.0,0.0,0.0,0.0,0.0,0.0,0.0,0.0,0.0,0.0,0.0,0.0,0.0,0.0,0.0,0.0,0.0,0.0,0.0,0.0,0.0,0.0,0.0,0.0,0.0,0.0,0.0,0.0,0.0,0.0,0.0,0.0,0.0,0.0,0.0,0.0,0.0,0.0,0.0,0.0,0.0,0.0,0.0,0.0,0.0,0.0,0.0,0.0,0.0,0.0,0.0,0.0,0.0,0.0,0.0,0.0,0.0,0.0,0.0,0.0,0.0,0.0,0.0,0.0,0.0,0.0,0.0,0.0,0.0,0.0,0.0,0.0,0.0,0.0,0.0,0.0,0.0,0.0,0.0,0.0,0.0,0.0,0.0,0.0,0.0,0.0,0.0,0.0,0.0,0.0,0.0,0.0,0.0,0.0,0.0,0.0,0.0,0.0,0.0,0.0,0.0,0.0,0.0,0.0,0.0,0.0,0.0,0.0,0.0,0.0,0.0,0.0,0.0,0.0,0.0,0.0,0.0,0.0,0.0,0.0,0.0,0.0,0.0,0.0,0.0,0.0,0.0,0.0,0.0,0.0,0.0,0.0,0.0,0.0,0.0,0.0,0.0,0.0,0.0,0.0,0.0,0.0,0.0,0.0,0.0,0.0,0.0,0.0,0.0,0.0,0.0,0.0,0.0,0.0,0.0,0.0,0.0,0.0,0.0,0.0,0.0,0.0,0.0,0.0,0.0,0.0,0.0,0.0,0.0,0.0,0.0,0.0,0.0,0.0,0.0,0.0,0.0,0.0,0.0,0.0,0.0,0.0,0.0,0.0,0.0,0.0,0.0,0.0,0.0,0.0,0.0,0.0,0.0,0.0,0.0,0.0,0.0,0.0,0.0,0.0,0.0,0.0,0.0,0.0,0.0,0.0,0.0,0.0,0.0,0.0,0.0,0.0,0.0,0.0,0.0,0.0,0.0,0.0,0.0,0.0,0.0,0.0,0.0,0.0,0.0,0.0,0.0,0.0,0.0,0.0,0.0,0.0,0.0,0.0,0.0,0.0,0.0,0.0,0.0,0.0,0.0,0.0,0.0,0.0,0.0,0.0,0.0,0.0,0.0,0.0,0.0,0.0,0.0,0.0,0.0,0.0,0.0,0.0,0.0,0.0,0.0,0.0,0.0,0.0,0.0,0.0,0.0,0.0,0.0,0.0,0.0,0.0,0.0,0.0,0.0,0.0,0.0,0.0,0.0,0.0,0.0,0.0,0.0,0.0,0.0,0.0,0.0,0.0,0.0,0.0,0.0,0.0,0.0,0.0,0.0,0.0,0.0,0.0,0.0,0.0,0.0,0.0,0.0,0.0,0.0,0.0,0.0,0.0,0.0,0.0,0.0,0.0,0.0,0.0,0.0,0.0,0.0,0.0,0.0,0.0,0.0,0.0,0.0,0.0,0.0,0.0,0.0,0.0,0.0,0.0,0.0,0.0,0.0,0.0,0.0,0.0,0.0,0.0,0.0,0.0,0.0,0.0,0.0,0.0,0.0,0.0,0.0,0.0,0.0,0.0,0.0,0.0,0.0,0.0,0.0,0.0,0.0,0.0,0.0,0.0,0.0,0.0,0.0,0.0,0.0,0.0,0.0,0.0,0.0,0.0,0.0,0.0,0.0,0.0,0.0,0.0,0.0,0.0,0.0,0.0,0.0,0.0,0.0,0.0,0.0,0.0,0.0,0.0,0.0,0.0,0.0,0.0,0.0,0.0,0.0,0.0,0.0,0.0,0.0,0.0,0.0,0.0,0.0,0.0,0.0,0.0,0.0,0.0,0.0,0.0,0.0,0.0,0.0,0.0,0.0,0.0,0.0,0.0,0.0,0.0,0.0,0.0,0.0,0.0,0.0,0.0,0.0,0.0,0.0,0.0,0.0,0.0,0.0,0.0,0.0,0.0,0.0,0.0,0.0,0.0,0.0,0.0,0.0,0.0,0.0,0.0,0.0,0.0,0.0,0.0,0.0,0.0,0.0,0.0,0.0,0.0,0.0,0.0,0.0,0.0,0.0,0.0,0.0,0.0,0.0,0.0,0.0,0.0,0.0,0.0,0.0,0.0,0.0,0.0,0.0,0.0,0.0,0.0,0.0,0.0,0.0,0.0,0.0,0.0,0.0,0.0,0.0,0.0,0.0,0.0,0.0,0.0,0.0,0.0,0.0,0.0,0.0,0.0,0.0,0.0,0.0,0.0,0.0,0.0,0.0,0.0,0.0,0.0,0.0,0.0,0.0,0.0,0.0,0.0,0.0,0.0,0.0,0.0,0.0,0.0,0.0,0.0,0.0,0.0,0.0,0.0,0.0,0.0,0.0,0.0,0.0,0.0,0.0,0.0,0.0,0.0,0.0,0.0,0.0,0.0,0.0,0.0,0.0,0.0,0.0,0.0,0.0,0.0,0.0,0.0,0.0,0.0,0.0,0.0,0.0,0.0,0.0,0.0,0.0,0.0,0.0,0.0,0.0,0.0,0.0,0.0,0.0,0.0,0.0,0.0,0.0,0.0,0.0,0.0,0.0,0.0,0.0,0.0,0.0,0.0,0.0,0.0,0.0,0.0,0.0,0.0,0.0,0.0,0.0,0.0,0.0,0.0,0.0,0.0,0.0,0.0,0.0,0.0,0.0,0.0,0.0,0.0,0.0,0.0,0.0,0.0,0.0,0.0,0.0,0.0,0.0,0.0,0.0,0.0,0.0,0.0,0.0,0.0,0.0,0.0,0.0,0.0,0.0,0.0,0.0,0.0,0.0,0.0,0.0,0.0,0.0,0.0,0.0,0.0,0.0,0.0,0.0,0.0,0.0,0.0,0.0,0.0,0.0,0.0,0.0,0.0,0.0,0.0,0.0,0.0,-1.6972,0.0,0.0,0.0,0.0,0.0,0.0,0.0,0.0,0.0,0.0,0.0,0.0,0.0,0.0,0.0,0.0,0.0,0.0,0.0,0.0,0.0,0.0,0.0,0.0,-0.7369,-0.7622,-0.7622,-0.7684,-0.7745,-0.7812,0.0,0.0,0.0,0.0,0.0,-0.8196,-0.8325,-0.8818,-0.9702,-1.0282,-1.1117,-1.2111,-1.1562,-1.103,-1.0548,0.0,0.0,0.0,0.0,0.0,0.0,0.0,0.0,0.0,0.0,0.0,0.0,0.0,0.0,0.0,0.0,0.0,0.0,0.0,0.0,0.0,0.0,0.0,0.0,0.0,0.0,0.0,0.0,0.0,0.0,0.0,0.0,0.0,0.0,0.0,0.0,0.0,0.0,0.0,0.0,0.0,0.0,0.0,0.0,0.0,0.0,0.0,0.0,0.0,0.0,0.0,0.0,0.0,0.0,0.0,0.0,0.0,0.0,0.0,0.0,0.0,0.0,0.0,0.0,0.0,0.0,0.0,0.0,0.0,0.0,0.0,-1.7938,0.0,0.0,0.0,0.0,0.0,0.0,0.0,0.0,0.0,0.0,0.0,0.0,0.0,0.0,0.0,0.0,0.0,0.0,0.0,0.0,0.0,-0.7099,-0.7181,-0.7881,-0.8382,-0.8468,-0.8645,-0.8709,-0.8601,0.0,0.0,0.0,0.0,-0.8381,-0.8523,-0.864,-0.9471,-1.1081,-1.1775,-1.2955,-1.4574,-1.4629,-1.4086,0.0,-1.2508,0.0,0.0,0.0,0.0,0.0,0.0,0.0,0.0,0.0,0.0,0.0,0.0,0.0,0.0,0.0,0.0,0.0,0.0,0.0,0.0,0.0,0.0,0.0,0.0,0.0,0.0,0.0,0.0,0.0,0.0,0.0,0.0,0.0,0.0,0.0,0.0,0.0,0.0,0.0,0.0,0.0,0.0,0.0,0.0,0.0,0.0,0.0,0.0,0.0,0.0,0.0,0.0,0.0,0.0,0.0,0.0,0.0,0.0,0.0,0.0,0.0,0.0,0.0,-2.1651,-2.2069,-2.2654,-2.2605,-2.2855,-2.3172,-2.1352,-2.0409,-2.0034,0.0,0.0,0.0,0.0,0.0,0.0,0.0,0.0,0.0,0.0,0.0,0.0,0.0,0.0,0.0,0.0,0.0,0.0,0.0,0.0,-0.7083,-0.748,-0.7892,-0.8328,-0.8798,-0.9113,-0.9093,-0.8625,0.0,0.0,0.0,-0.8788,-0.929,-0.9424,-0.9445,-1.0247,-1.1859,-1.4153,-1.5827,-1.6886,0.0,0.0,0.0,-1.4991,-1.4154,0.0,0.0,0.0,0.0,0.0,0.0,0.0,0.0,0.0,0.0,0.0,0.0,0.0,0.0,0.0,0.0,0.0,0.0,0.0,0.0,0.0,0.0,0.0,0.0,0.0,0.0,0.0,0.0,0.0,0.0,0.0,0.0,0.0,0.0,0.0,0.0,0.0,0.0,0.0,0.0,0.0,0.0,-1.5617,-1.7111,0.0,0.0,0.0,0.0,0.0,0.0,0.0,0.0,0.0,0.0,0.0,0.0,0.0,0.0,-2.2012,-2.3085,-2.3612,-2.3602,-2.493,-2.5594,-2.5624,-2.5677,-2.5378,-2.4778,-2.4497,0.0,-2.2344,-2.0841,0.0,0.0,0.0,0.0,0.0,0.0,0.0,0.0,0.0,0.0,0.0,0.0,0.0,0.0,0.0,0.0,0.0,0.0,0.0,0.0,0.0,-0.9361,-1.0271,-1.0508,-1.1156,-1.1257,0.0,0.0,0.0,-0.9344,-0.9826,-1.0161,-1.0227,-1.0807,-1.2398,-1.5029,-1.6972,-1.8423,0.0,0.0,0.0,0.0,-1.8571,-1.728,0.0,0.0,0.0,0.0,0.0,0.0,0.0,0.0,0.0,0.0,0.0,0.0,0.0,0.0,0.0,0.0,0.0,0.0,0.0,0.0,0.0,0.0,0.0,0.0,0.0,0.0,0.0,0.0,0.0,0.0,0.0,0.0,0.0,0.0,0.0,0.0,0.0,0.0,0.0,0.0,0.0,-1.5239,-1.702,-1.7249,-1.7731,-1.7682,0.0,0.0,0.0,0.0,0.0,0.0,0.0,0.0,0.0,-2.2776,-2.3448,-2.4166,-2.4972,-2.5875,-2.6168,-2.5857,-2.6539,-2.6854,-2.6818,-2.6854,-2.6672,-2.6337,-2.6337,-2.5723,-2.4596,-2.2552,-2.1306,-2.0512,0.0,0.0,0.0,0.0,-1.7953,-1.8024,0.0,0.0,0.0,0.0,0.0,0.0,0.0,0.0,0.0,0.0,0.0,0.0,-0.8939,-1.0647,-1.1896,-1.2254,0.0,0.0,0.0,0.0,0.0,-1.0405,-1.0752,-1.0977,-1.0984,-1.2589,-1.4813,-1.7641,-1.907,0.0,0.0,0.0,0.0,0.0,0.0,0.0,0.0,0.0,0.0,0.0,0.0,0.0,0.0,0.0,0.0,0.0,0.0,0.0,0.0,0.0,0.0,0.0,0.0,0.0,0.0,0.0,0.0,0.0,0.0,0.0,0.0,0.0,0.0,0.0,0.0,0.0,0.0,0.0,0.0,0.0,0.0,0.0,0.0,0.0,0.0,0.0,0.0,-1.686,-1.8245,-1.8294,-1.9147,-1.924,0.0,0.0,0.0,0.0,0.0,0.0,-2.2072,-2.307,-2.4129,-2.5195,-2.5881,-2.6631,-2.7436,-2.7895,-2.7936,-2.758,-2.758,-2.758,-2.758,-2.758,-2.758,-2.758,-2.758,-2.7282,-2.6583,-2.4163,-2.2861,-2.2283,-2.0832,-1.9941,-1.9525,-2.0019,-2.0217,-2.0329,0.0,0.0,0.0,0.0,0.0,0.0,0.0,0.0,0.0,0.0,0.0,-0.8818,0.0,0.0,0.0,0.0,0.0,0.0,0.0,0.0,0.0,-1.0543,-1.1311,-1.1744,-1.1744,-1.4845,-1.7059,0.0,0.0,0.0,0.0,0.0,0.0,0.0,0.0,0.0,0.0,0.0,0.0,0.0,0.0,0.0,0.0,0.0,0.0,0.0,0.0,0.0,0.0,0.0,0.0,0.0,0.0,0.0,0.0,0.0,0.0,0.0,0.0,0.0,0.0,0.0,0.0,0.0,0.0,0.0,0.0,0.0,0.0,0.0,0.0,0.0,0.0,0.0,0.0,0.0,0.0,0.0,0.0,-2.2139,-2.1803,0.0,0.0,0.0,0.0,-2.126,-2.2745,-2.3976,-2.4762,-2.6171,-2.7186,-2.7685,-2.8078,-2.8457,-2.888,-2.8617,-2.8422,-2.8343,-2.8343,-2.8343,-2.8343,-2.8343,-2.8343,-2.8343,-2.8343,-2.8326,-2.8127,-2.5887,-2.4526,-2.372,-2.2941,-2.2195,-2.1545,-2.1575,-2.159,-2.1585,0.0,0.0,0.0,-0.7251,-0.7296,-0.728,-0.7072,-0.7104,-0.7171,-0.7282,-0.8762,0.0,0.0,0.0,0.0,0.0,0.0,0.0,0.0,0.0,-1.3277,-1.2774,-1.3051,-1.4022,-1.575,-1.7139,-1.8788,0.0,0.0,0.0,0.0,0.0,0.0,0.0,0.0,0.0,0.0,0.0,0.0,0.0,0.0,0.0,0.0,0.0,0.0,0.0,0.0,0.0,0.0,0.0,0.0,0.0,0.0,0.0,0.0,0.0,0.0,0.0,0.0,0.0,0.0,0.0,0.0,0.0,0.0,0.0,0.0,0.0,0.0,0.0,0.0,0.0,0.0,0.0,0.0,0.0,0.0,0.0,0.0,-2.2546,-2.2872,0.0,0.0,-2.3198,-2.3433,-2.3723,-2.5136,-2.6333,-2.7144,-2.8089,-2.8809,-2.9228,-2.9421,-2.9555,-2.971,-2.9597,-2.9367,-2.9036,-2.9036,-2.9036,-2.9036,-2.9036,-2.9036,-2.9036,-2.9036,-2.8787,-2.8307,-2.7175,-2.6286,-2.5503,-2.4071,-2.3176,-2.27,-2.243,-2.2343,-2.2383,-0.7589,-0.7589,0.0,-0.7306,-0.7415,-0.7446,-0.7211,-0.7243,-0.7423,-0.7753,-0.9572,-1.1027,0.0,0.0,0.0,0.0,0.0,0.0,0.0,0.0,-1.4216,-1.4012,-1.4234,-1.5514,-1.795,-1.8478,0.0,0.0,0.0,0.0,0.0,0.0,0.0,0.0,0.0,0.0,0.0,0.0,0.0,0.0,0.0,0.0,-1.6309,0.0,0.0,0.0,0.0,0.0,0.0,0.0,0.0,0.0,0.0,0.0,0.0,0.0,0.0,0.0,0.0,0.0,0.0,0.0,0.0,0.0,0.0,0.0,0.0,0.0,0.0,0.0,0.0,0.0,0.0,0.0,0.0,0.0,0.0,0.0,-2.2393,-2.3712,-2.4277,-2.4664,-2.4979,-2.5705,-2.6272,-2.6602,-2.7715,-2.8595,-2.9152,-2.9472,-2.9814,-3.0154,-3.0055,-3.0073,-3.0222,-3.0222,-3.0081,-2.9761,-2.9761,-2.9761,-2.9761,-2.9761,-2.9761,-2.9761,-2.9761,-2.9533,-2.9049,-2.829,-2.77,-2.7114,-2.5128,-2.411,-2.3671,-2.3182,-2.3002,-2.3041,-0.7899,-0.7739,-0.7642,-0.7761,-0.7687,-0.7627,-0.7687,-0.7694,-0.7921,-0.8524,-1.0199,0.0,0.0,0.0,0.0,0.0,0.0,0.0,0.0,-1.5027,-1.4605,-1.4093,-1.4812,-1.6125,-1.807,0.0,0.0,0.0,0.0,0.0,0.0,0.0,0.0,0.0,0.0,0.0,0.0,0.0,0.0,0.0,0.0,0.0,-1.9509,0.0,0.0,0.0,0.0,0.0,0.0,0.0,0.0,0.0,0.0,0.0,0.0,0.0,0.0,0.0,0.0,0.0,0.0,0.0,0.0,0.0,0.0,0.0,0.0,0.0,0.0,0.0,0.0,0.0,0.0,0.0,0.0,0.0,-2.2914,-2.2864,-2.3645,-2.5968,-2.6147,-2.6435,-2.7381,-2.8062,-2.8842,-2.9758,-3.0364,-3.0715,-3.0718,-3.0346,-3.0255,-3.0521,-3.0097,-3.0062,-3.0489,-3.0506,-3.0506,-3.0506,-3.0506,-3.0506,-3.0506,-3.0506,-3.0506,-3.0506,-3.0506,-3.0489,-3.0398,-2.9197,-2.8715,-2.8463,-2.6205,-2.5028,-2.4537,-2.3879,-2.3625,-2.3573,-0.787,-0.7739,-0.7605,-0.7589,-0.7635,-0.7635,-0.7499,-0.756,-0.7914,-0.8714,0.0,0.0,0.0,0.0,0.0,0.0,0.0,0.0,-1.5917,0.0,-1.409,-1.5529,-1.7127,0.0,0.0,0.0,0.0,0.0,0.0,0.0,0.0,0.0,0.0,0.0,0.0,0.0,0.0,0.0,0.0,0.0,0.0,0.0,-2.1235,0.0,0.0,0.0,0.0,0.0,0.0,0.0,0.0,0.0,0.0,0.0,0.0,0.0,0.0,0.0,0.0,0.0,0.0,0.0,0.0,0.0,0.0,0.0,0.0,0.0,0.0,0.0,0.0,0.0,0.0,0.0,0.0,-2.3804,-2.3833,-2.4483,-2.5476,-2.6892,-2.7338,-2.7897,-2.89,-2.9554,-3.0037,-3.0277,-3.0459,-3.0761,-3.1191,-3.1069,-3.106,-3.1218,-3.1008,-3.076,-3.0489,-3.0506,-3.0506,-3.0506,-3.0506,-3.0506,-3.0506,-3.0506,-3.0506,-3.0506,-3.0506,-3.03,-2.9946,-2.9275,-2.8751,-2.8249,-2.6601,-2.5608,-2.5026,-2.4514,-2.4007,-2.3588,-0.7878,-0.7775,-0.7672,-0.7635,-0.7709,-0.7746,-0.762,-0.7679,-0.8115,-0.9175,0.0,0.0,0.0,0.0,0.0,0.0,0.0,0.0,-1.5364,-1.4496,-1.495,0.0,0.0,0.0,0.0,0.0,0.0,0.0,0.0,0.0,0.0,0.0,0.0,0.0,0.0,0.0,0.0,0.0,0.0,0.0,0.0,0.0,-2.2879,-2.2212,-2.1134,-1.9869,-1.9126,-1.8637,-1.82,-1.7224,0.0,0.0,0.0,0.0,0.0,0.0,0.0,0.0,0.0,0.0,0.0,0.0,0.0,0.0,0.0,0.0,0.0,0.0,0.0,0.0,0.0,0.0,0.0,0.0,-2.4533,-2.558,-2.5468,-2.5984,-2.6731,-2.7641,-2.8255,-2.8955,-2.9894,-3.052,-3.1077,-3.1553,-3.1464,-3.1706,-3.2456,-3.2141,-3.1948,-3.1965,-3.1901,-3.1587,-3.0969,-3.1272,-3.1272,-3.0952,-3.0952,-3.0803,-3.0506,-3.0506,-3.0506,0.0,-3.0506,-3.0342,-3.007,-2.9595,-2.9081,0.0,0.0,0.0,0.0,0.0,-2.459,-2.4029,-0.7921,-0.7856,-0.779,-0.7805,-0.7862,-0.7905,-0.7906,-0.7899,-0.8357,-0.9649,0.0,0.0,0.0,0.0,0.0,0.0,0.0,0.0,0.0,0.0,0.0,-1.865,0.0,0.0,0.0,0.0,0.0,0.0,0.0,0.0,0.0,0.0,0.0,0.0,0.0,0.0,0.0,0.0,0.0,0.0,0.0,0.0,-2.4192,-2.364,-2.2936,-2.2185,-2.1517,-2.0864,-2.0327,-2.0139,0.0,0.0,0.0,0.0,0.0,0.0,0.0,0.0,0.0,0.0,0.0,0.0,0.0,0.0,0.0,0.0,0.0,0.0,0.0,0.0,0.0,0.0,0.0,0.0,-2.5751,-2.7517,-2.7336,-2.7311,-2.7597,-2.8277,-2.8966,-2.9718,-3.0579,-3.118,-3.1978,-3.3096,-3.2894,-3.31,-3.3981,0.0,0.0,0.0,0.0,-3.2381,-3.173,-3.2365,-3.2332,-3.1598,-3.1598,-3.1217,-3.0506,-3.0506,-3.0506,-3.0506,-3.0506,-3.0468,-3.0384,-2.9984,-2.9483,-2.8849,-2.7239,-2.6587,-2.6512,-2.5854,-2.5217,-2.4776,-0.805,-0.7878,-0.7761,-0.7854,-0.7884,-0.7906,-0.7899,-0.7899,-0.8251,-0.9204,-1.0529,0.0,0.0,0.0,0.0,0.0,0.0,0.0,0.0,0.0,0.0,0.0,0.0,0.0,0.0,0.0,0.0,0.0,0.0,0.0,0.0,0.0,0.0,0.0,0.0,0.0,0.0,0.0,0.0,0.0,0.0,0.0,-2.3989,-2.4063,-2.4076,-2.3899,-2.3132,-2.3247,-2.3555,-2.2248,-2.161,-2.1103,-1.9763,0.0,0.0,0.0,0.0,0.0,0.0,0.0,0.0,0.0,0.0,0.0,0.0,0.0,0.0,0.0,0.0,0.0,0.0,0.0,0.0,-2.6373,-2.7091,-2.7604,-2.7888,-2.8066,-2.8455,-2.9238,-2.9686,-3.0393,-3.1521,-3.1966,-3.2613,-3.3594,-3.3613,-3.3741,-3.4147,-3.3917,0.0,-3.3107,-3.2834,-3.2636,-3.2481,-3.2636,-3.2332,-3.1598,0.0,0.0,-3.0506,-3.0506,-3.0506,-3.0506,-3.0506,-3.03,-2.9941,-2.9853,-2.9264,-2.8323,-2.7095,-2.6587,-2.6512,-2.5854,-2.5525,-2.5412,-0.8005,-0.7884,-0.7826,-0.789,-0.7906,-0.7899,-0.7899,-0.7899,-0.8183,-0.8942,-0.9803,0.0,0.0,0.0,0.0,0.0,0.0,0.0,0.0,0.0,0.0,0.0,0.0,0.0,0.0,0.0,0.0,0.0,0.0,0.0,0.0,0.0,0.0,0.0,0.0,0.0,0.0,0.0,0.0,0.0,0.0,0.0,-2.3631,-2.3968,-2.4173,-2.4247,-2.3998,-2.3931,-2.3883,-2.3146,-2.2342,-2.1497,-2.0652,-1.9826,-1.8994,0.0,0.0,0.0,0.0,0.0,0.0,0.0,0.0,0.0,0.0,0.0,0.0,0.0,0.0,-2.3514,0.0,0.0,-2.6846,-2.7271,-2.8002,-2.8551,-2.8683,-2.9069,-2.9369,-2.9397,-2.9932,-3.0667,-3.1602,-3.218,-3.2858,-3.3739,-3.3723,-3.4021,-3.4855,-3.4573,-3.4205,-3.3758,-3.3772,-3.3607,-3.3265,-3.363,-3.3425,-3.2713,-3.2332,-3.1747,-3.1035,-3.0671,-3.0506,-3.0506,-3.0506,-3.0363,-3.0113,-2.9639,-2.915,-2.8583,-2.7506,-2.6701,-2.6138,-2.6467,-2.5959,-2.5164,-0.7954,-0.7911,-0.7897,-0.7897,-0.7899,-0.7899,-0.7899,-0.7921,-0.8123,-0.8673,-0.911,-0.959,-1.0121,-1.058,-1.0977,0.0,0.0,0.0,0.0,0.0,0.0,0.0,0.0,0.0,0.0,0.0,0.0,0.0,0.0,0.0,0.0,0.0,0.0,0.0,0.0,0.0,0.0,0.0,0.0,0.0,0.0,0.0,-2.3336,-2.3653,-2.3925,-2.4115,-2.4206,-2.387,-2.3332,-2.327,-2.2368,-2.1222,-2.1053,-2.0558,-1.9851,-1.8989,-1.8627,0.0,0.0,0.0,0.0,0.0,0.0,0.0,0.0,0.0,-2.1917,-2.3582,-2.4531,-2.5383,-2.6457,-2.7387,-2.7906,-2.7637,-2.8715,-2.9551,-2.9475,-2.9976,-3.0161,-2.9695,-3.0234,-3.0942,-3.1694,-3.2376,-3.3121,-3.3951,-3.397,-3.4437,-3.5605,-3.5308,-3.4904,-3.4427,-3.4801,-3.4672,-3.4005,-3.4601,-3.4518,-3.3789,-3.3216,-3.2531,-3.178,-3.1052,-3.0704,-3.0704,-3.0555,-3.0506,-3.0426,-2.9572,-2.9189,-2.9005,-2.8076,-2.6939,-2.5929,-2.7016,-2.6378,-2.5082,-0.8053,-0.7984,-0.7906,-0.7906,-0.7899,-0.7899,-0.7899,-0.7998,-0.8097,-0.8174,-0.8845,-0.9349,-0.9404,-1.0144,-1.1222,0.0,0.0,0.0,0.0,0.0,0.0,0.0,0.0,0.0,0.0,0.0,0.0,0.0,0.0,0.0,0.0,0.0,0.0,0.0,0.0,0.0,0.0,0.0,0.0,0.0,0.0,0.0,-2.3301,-2.3348,-2.3667,-2.4034,-2.3533,-2.339,-2.336,-2.268,-2.2304,-2.2023,-2.1241,-2.094,-2.0683,-1.9812,0.0,-1.8621,-1.9194,-1.9411,0.0,-2.0539,-2.0716,-2.1451,0.0,0.0,-2.3915,-2.5766,-2.6449,-2.6767,-2.6846,-2.7857,-2.8692,-2.8718,-2.9358,-2.9882,-3.0002,-3.0285,-3.0673,-3.1184,-3.1182,-3.1551,-3.2638,-3.3138,-3.3776,-3.4712,-3.5237,-3.5627,-3.5848,-3.6142,-3.586,-3.4861,-3.5161,-3.5161,-3.4767,-3.4849,-3.4518,-3.3789,-3.3707,-3.3276,-3.2547,-3.1797,-3.1482,-3.1449,-3.0787,-3.0506,-3.0447,-2.9941,-2.9483,-2.9051,-2.8448,-2.7498,-2.6497,-2.6647,-2.6557,-2.6279,-0.7984,-0.7942,-0.7928,-0.7998,-0.7957,-0.7928,-0.8005,-0.8068,-0.8121,-0.8209,-0.8575,-0.8841,-0.8841,-0.9607,-1.0595,-1.1719,0.0,0.0,0.0,0.0,0.0,0.0,0.0,0.0,0.0,0.0,0.0,0.0,0.0,0.0,0.0,0.0,0.0,0.0,0.0,0.0,0.0,0.0,0.0,0.0,0.0,0.0,-2.3152,-2.2845,-2.2909,-2.3155,-2.3024,-2.2488,0.0,0.0,-2.1207,-2.0633,-1.9807,-1.9538,-1.9463,-1.9064,-1.9058,0.0,-2.1298,0.0,0.0,0.0,-2.2862,-2.3214,-2.5069,-2.4931,-2.4896,-2.6615,-2.7073,-2.7266,-2.7545,-2.8035,-2.8564,0.0,-2.9624,-3.0255,-3.0885,-3.0928,-3.1004,-3.1291,-3.1244,-3.1609,-3.2634,-3.289,-3.3476,-3.4693,-3.5024,-3.5479,-3.6211,-3.6199,-3.5854,-3.5195,-3.5142,-3.5048,-3.4899,-3.4899,-3.475,-3.4435,-3.4005,-3.3624,-3.3332,-3.258,-3.2017,-3.1581,-3.1267,-3.0903,-3.0447,-3.0006,-2.9528,-2.9051,-2.8519,-2.7592,-2.6587,-2.6587,-2.6108,-2.5418,-0.8012,-0.7977,-0.7984,-0.8073,-0.8054,-0.8047,-0.8135,-0.8189,-0.8249,-0.8338,-0.8466,-0.8628,-0.8837,-0.9594,-1.0392,-1.1138,-1.3043,-1.4666,0.0,0.0,0.0,0.0,0.0,0.0,0.0,0.0,0.0,0.0,0.0,0.0,0.0,0.0,0.0,0.0,0.0,0.0,0.0,0.0,0.0,0.0,0.0,0.0,-2.3044,-2.2439,-2.2175,-2.2121,-2.2164,-2.1428,0.0,0.0,-1.9882,-1.9233,-1.8395,-1.8314,-1.8534,-1.8684,-1.9653,-2.0937,-2.22,0.0,0.0,-2.3748,-2.3998,-2.423,-2.5024,-2.5016,-2.527,-2.6898,-2.716,-2.7279,-2.7877,-2.8047,0.0,-2.9364,-2.992,-3.0598,-3.1679,-3.1466,-3.1282,-3.1493,-3.1335,-3.1543,-3.2452,-3.2734,-3.3388,-3.4692,-3.4918,-3.5469,-3.6519,-3.6262,-3.5859,-3.5407,-3.5148,-3.4977,-3.4899,-3.4899,-3.4899,-3.4883,-3.4352,-3.4087,-3.4071,-3.3326,-3.2481,-3.1598,-3.1598,-3.1184,-3.0468,-3.0135,-2.9639,-2.9051,-2.8662,-2.7859,-2.6866,-2.6686,-2.5845,-2.4865,-0.8243,-0.8182,-0.8087,-0.8094,-0.8209,-0.828,-0.8286,-0.8403,-0.8491,-0.8491,-0.8616,-0.8969,-0.9673,-1.0425,-1.1164,-1.1909,-1.3341,-1.4666,-1.5729,-1.6524,0.0,0.0,0.0,0.0,0.0,0.0,0.0,0.0,0.0,0.0,0.0,0.0,0.0,0.0,0.0,0.0,0.0,0.0,0.0,0.0,0.0,0.0,-2.3019,-2.2289,-2.1649,-2.1102,-2.0773,0.0,0.0,0.0,-1.8565,-1.8379,-1.7518,-1.7818,0.0,-1.9342,-2.1235,0.0,0.0,0.0,-2.3812,-2.2885,-2.3244,-2.4016,-2.4835,-2.4804,-2.5069,-2.667,-2.68,-2.6838,-2.7575,-2.7926,-2.8539,-2.9871,-3.0305,-3.0931,-3.2193,-3.1703,-3.1475,-3.2265,-3.1668,-3.1527,0.0,-3.3055,-3.3899,-3.4907,-3.5466,-3.6069,-3.6761,-3.6588,-3.6152,-3.5424,-3.5402,-3.5218,-3.4899,-3.4899,-3.4899,-3.4899,-3.4883,-3.4866,-3.4833,-3.4087,-3.2978,-3.1598,-3.1598,-3.1184,-3.0506,-3.0468,-2.9941,-2.9097,-2.9074,-2.8463,-2.748,-2.6851,-2.6081,-2.5358,-0.8149,-0.8128,-0.8155,-0.8332,-0.8403,-0.8453,-0.8554,-0.8532,-0.8713,-0.9278,-0.9828,0.0,0.0,0.0,0.0,0.0,-1.344,-1.4525,-1.4966,-1.6285,0.0,0.0,0.0,0.0,0.0,0.0,0.0,0.0,0.0,0.0,0.0,0.0,0.0,0.0,0.0,0.0,0.0,0.0,0.0,0.0,0.0,0.0,-2.2353,-2.1521,-2.0831,-2.0217,0.0,0.0,0.0,0.0,0.0,0.0,-1.729,0.0,0.0,-1.9841,0.0,0.0,0.0,0.0,-2.3151,-2.3353,-2.3509,-2.3795,-2.4555,-2.4563,-2.4683,-2.5725,-2.5873,-2.5879,-2.6139,-2.6679,-2.7589,-2.9068,-2.9834,-3.0746,-3.2195,-3.216,-3.1897,-3.1633,-3.1844,0.0,0.0,0.0,0.0,-3.471,-3.5046,-3.5696,-3.688,-3.6392,-3.5989,-3.5732,-3.531,-3.5001,-3.4899,-3.4899,-3.4899,-3.4899,-3.4899,-3.4899,-3.4883,-3.4634,-3.3723,-3.2332,-3.2332,-3.1636,-3.0506,-3.0506,-3.0135,-2.9528,-2.9212,-2.8397,-2.7387,-2.7304,-2.6469,-2.5471,-0.8614,-0.8675,-0.8729,-0.8867,-0.8938,0.0,0.0,0.0,0.0,0.0,0.0,0.0,0.0,0.0,0.0,0.0,0.0,-1.4174,-1.4563,0.0,0.0,0.0,0.0,0.0,0.0,0.0,0.0,0.0,0.0,0.0,0.0,0.0,0.0,0.0,0.0,0.0,0.0,0.0,0.0,0.0,0.0,0.0,-2.1542,-2.0712,-2.0178,0.0,0.0,0.0,0.0,0.0,0.0,0.0,0.0,0.0,0.0,0.0,0.0,-2.1963,0.0,-2.3446,-2.343,-2.3956,-2.4134,-2.4223,-2.4442,-2.4401,-2.4431,-2.4923,-2.5015,-2.5085,-2.5349,-2.5823,-2.6771,-2.8596,-2.9334,-3.0404,-3.2511,-3.2564,-3.2406,-3.2441,-3.2651,0.0,0.0,0.0,0.0,-3.4818,-3.5154,-3.5843,-3.7054,-3.635,-3.5907,-3.5907,-3.5247,-3.4899,-3.4899,-3.4899,-3.4899,-3.4899,-3.4899,-3.4899,-3.4883,-3.4618,-3.3839,-3.2702,-3.2415,-3.162,-3.0506,-3.0506,-3.022,-2.9772,-2.9461,-2.8767,-2.7938,-2.7875,-2.7252,-2.6453,-0.9509,-0.969,-0.9676,0.0,0.0,0.0,0.0,0.0,0.0,0.0,0.0,0.0,0.0,0.0,0.0,0.0,0.0,0.0,0.0,0.0,0.0,0.0,0.0,0.0,-1.7228,-1.8064,0.0,0.0,0.0,0.0,0.0,0.0,0.0,0.0,0.0,0.0,0.0,0.0,0.0,0.0,0.0,0.0,-2.0666,-1.997,0.0,0.0,0.0,0.0,0.0,0.0,0.0,0.0,0.0,0.0,0.0,0.0,0.0,-2.3568,-2.2906,-2.3627,-2.4587,-2.464,-2.5022,-2.5208,-2.4466,-2.4304,-2.4291,-2.4238,-2.4251,-2.4449,0.0,0.0,-2.6156,-2.8456,-2.8912,-3.0036,-3.3073,-3.2932,-3.3055,0.0,0.0,0.0,0.0,0.0,0.0,-3.5241,0.0,-3.6447,-3.7242,-3.6395,-3.5907,-3.5907,-3.5247,-3.4899,-3.4899,-3.4899,-3.4899,-3.4899,-3.4899,-3.4883,-3.4816,-3.4104,-3.3398,-3.2597,-3.1896,-3.1184,-3.0506,-3.0506,-3.0241,-2.9815,-2.981,-2.9528,-2.9074,-2.8543,-2.8297,-2.8161,0.0,0.0,0.0,0.0,0.0,0.0,0.0,0.0,0.0,0.0,0.0,0.0,0.0,0.0,0.0,0.0,0.0,0.0,0.0,0.0,0.0,0.0,0.0,0.0,0.0,-1.78,0.0,0.0,0.0,0.0,0.0,0.0,0.0,0.0,0.0,0.0,0.0,0.0,0.0,0.0,0.0,0.0,-2.0029,0.0,0.0,0.0,0.0,0.0,0.0,0.0,0.0,0.0,0.0,0.0,-2.1252,0.0,0.0,-2.2866,-2.3999,-2.4337,-2.4516,-2.5055,-2.5314,-2.5208,-2.4466,-2.4304,-2.4133,-2.3523,-2.3418,-2.3458,-2.3651,0.0,0.0,-2.7719,-2.9018,0.0,-3.316,-3.3863,0.0,0.0,0.0,-3.513,-3.4942,-3.5456,0.0,0.0,-3.6004,-3.639,-3.7032,-3.6329,-3.5907,-3.5907,-3.5247,-3.4899,-3.4899,-3.4899,-3.4899,-3.4899,-3.4899,-3.4601,-3.4054,-3.3895,-3.3094,-3.1863,-3.1681,-3.1184,-3.0506,-3.0506,-3.0426,-3.03,-2.9941,-2.9728,-2.955,-2.9074,-2.8334,-2.7603,0.0,0.0,0.0,0.0,0.0,0.0,0.0,0.0,0.0,0.0,0.0,0.0,0.0,0.0,0.0,0.0,0.0,0.0,0.0,0.0,0.0,0.0,0.0,0.0,0.0,0.0,0.0,0.0,0.0,0.0,0.0,0.0,0.0,0.0,0.0,0.0,0.0,0.0,0.0,0.0,0.0,0.0,0.0,0.0,0.0,0.0,0.0,0.0,0.0,0.0,0.0,-2.0583,-2.1043,-2.1424,-2.1888,-2.287,0.0,-2.336,-2.4472,-2.5042,-2.5428,-2.5937,-2.5993,-2.5735,-2.4963,-2.4537,-2.3975,-2.2856,-2.2861,0.0,0.0,0.0,0.0,0.0,0.0,0.0,-3.309,-3.4196,-3.4952,0.0,-3.6057,0.0,-3.5986,-3.6358,-3.6661,0.0,-3.6679,-3.6742,-3.6989,-3.6308,-3.5929,-3.5994,-3.527,-3.4899,-3.4899,-3.4899,-3.4899,-3.4899,-3.4899,-3.4502,-3.3773,-3.3458,-3.2696,-3.1581,0.0,-3.0886,-3.0506,-3.0506,-3.0506,-3.0468,-3.0199,-3.0113,-3.0049,-2.9572,-2.8844,-2.8008,0.0,0.0,0.0,0.0,0.0,0.0,0.0,0.0,0.0,0.0,0.0,0.0,0.0,0.0,0.0,0.0,0.0,0.0,0.0,0.0,0.0,0.0,0.0,0.0,0.0,0.0,0.0,0.0,0.0,0.0,0.0,0.0,0.0,0.0,0.0,0.0,0.0,0.0,0.0,0.0,0.0,0.0,0.0,0.0,0.0,0.0,0.0,0.0,0.0,0.0,-2.1021,-2.1115,-2.2297,-2.2514,-2.2458,-2.3267,-2.3797,-2.4219,-2.4645,-2.557,-2.6532,-2.6907,-2.6798,-2.6388,-2.5577,-2.4747,-2.3729,-2.2306,0.0,0.0,-2.1182,0.0,-2.3633,-2.5296,0.0,-2.9053,-3.295,-3.4091,-3.5163,-3.6796,-3.7009,-3.7105,-3.7278,-3.7316,-3.741,-3.7594,-3.7447,-3.7259,-3.7046,-3.635,-3.595,-3.5946,-3.5264,-3.4899,-3.4899,-3.4899,-3.4899,-3.4899,-3.4899,-3.4452,-3.3624,-3.2978,-3.2249,-3.1416,0.0,0.0,-3.0506,-3.0506,-3.0506,-3.0506,-3.0506,-3.0447,-3.0363,-2.9962,-2.9461,-2.8723,0.0,0.0,0.0,0.0,0.0,0.0,0.0,0.0,0.0,0.0,0.0,0.0,0.0,0.0,0.0,0.0,0.0,0.0,0.0,0.0,0.0,0.0,0.0,0.0,0.0,0.0,0.0,0.0,0.0,0.0,0.0,0.0,0.0,0.0,0.0,0.0,0.0,0.0,0.0,0.0,0.0,0.0,0.0,0.0,0.0,0.0,0.0,0.0,0.0,0.0,-2.2042,-2.2987,-2.3012,-2.2976,-2.3023,-2.3382,-2.3413,-2.3643,-2.5184,-2.5588,-2.591,-2.7232,-2.708,-2.6388,-2.5577,-2.4313,0.0,0.0,0.0,-2.1323,-2.1726,-2.2505,0.0,-2.602,0.0,0.0,0.0,0.0,-3.453,0.0,0.0,0.0,0.0,0.0,0.0,0.0,0.0,0.0,-3.7259,-3.6539,-3.5825,-3.5142,-3.4954,-3.4899,-3.4899,-3.4899,-3.4899,-3.4899,-3.4899,-3.4187,-3.2901,-3.2768,-3.1967,-3.0688,0.0,0.0,-3.0506,-3.0506,-3.0506,-3.0506,-3.0506,-3.0262,-2.9919,-2.9832,-2.9219,-2.83,0.0,0.0,0.0,0.0,0.0,0.0,0.0,0.0,0.0,0.0,-1.3939,0.0,0.0,0.0,0.0,0.0,0.0,0.0,0.0,0.0,0.0,0.0,0.0,0.0,0.0,0.0,0.0,0.0,0.0,0.0,0.0,0.0,0.0,0.0,0.0,0.0,0.0,0.0,0.0,0.0,0.0,0.0,0.0,0.0,0.0,0.0,0.0,0.0,0.0,0.0,-2.1609,-2.2752,-2.3015,-2.3107,-2.3132,-2.3247,-2.3499,-2.3912,-2.4784,-2.5513,-2.609,-2.642,-2.6244,-2.577,-2.4998,0.0,0.0,0.0,0.0,-2.0673,-2.0251,0.0,0.0,0.0,0.0,0.0,0.0,0.0,0.0,0.0,0.0,0.0,0.0,0.0,0.0,0.0,0.0,0.0,-3.7484,-3.6779,-3.5989,-3.5041,-3.5065,-3.5041,-3.4899,-3.4899,-3.4899,-3.4899,-3.4502,-3.3756,-3.2702,-3.2299,-3.1515,-3.0506,-3.0506,0.0,-3.0506,-3.0506,-3.0506,-3.0506,-3.0506,-3.0363,-3.0135,-2.9897,-2.9332,-2.8545,0.0,0.0,0.0,0.0,0.0,0.0,0.0,-1.1893,-1.2796,-1.501,-1.5303,-1.5077,-1.4493,-1.3771,0.0,0.0,0.0,0.0,0.0,0.0,0.0,0.0,0.0,0.0,0.0,0.0,0.0,0.0,0.0,0.0,0.0,0.0,0.0,0.0,0.0,0.0,0.0,0.0,0.0,0.0,0.0,0.0,0.0,0.0,0.0,0.0,0.0,0.0,0.0,0.0,-2.0787,-2.1639,-2.2382,-2.2826,-2.3107,-2.3107,-2.3558,-2.408,-2.4238,-2.531,-2.6195,-2.5559,-2.5401,-2.5208,-2.4466,-2.2974,0.0,0.0,0.0,-1.9988,-1.8951,0.0,0.0,0.0,0.0,0.0,0.0,0.0,0.0,0.0,0.0,0.0,0.0,0.0,0.0,0.0,0.0,0.0,-3.743,-3.6838,-3.6075,-3.5135,-3.5175,-3.5111,-3.4899,-3.4899,-3.4899,-3.4883,-3.4137,-3.3415,-3.2663,-3.1951,-3.1201,-3.0506,-3.0506,0.0,0.0,-3.0506,-3.0506,-3.0506,-3.0506,-3.0426,-3.0284,-2.9653,-2.9125,-2.8442,0.0,0.0,0.0,0.0,0.0,0.0,0.0,-1.1561,-1.2796,-1.501,-1.5303,-1.5259,-1.5209,-1.4543,0.0,0.0,0.0,0.0,0.0,0.0,0.0,0.0,0.0,0.0,0.0,0.0,0.0,0.0,0.0,0.0,0.0,0.0,0.0,0.0,0.0,0.0,0.0,0.0,0.0,0.0,0.0,0.0,0.0,0.0,0.0,0.0,0.0,0.0,0.0,0.0,0.0,-2.003,-2.0778,-2.1961,-2.3107,-2.3107,0.0,0.0,-2.4098,-2.4888,-2.5476,-2.5419,-2.5401,-2.5208,-2.4466,0.0,0.0,0.0,-1.9689,-1.8899,-1.9468,0.0,0.0,0.0,0.0,0.0,0.0,0.0,0.0,0.0,0.0,0.0,0.0,0.0,0.0,0.0,0.0,0.0,0.0,-3.644,-3.5885,-3.5111,-3.4994,-3.4923,-3.4899,-3.4899,-3.4899,-3.4883,-3.4137,-3.3415,-3.2663,-3.1951,-3.1201,-3.0506,-3.0506,0.0,0.0,-3.0506,-3.0506,-3.0506,-3.0506,-3.0241,-2.9713,-2.8652,-2.7924,-2.7196,0.0,0.0,0.0,0.0,0.0,0.0,0.0,-1.181,-1.2953,-1.5607,-1.5956,-1.5956,-1.5956,-1.5298,0.0,0.0,0.0,0.0,0.0,0.0,0.0,0.0,0.0,0.0,0.0,0.0,0.0,0.0,0.0,0.0,0.0,0.0,0.0,0.0,0.0,0.0,0.0,0.0,0.0,0.0,0.0,0.0,0.0,0.0,0.0,0.0,0.0,0.0,0.0,0.0,0.0,0.0,-2.0058,-2.0866,0.0,0.0,-2.2751,-2.3177,-2.3488,-2.415,-2.4625,-2.4155,-2.4383,-2.4537,-2.3751,0.0,0.0,-2.0807,-1.9566,-1.86,-1.8916,-1.9363,-2.0135,0.0,0.0,0.0,0.0,0.0,0.0,0.0,0.0,0.0,0.0,0.0,0.0,0.0,0.0,0.0,0.0,-3.6084,-3.5749,-3.5111,-3.5041,-3.497,-3.4899,-3.4899,-3.4899,-3.4883,-3.369,-3.2984,-3.2669,-3.1487,-3.0787,-3.0506,-3.0506,0.0,0.0,-3.0506,-3.0506,-3.0456,-3.0009,-2.9725,-2.9398,-2.7971,-2.729,-2.6885,0.0,0.0,0.0,0.0,0.0,0.0,-1.1379,-1.1859,-1.2903,-1.5414,-1.5939,-1.6072,-1.6072,-1.5425,-1.4553,-1.3523,0.0,0.0,0.0,0.0,0.0,0.0,0.0,0.0,0.0,0.0,0.0,0.0,0.0,0.0,0.0,0.0,0.0,0.0,0.0,0.0,0.0,0.0,0.0,0.0,0.0,0.0,0.0,0.0,0.0,0.0,0.0,0.0,0.0,0.0,0.0,0.0,0.0,0.0,0.0,0.0,-2.2364,-2.2809,-2.3037,-2.3681,-2.4115,-2.33,-2.3699,-2.408,0.0,0.0,-2.0807,-2.0807,-1.9566,-1.8495,-1.8495,-1.9162,-1.9953,0.0,-2.1481,-2.2886,-2.5401,0.0,0.0,0.0,0.0,0.0,0.0,0.0,0.0,0.0,0.0,0.0,0.0,-3.5599,-3.5453,-3.5111,-3.5065,-3.4994,-3.4899,-3.4899,-3.4783,-3.4551,-3.3315,-3.258,-3.2332,-3.1068,-3.0506,-3.0506,0.0,0.0,0.0,-3.0506,-3.0373,-3.0125,-2.9595,-2.9264,-2.8903,-2.7444,-2.6882,-2.6661,0.0,0.0,0.0,0.0,0.0,0.0,0.0,-1.1528,-1.253,-1.4036,-1.4851,-1.5319,-1.5319,-1.4642,-1.4218,-1.4185,0.0,0.0,0.0,0.0,0.0,0.0,0.0,0.0,0.0,0.0,0.0,0.0,0.0,0.0,0.0,0.0,0.0,0.0,0.0,0.0,0.0,0.0,0.0,0.0,0.0,0.0,0.0,0.0,0.0,0.0,0.0,0.0,0.0,0.0,0.0,0.0,0.0,0.0,0.0,0.0,-2.2008,-2.2166,-2.2896,-2.3681,-2.4115,-2.33,-2.3699,-2.408,0.0,-2.1908,-2.0807,-2.0807,-1.9566,-1.8495,-1.8495,-1.9162,-1.9953,-2.0673,-2.1481,0.0,0.0,0.0,0.0,0.0,0.0,0.0,0.0,0.0,0.0,0.0,0.0,0.0,0.0,-3.4923,-3.497,-3.5105,-3.497,-3.4899,-3.4899,-3.4899,-3.4535,-3.3789,-3.3066,-3.2315,-3.1598,-3.0837,-3.0506,0.0,0.0,0.0,0.0,-3.0506,-3.0075,-2.9397,-2.9397,-2.8986,-2.8271,-2.7056,-2.6607,-2.6392,0.0,0.0,0.0,0.0,0.0,0.0,0.0,0.0,-1.1221,-1.3192,-1.3648,-1.4171,-1.5193,-1.4642,-1.4202,-1.4202,0.0,0.0,0.0,0.0,0.0,0.0,0.0,0.0,0.0,0.0,0.0,0.0,0.0,0.0,0.0,0.0,0.0,0.0,0.0,0.0,0.0,0.0,0.0,0.0,0.0,0.0,0.0,0.0,0.0,0.0,0.0,0.0,0.0,0.0,0.0,0.0,0.0,0.0,0.0,-2.0128,0.0,0.0,-2.2277,-2.2534,-2.2534,-2.1726,-2.213,-2.2517,-2.1709,-2.1147,-2.0666,-2.0146,-1.9215,-1.8495,-1.8495,-1.8706,-1.9478,-2.1323,0.0,0.0,0.0,0.0,0.0,0.0,0.0,0.0,0.0,0.0,0.0,0.0,0.0,0.0,0.0,-3.3765,-3.397,-3.4937,-3.4923,-3.4899,-3.4899,-3.4899,-3.4518,-3.3773,-3.305,-3.2315,-3.1565,-3.0837,0.0,0.0,0.0,0.0,0.0,-2.9959,-2.991,-3.0009,-2.8539,-2.8144,-2.8185,-2.6485,-2.5843,-2.5734,0.0,0.0,0.0,0.0,0.0,0.0,0.0,0.0,-1.0492,-1.2439,-1.2679,-1.3251,-1.4718,-1.4228,-1.3904,-1.4185,0.0,0.0,0.0,0.0,0.0,0.0,0.0,0.0,0.0,0.0,0.0,0.0,0.0,0.0,0.0,0.0,0.0,0.0,0.0,0.0,0.0,0.0,0.0,0.0,0.0,0.0,-1.8738,0.0,0.0,0.0,0.0,0.0,0.0,0.0,0.0,0.0,0.0,0.0,0.0,0.0,-2.0392,-2.12,0.0,-2.1551,-2.1428,-2.093,-2.1182,-2.141,-2.0901,-2.0585,-2.0251,-1.9784,-1.9057,-1.8495,-1.8495,-1.8987,-1.9847,-2.1305,0.0,0.0,0.0,0.0,0.0,0.0,0.0,0.0,0.0,0.0,0.0,0.0,0.0,0.0,0.0,0.0,-3.32,-3.4038,-3.4054,-3.4054,-3.4054,-3.4054,-3.369,-3.2961,-3.2497,-3.1901,-3.1168,-3.0704,0.0,0.0,0.0,0.0,0.0,-2.9317,-2.9135,-2.9152,-2.7812,-2.7415,-2.7427,-2.6211,-2.5758,-2.5684,0.0,0.0,0.0,0.0,0.0,0.0,0.0,0.0,0.0,0.0,0.0,-1.248,-1.3953,-1.3507,0.0,0.0,0.0,0.0,0.0,0.0,0.0,0.0,0.0,0.0,0.0,0.0,0.0,0.0,-1.928,-1.9836,-2.0495,0.0,0.0,0.0,0.0,0.0,0.0,0.0,0.0,0.0,0.0,-1.7923,0.0,0.0,0.0,0.0,0.0,0.0,0.0,0.0,0.0,0.0,0.0,0.0,0.0,0.0,0.0,0.0,0.0,-2.0631,-2.0708,-2.0638,-2.0684,-2.0708,-2.0638,-2.0146,0.0,-1.9626,-1.9022,-1.853,-1.8635,-1.9794,-2.0778,-2.1018,0.0,0.0,0.0,0.0,0.0,0.0,0.0,0.0,0.0,0.0,0.0,0.0,0.0,0.0,0.0,0.0,-3.2575,-3.2531,-3.2531,-3.258,-3.2702,-3.2702,-3.2332,-3.1598,-3.1598,-3.1217,-3.0506,-3.0506,0.0,0.0,0.0,0.0,0.0,-2.8608,-2.7945,-2.7383,-2.7249,-2.6851,-2.6268,-2.6219,-2.6202,-2.6079,0.0,0.0,0.0,0.0,0.0,0.0,0.0,0.0,0.0,0.0,0.0,-1.1727,-1.3192,-1.3192,0.0,0.0,0.0,0.0,0.0,0.0,0.0,0.0,0.0,0.0,0.0,0.0,0.0,-1.6346,-1.8965,-2.0327,-2.0518,-2.1155,0.0,0.0,0.0,0.0,0.0,0.0,0.0,0.0,-1.6659,-1.6966,0.0,0.0,0.0,0.0,-1.6203,-1.6668,0.0,0.0,0.0,0.0,0.0,0.0,0.0,0.0,-1.7851,-1.7904,-1.8079,0.0,-1.9812,-1.9197,-1.9496,-1.9794,0.0,-1.9391,-1.9521,0.0,0.0,0.0,0.0,0.0,0.0,0.0,0.0,0.0,0.0,0.0,0.0,0.0,0.0,0.0,0.0,0.0,0.0,0.0,0.0,0.0,0.0,0.0,-3.1274,-3.1023,-3.1019,-3.157,-3.2702,-3.2702,-3.2332,-3.1598,-3.1598,-3.1217,-3.0506,-3.0506,0.0,0.0,0.0,0.0,-2.8591,-2.7862,-2.7779,-2.8028,-2.6899,-2.67,-2.6967,-2.6419,-2.6202,-2.6168,0.0,0.0,0.0,0.0,0.0,0.0,0.0,0.0,0.0,0.0,0.0,0.0,0.0,0.0,0.0,0.0,0.0,0.0,0.0,0.0,0.0,0.0,0.0,0.0,0.0,0.0,0.0,0.0,0.0,-2.0799,0.0,0.0,0.0,0.0,0.0,0.0,0.0,0.0,0.0,0.0,0.0,0.0,0.0,0.0,0.0,0.0,-1.5141,-1.5615,0.0,-1.622,-1.6975,-1.7861,0.0,0.0,0.0,0.0,-1.6808,-1.6869,-1.722,-1.8475,-1.9591,-1.9162,-1.9391,-1.9591,-1.9162,0.0,0.0,0.0,0.0,0.0,0.0,0.0,0.0,0.0,0.0,0.0,0.0,0.0,0.0,0.0,0.0,0.0,0.0,0.0,0.0,0.0,0.0,0.0,0.0,0.0,-3.0855,-3.051,-3.0506,-3.087,-3.1686,-3.1686,-3.1504,-3.1101,-3.1101,-3.0886,-3.0489,-3.0141,-2.9777,0.0,0.0,0.0,-2.7829,-2.71,-2.7015,-2.7313,-2.6518,-2.6452,-2.675,-2.6352,-2.6202,-2.6168,0.0,0.0,0.0,0.0,0.0,0.0,0.0,0.0,0.0,0.0,0.0,0.0,0.0,0.0,0.0,0.0,0.0,0.0,0.0,0.0,0.0,0.0,0.0,0.0,0.0,0.0,0.0,0.0,0.0,0.0,0.0,0.0,0.0,0.0,0.0,0.0,0.0,0.0,0.0,0.0,0.0,0.0,0.0,0.0,0.0,0.0,0.0,0.0,0.0,-1.5659,-1.651,-1.7264,-1.7027,0.0,0.0,0.0,0.0,0.0,-1.7062,-1.8475,-1.9696,-1.9696,-1.9784,-1.9882,-1.9882,0.0,0.0,0.0,0.0,0.0,0.0,0.0,0.0,0.0,0.0,0.0,0.0,0.0,0.0,0.0,0.0,0.0,0.0,0.0,0.0,0.0,0.0,0.0,0.0,0.0,0.0,-3.0589,-3.0526,-3.0506,-3.0506,-3.0506,-3.0506,-3.0506,-3.0506,-3.0506,-3.0472,-2.9728,-2.933,0.0,0.0,0.0,-2.7083,-2.6468,-2.6202,-2.6202,-2.6202,-2.6202,-2.6202,-2.6202,-2.6202,-2.615,0.0,0.0,0.0,0.0,0.0,0.0,0.0,0.0,0.0,0.0,0.0,0.0,0.0,0.0,0.0,0.0,0.0,0.0,0.0,0.0,0.0,0.0,0.0,0.0,0.0,0.0,0.0,0.0,0.0,0.0,-2.07,-2.2051,-2.1307,0.0,0.0,0.0,0.0,0.0,0.0,0.0,0.0,0.0,0.0,0.0,0.0,0.0,0.0,0.0,0.0,-1.4422,-1.5607,-1.708,-1.5756,0.0,0.0,0.0,0.0,0.0,-1.6905,-1.843,-1.9633,-1.9696,-2.0163,-2.0631,0.0,0.0,0.0,0.0,0.0,0.0,0.0,0.0,0.0,0.0,0.0,0.0,0.0,0.0,0.0,0.0,0.0,0.0,0.0,0.0,0.0,0.0,0.0,0.0,0.0,0.0,-3.1254,-3.0935,-3.0651,-3.0506,-3.0506,-3.0506,-3.0506,-3.0506,-3.0506,-3.0506,-3.0472,-2.9728,-2.9085,0.0,0.0,-2.695,-2.6369,-2.6252,-2.6202,-2.6202,-2.6202,-2.6202,-2.6202,-2.6202,-2.6202,-2.6185,0.0,0.0,0.0,0.0,0.0,0.0,0.0,0.0,0.0,0.0,0.0,0.0,0.0,0.0,0.0,0.0,0.0,0.0,0.0,0.0,0.0,0.0,0.0,0.0,0.0,0.0,0.0,0.0,0.0,-2.0882,-2.1481,-2.1539,-2.0194,-1.7705,0.0,0.0,0.0,0.0,0.0,0.0,0.0,0.0,0.0,0.0,0.0,0.0,0.0,0.0,0.0,0.0,-1.5475,-1.651,-1.536,0.0,0.0,0.0,0.0,0.0,-1.6282,-1.7826,-1.9205,-2.0075,-2.0883,-2.1445,0.0,0.0,0.0,0.0,0.0,0.0,0.0,0.0,0.0,0.0,0.0,0.0,0.0,0.0,0.0,0.0,0.0,0.0,0.0,0.0,0.0,0.0,0.0,0.0,0.0,0.0,-3.1075,-3.0736,-3.0572,-3.0506,-3.0506,-3.0092,-2.991,-2.991,-2.991,-2.9731,-2.9334,-2.8588,-2.8111,-2.7763,0.0,-2.6518,-2.6202,-2.6202,-2.6202,-2.6202,-2.6202,-2.6202,-2.6202,-2.6202,-2.6202,-2.6202,0.0,0.0,0.0,0.0,0.0,0.0,0.0,0.0,0.0,0.0,0.0,0.0,0.0,0.0,0.0,0.0,0.0,0.0,0.0,0.0,0.0,0.0,0.0,0.0,0.0,0.0,0.0,-1.8572,-1.981,-2.0941,-2.1884,-2.0531,-1.8892,0.0,0.0,0.0,0.0,0.0,0.0,0.0,0.0,0.0,0.0,0.0,0.0,0.0,0.0,0.0,0.0,0.0,0.0,0.0,0.0,0.0,0.0,-1.4299,-1.3896,-1.4247,-1.5782,-1.7186,-1.859,-2.0146,0.0,-2.2095,0.0,0.0,0.0,0.0,0.0,0.0,0.0,0.0,0.0,0.0,0.0,0.0,0.0,0.0,0.0,0.0,0.0,0.0,0.0,0.0,0.0,0.0,0.0,0.0,0.0,0.0,-3.0474,-3.0199,-3.0074,-3.0013,-3.0013,-2.945,-2.9251,-2.9397,-2.9251,-2.8903,-2.8376,-2.763,-2.7298,-2.7249,-2.6518,-2.6202,-2.6202,-2.6202,-2.6202,-2.6202,-2.6202,-2.6202,-2.6202,-2.6202,-2.6202,-2.6202,0.0,0.0,0.0,0.0,0.0,0.0,0.0,0.0,0.0,0.0,0.0,0.0,0.0,0.0,0.0,0.0,0.0,0.0,0.0,0.0,0.0,0.0,0.0,0.0,0.0,-1.6403,-1.6851,-1.7593,-1.8327,-1.9177,-2.0158,-1.8813,-1.7737,0.0,0.0,0.0,0.0,0.0,0.0,0.0,-1.3843,0.0,0.0,0.0,0.0,0.0,0.0,0.0,0.0,0.0,0.0,0.0,0.0,0.0,-1.4921,-1.4124,-1.3896,-1.4247,-1.5782,-1.6773,-1.7764,-1.938,0.0,0.0,0.0,0.0,0.0,0.0,0.0,0.0,0.0,0.0,0.0,0.0,0.0,0.0,0.0,0.0,0.0,0.0,0.0,0.0,0.0,0.0,0.0,0.0,0.0,0.0,0.0,0.0,0.0,-2.9293,-2.8812,-2.8558,-2.8558,-2.8508,-2.8771,-2.938,-2.8754,-2.8442,-2.8376,-2.763,-2.7298,-2.7249,-2.6518,-2.6202,-2.6202,-2.6202,-2.6202,-2.6202,-2.6202,-2.6202,-2.6202,-2.6202,-2.6202,-2.6202,0.0,0.0,0.0,0.0,0.0,0.0,0.0,0.0,0.0,0.0,0.0,0.0,0.0,0.0,0.0,0.0,0.0,0.0,0.0,0.0,0.0,0.0,0.0,-1.4967,-1.569,-1.7022,-1.7839,-1.8108,-1.8836,-1.9438,-1.9908,-1.8488,0.0,0.0,0.0,0.0,0.0,0.0,0.0,0.0,-1.3657,-1.3663,0.0,0.0,0.0,0.0,0.0,0.0,0.0,0.0,-1.4131,0.0,0.0,0.0,0.0,0.0,-1.3896,-1.4124,-1.5167,-1.6712,-1.8309,-1.9415,0.0,0.0,0.0,0.0,0.0,0.0,0.0,0.0,0.0,0.0,0.0,0.0,0.0,0.0,0.0,0.0,0.0,0.0,0.0,0.0,0.0,0.0,0.0,0.0,0.0,0.0,0.0,0.0,0.0,-2.889,-2.8686,-2.8531,-2.8392,-2.7945,-2.7845,-2.8094,-2.7845,-2.7481,-2.7015,-2.6733,-2.6617,-2.6601,-2.6318,-2.6202,-2.6202,-2.6202,-2.6202,-2.6202,-2.6202,-2.6202,-2.6202,-2.6202,-2.6202,-2.6202,0.0,0.0,0.0,0.0,0.0,0.0,0.0,0.0,0.0,0.0,0.0,0.0,0.0,0.0,0.0,0.0,0.0,0.0,0.0,0.0,0.0,0.0,0.0,-1.4443,-1.4934,-1.6613,-1.7607,-1.7839,-1.834,-1.8531,-1.8428,0.0,0.0,0.0,0.0,0.0,0.0,0.0,0.0,0.0,-1.3445,-1.3462,0.0,0.0,0.0,0.0,0.0,0.0,0.0,0.0,-1.3845,0.0,0.0,0.0,0.0,0.0,0.0,-1.4673,-1.5171,-1.7062,-1.9022,0.0,0.0,0.0,0.0,0.0,0.0,0.0,0.0,0.0,0.0,0.0,0.0,0.0,0.0,0.0,0.0,0.0,0.0,0.0,0.0,0.0,0.0,0.0,0.0,0.0,0.0,0.0,0.0,0.0,0.0,0.0,-2.8088,-2.7923,-2.7713,-2.7199,-2.695,-2.695,-2.695,-2.6684,-2.6202,-2.6202,-2.6202,-2.6202,-2.6202,-2.6202,-2.6202,-2.6202,-2.6202,-2.6202,-2.6202,-2.6202,-2.6202,-2.6202,-2.6202,-2.6202,0.0,0.0,0.0,0.0,0.0,0.0,0.0,0.0,0.0,0.0,0.0,0.0,0.0,0.0,0.0,0.0,0.0,0.0,0.0,0.0,0.0,0.0,0.0,-1.4185,-1.4185,-1.4901,-1.5641,-1.6387,-1.6403,-1.6022,-1.5319,0.0,0.0,0.0,0.0,0.0,0.0,0.0,0.0,0.0,0.0,-1.3303,-1.3295,0.0,0.0,0.0,0.0,0.0,0.0,0.0,-1.3504,-1.3504,0.0,0.0,0.0,0.0,-1.4684,-1.601,-1.5992,-1.7811,0.0,0.0,0.0,0.0,0.0,0.0,0.0,0.0,0.0,0.0,0.0,0.0,0.0,0.0,0.0,0.0,0.0,0.0,0.0,0.0,0.0,0.0,0.0,0.0,0.0,0.0,0.0,0.0,0.0,0.0,0.0,0.0,-2.6725,-2.6468,-2.6202,-2.6202,-2.6202,-2.6202,-2.6185,-2.6185,-2.6202,-2.6202,-2.6202,-2.6202,-2.6202,-2.6202,-2.6202,-2.6185,-2.6185,-2.6169,-2.6169,-2.6169,-2.6185,-2.6185,-2.6185,-2.6202,0.0,0.0,0.0,0.0,0.0,0.0,0.0,0.0,0.0,0.0,0.0,0.0,0.0,0.0,0.0,0.0,0.0,0.0,0.0,0.0,0.0,0.0,0.0,0.0,0.0,0.0,-1.4884,-1.5624,-1.6155,-1.6287,0.0,0.0,0.0,-1.5574,0.0,0.0,0.0,0.0,0.0,0.0,0.0,-1.3106,-1.3007,0.0,0.0,0.0,0.0,0.0,0.0,0.0,0.0,0.0,0.0,0.0,0.0,0.0,-1.5028,-1.6474,-1.5445,0.0,0.0,0.0,0.0,0.0,0.0,0.0,0.0,0.0,0.0,0.0,0.0,0.0,0.0,0.0,0.0,0.0,0.0,0.0,0.0,0.0,0.0,0.0,0.0,0.0,0.0,0.0,0.0,0.0,0.0,0.0,0.0,0.0,-2.6725,-2.6468,-2.6202,-2.6202,-2.6202,-2.6185,-2.5672,-2.5689,-2.6202,-2.6202,-2.6202,-2.6202,-2.6202,-2.6202,-2.6152,-2.564,-2.5127,-2.4663,-2.4663,-2.4978,-2.5424,-2.5424,-2.5739,-2.6202,0.0,0.0,0.0,0.0,0.0,0.0,0.0,0.0,0.0,0.0,0.0,0.0,0.0,0.0,0.0,0.0,0.0,0.0,0.0,0.0,0.0,0.0,0.0,0.0,0.0,-1.3738,-1.4222,0.0,0.0,0.0,0.0,0.0,0.0,-1.5615,0.0,0.0,0.0,0.0,0.0,0.0,0.0,-1.2838,-1.2787,0.0,0.0,0.0,0.0,0.0,0.0,0.0,0.0,0.0,0.0,0.0,0.0,-1.428,-1.569,-1.7271,-1.7043,0.0,0.0,0.0,0.0,0.0,0.0,0.0,0.0,0.0,0.0,0.0,0.0,0.0,0.0,0.0,0.0,0.0,0.0,0.0,0.0,0.0,0.0,0.0,0.0,0.0,0.0,0.0,0.0,0.0,0.0,0.0,0.0,0.0,-2.6908,-2.6674,-2.652,-2.631,-2.6124,-2.5913,-2.536,-2.5193,-2.5342,-2.5342,-2.5342,-2.5342,-2.5342,-2.5342,-2.5292,-2.4862,-2.4398,-2.4,-2.4,-2.4265,-2.4663,-2.4663,-2.4944,-2.5342,0.0,0.0,-0.8809,-1.0304,0.0,0.0,0.0,0.0,0.0,0.0,0.0,-1.2412,0.0,0.0,0.0,-1.2688,0.0,0.0,0.0,0.0,0.0,0.0,0.0,0.0,0.0,0.0,0.0,0.0,0.0,0.0,0.0,0.0,-1.544,-1.5872,0.0,0.0,0.0,0.0,0.0,0.0,0.0,-1.2601,-1.2591,-1.2601,0.0,0.0,0.0,0.0,0.0,0.0,0.0,0.0,0.0,0.0,0.0,-1.4745,-1.6417,-1.8189,0.0,0.0,0.0,0.0,0.0,0.0,0.0,0.0,0.0,0.0,0.0,0.0,0.0,0.0,0.0,0.0,0.0,0.0,0.0,0.0,0.0,0.0,0.0,0.0,0.0,0.0,0.0,0.0,0.0,0.0,0.0,0.0,0.0,0.0,-2.7066,-2.6887,-2.6887,-2.6318,-2.5813,0.0,-2.5063,-2.4547,-2.3901,-2.3967,-2.4,-2.4,-2.4,-2.3967,-2.3901,-2.3901,-2.3868,-2.3802,-2.3802,-2.3835,-2.3901,-2.3901,-2.3934,-2.4,0.0,0.0,-0.9712,-1.0783,0.0,0.0,0.0,0.0,0.0,-1.2195,-1.1827,-1.1568,-1.1577,-1.1329,0.0,-1.1885,-1.1556,0.0,0.0,0.0,0.0,0.0,0.0,0.0,0.0,0.0,0.0,0.0,0.0,0.0,0.0,0.0,0.0,0.0,0.0,0.0,0.0,0.0,0.0,0.0,-1.2578,-1.2559,-1.2522,-1.2578,-1.2684,0.0,0.0,0.0,0.0,0.0,0.0,0.0,-1.3093,-1.388,-1.4662,-1.3823,-1.595,0.0,0.0,0.0,0.0,0.0,0.0,0.0,0.0,0.0,0.0,0.0,0.0,0.0,0.0,0.0,0.0,0.0,0.0,0.0,0.0,0.0,0.0,0.0,0.0,0.0,0.0,0.0,0.0,0.0,0.0,0.0,0.0,0.0,0.0,-2.7386,-2.6536,-2.6053,-2.6053,-2.5157,-2.4659,0.0,-2.3748,-2.3288,-2.3156,-2.3735,-2.4,-2.4,-2.4,-2.3669,-2.3139,-2.3139,-2.2791,-2.2261,-2.2261,-2.2626,-2.3139,-2.3139,-2.3503,-2.4,0.0,0.0,0.0,0.0,0.0,0.0,0.0,0.0,-1.1581,-1.1993,-1.1498,-1.1172,-1.1329,-1.0968,0.0,0.0,-1.0992,-1.1161,0.0,0.0,0.0,0.0,0.0,0.0,0.0,0.0,0.0,0.0,0.0,0.0,0.0,0.0,0.0,0.0,0.0,0.0,0.0,0.0,0.0,-1.2499,-1.2542,-1.2532,-1.2499,-1.2542,-1.2623,-1.2712,-1.2822,0.0,0.0,0.0,0.0,0.0,0.0,0.0,-1.4238,-1.4171,-1.582,-1.7734,0.0,0.0,0.0,0.0,0.0,0.0,0.0,0.0,0.0,0.0,0.0,0.0,0.0,0.0,0.0,0.0,0.0,0.0,0.0,0.0,0.0,0.0,0.0,0.0,0.0,0.0,0.0,0.0,0.0,0.0,0.0,-2.61,-2.5982,-2.6294,-2.5626,-2.5284,-2.5316,-2.4553,-2.4041,-2.3813,-2.3198,-2.2708,-2.2392,-2.2758,-2.294,-2.294,-2.294,-2.2725,-2.2376,-2.2376,-2.216,-2.1812,-2.1812,-2.2029,-2.2376,-2.2376,-2.2609,-2.294,0.0,0.0,0.0,0.0,0.0,0.0,0.0,0.0,0.0,-1.1841,-1.1328,-1.0975,-1.117,-1.0783,-1.0477,0.0,0.0,0.0,-1.0694,0.0,0.0,0.0,0.0,0.0,0.0,0.0,0.0,0.0,0.0,0.0,0.0,0.0,0.0,0.0,0.0,0.0,0.0,0.0,0.0,-1.2505,-1.2505,-1.2505,-1.2505,-1.2509,-1.2546,-1.262,-1.2757,-1.2841,-1.2924,-1.3022,0.0,0.0,0.0,0.0,-1.335,-1.4562,-1.5524,-1.6647,0.0,0.0,0.0,0.0,0.0,0.0,0.0,0.0,0.0,0.0,0.0,0.0,0.0,0.0,0.0,0.0,0.0,0.0,0.0,0.0,0.0,0.0,0.0,0.0,0.0,0.0,0.0,0.0,0.0,0.0,-2.5384,-2.5279,-2.518,-2.5153,-2.4801,-2.4663,-2.4723,-2.4064,-2.354,-2.3158,-2.2845,-2.2377,-2.1812,-2.1812,-2.1812,-2.1812,-2.1812,-2.1812,-2.1812,-2.1812,-2.1812,-2.1812,-2.1812,-2.1812,-2.1812,-2.1812,-2.1812,-2.1812,0.0,0.0,0.0,0.0,0.0,0.0,0.0,0.0,0.0,0.0,0.0,-1.076,-1.0411,-0.9994,-0.9719,-0.9652,-0.9192,-0.9408,0.0,0.0,0.0,0.0,0.0,0.0,0.0,0.0,0.0,0.0,0.0,0.0,0.0,0.0,0.0,0.0,0.0,0.0,0.0,0.0,0.0,-1.2505,-1.2505,-1.2505,-1.2499,-1.2559,-1.2591,-1.262,-1.2757,-1.2841,-1.2898,-1.2917,-1.3004,0.0,0.0,0.0,0.0,0.0,0.0,0.0,0.0,0.0,0.0,0.0,0.0,0.0,0.0,0.0,0.0,0.0,0.0,0.0,0.0,0.0,0.0,0.0,0.0,0.0,0.0,0.0,0.0,0.0,0.0,0.0,0.0,0.0,0.0,0.0,0.0,0.0,-2.5331,-2.48,-2.4734,-2.5343,-2.4716,-2.4353,-2.4371,-2.3268,-2.2671,-2.2596,-2.2168,-2.1912,-2.1812,-2.1812,-2.1812,-2.1812,-2.1812,-2.1812,-2.1812,-2.1812,-2.1812,-2.1812,-2.1812,-2.1812,-2.1812,-2.1812,-2.1812,-2.1812,0.0,0.0,0.0,0.0,0.0,0.0,0.0,0.0,0.0,0.0,0.0,-1.0895,-1.0881,-1.0081,-0.9518,-0.9444,-0.8865,0.0,0.0,0.0,0.0,0.0,0.0,0.0,0.0,0.0,0.0,0.0,0.0,0.0,0.0,-1.4767,-1.5241,0.0,0.0,0.0,0.0,0.0,0.0,-1.2505,-1.2505,-1.2962,0.0,0.0,-1.3028,-1.3627,0.0,0.0,0.0,-1.288,0.0,0.0,0.0,0.0,0.0,0.0,0.0,0.0,0.0,0.0,0.0,0.0,0.0,0.0,0.0,0.0,0.0,0.0,0.0,0.0,0.0,0.0,0.0,0.0,0.0,0.0,0.0,0.0,0.0,0.0,0.0,0.0,0.0,0.0,0.0,0.0,0.0,-2.3405,-2.4072,-2.3804,-2.3718,-2.3951,-2.3637,-2.3411,-2.3292,-2.2764,-2.2429,-2.2271,-2.207,-2.1897,-2.1812,-2.1812,-2.1812,-2.1812,-2.1812,-2.1812,-2.1812,-2.1812,-2.1812,-2.1812,-2.1812,-2.1812,-2.1812,-2.1812,-2.1812,-2.1812,0.0,0.0,0.0,0.0,0.0,0.0,0.0,0.0,0.0,0.0,0.0,-1.1049,-1.1372,0.0,0.0,0.0,-0.8784,0.0,0.0,0.0,0.0,0.0,0.0,0.0,0.0,0.0,0.0,0.0,0.0,0.0,-1.5629,-1.5106,-1.6323,0.0,-1.762,0.0,0.0,0.0,0.0,-1.3026,-1.3026,-1.3674,-1.4574,-1.3876,-1.4295,-1.5073,0.0,0.0,0.0,0.0,0.0,0.0,0.0,0.0,0.0,0.0,0.0,0.0,0.0,0.0,0.0,0.0,0.0,0.0,0.0,0.0,0.0,0.0,0.0,0.0,0.0,0.0,0.0,0.0,0.0,0.0,0.0,0.0,0.0,0.0,0.0,0.0,0.0,0.0,0.0,0.0,0.0,-2.3107,-2.3107,-2.3107,-2.3033,-2.2881,-2.2881,-2.2803,-2.2646,-2.2555,-2.2329,-2.201,-2.201,-2.194,-2.1812,-2.1812,-2.1812,-2.1812,-2.1812,-2.1812,-2.1812,-2.1812,-2.1812,-2.1812,-2.1812,-2.1812,-2.1812,-2.1812,-2.1812,-2.1812,0.0,0.0,0.0,0.0,0.0,0.0,0.0,0.0,0.0,0.0,0.0,-1.1097,-1.1372,-1.0836,-1.0168,-0.9471,-0.8784,0.0,0.0,0.0,0.0,0.0,0.0,0.0,0.0,0.0,0.0,0.0,0.0,0.0,-1.4687,-1.526,-1.7063,-1.9688,-1.8267,-1.6891,-1.5545,0.0,0.0,0.0,-1.449,-1.4608,-1.4931,-1.6192,-1.6826,-1.6881,0.0,0.0,0.0,0.0,0.0,0.0,0.0,0.0,0.0,0.0,0.0,0.0,0.0,0.0,0.0,0.0,0.0,0.0,0.0,0.0,0.0,0.0,0.0,0.0,0.0,0.0,0.0,0.0,0.0,0.0,0.0,0.0,0.0,0.0,0.0,0.0,0.0,0.0,0.0,0.0,0.0,-2.3107,-2.3107,-2.3107,-2.3107,-2.3077,-2.3077,-2.3082,-2.3082,-2.2685,-2.2276,-2.1827,-2.1827,-2.1796,-2.1812,-2.1812,-2.1812,-2.1812,-2.1812,-2.1812,-2.1812,-2.1812,-2.1812,-2.1812,-2.1812,-2.1812,-2.1812,-2.1812,-2.1812,-2.1812,0.0,0.0,0.0,0.0,0.0,0.0,0.0,0.0,0.0,0.0,0.0,0.0,0.0,-1.0634,-1.0023,-0.9343,0.0,0.0,0.0,0.0,0.0,0.0,0.0,0.0,0.0,0.0,0.0,0.0,0.0,-1.0781,-1.3829,-1.3689,-1.481,-1.6978,-1.6995,-1.6973,-1.6831,-1.5264,0.0,0.0,0.0,0.0,0.0,0.0,-1.763,-1.8302,0.0,0.0,0.0,0.0,0.0,0.0,0.0,0.0,-1.2389,0.0,0.0,0.0,0.0,0.0,0.0,0.0,0.0,0.0,0.0,0.0,0.0,0.0,0.0,0.0,0.0,0.0,0.0,0.0,0.0,0.0,0.0,0.0,0.0,0.0,0.0,0.0,0.0,0.0,0.0,0.0,0.0,0.0,-2.3107,-2.3107,-2.3107,-2.3107,-2.3107,-2.3107,-2.3107,-2.2957,-2.2734,-2.2436,-2.2301,-2.2161,-2.1998,-2.1855,-2.1812,-2.1812,-2.1926,-2.1911,-2.1812,-2.1812,-2.1812,-2.1812,-2.1812,-2.1812,-2.1812,-2.1812,-2.1812,-2.1812,0.0,0.0,0.0,-1.1489,0.0,-1.114,-1.0068,0.0,0.0,0.0,0.0,0.0,0.0,0.0,0.0,0.0,0.0,0.0,0.0,0.0,0.0,0.0,0.0,0.0,0.0,0.0,0.0,0.0,0.0,0.0,0.0,0.0,-1.3173,-1.5056,-1.4924,0.0,0.0,0.0,0.0,-1.5355,0.0,0.0,-1.793,0.0,0.0,0.0,0.0,0.0,0.0,0.0,0.0,0.0,0.0,-1.3151,-1.2323,-1.2075,0.0,0.0,0.0,0.0,0.0,0.0,0.0,0.0,0.0,0.0,0.0,0.0,0.0,0.0,0.0,0.0,0.0,0.0,0.0,0.0,0.0,0.0,0.0,0.0,0.0,0.0,0.0,0.0,0.0,0.0,0.0,0.0,-2.3107,-2.3107,-2.3107,-2.3107,-2.3107,-2.3082,-2.3008,-2.3008,-2.2906,-2.2699,-2.2552,-2.2415,-2.2226,-2.2104,-2.2032,-2.2046,-2.2186,-2.2073,-2.1812,-2.1884,-2.1855,-2.1812,-2.1812,-2.1812,-2.1812,-2.1812,-2.1812,-2.1812,-1.1489,-1.1489,-1.1489,-1.1489,-1.1489,-1.1274,-1.0604,-1.0502,0.0,0.0,0.0,0.0,0.0,0.0,0.0,0.0,0.0,0.0,0.0,0.0,0.0,0.0,0.0,0.0,0.0,0.0,0.0,0.0,0.0,0.0,0.0,0.0,-1.2398,0.0,-1.2266,-1.331,-1.6515,0.0,-1.6531,-1.667,0.0,-1.7901,-1.8216,0.0,0.0,0.0,-1.9968,-1.9542,0.0,0.0,0.0,0.0,0.0,0.0,-1.2927,-1.2207,0.0,0.0,0.0,0.0,0.0,0.0,0.0,0.0,0.0,0.0,0.0,0.0,0.0,0.0,0.0,0.0,0.0,0.0,0.0,0.0,0.0,0.0,0.0,0.0,0.0,0.0,0.0,0.0,0.0,0.0,0.0,-2.3107,-2.3107,-2.3107,-2.3107,-2.3107,-2.3107,-2.3008,-2.2816,-2.2816,-2.2712,-2.2528,-2.2515,-2.2515,-2.2515,-2.2501,-2.2501,-2.2501,-2.2515,-2.2248,-2.1842,-2.2041,-2.1998,-2.1827,-2.1827,-2.1827,-2.1796,-2.1796,-2.1812,-2.1812,-1.1489,-1.1489,-1.1489,-1.1489,-1.1489,-1.1274,-1.0604,-1.0502,0.0,0.0,0.0,0.0,0.0,0.0,0.0,0.0,0.0,0.0,0.0,0.0,0.0,0.0,0.0,0.0,0.0,0.0,0.0,0.0,0.0,0.0,0.0,0.0,0.0,0.0,-1.1559,-1.2505,-1.4332,-1.3831,0.0,0.0,-1.7013,-1.8156,0.0,0.0,0.0,0.0,0.0,-2.0825,0.0,0.0,-1.8647,-1.679,0.0,0.0,0.0,-1.2058,0.0,0.0,-1.3242,0.0,0.0,0.0,0.0,0.0,0.0,0.0,0.0,0.0,0.0,0.0,0.0,0.0,0.0,0.0,0.0,0.0,0.0,0.0,0.0,0.0,0.0,0.0,0.0,0.0,0.0,0.0,-2.3107,-2.3107,-2.3107,-2.3107,-2.3107,-2.3107,-2.3107,-2.3065,-2.3033,-2.302,-2.2995,-2.2932,-2.279,-2.2712,-2.2712,-2.2569,-2.2501,-2.2515,-2.2646,-2.2565,-2.2304,-2.2374,-2.236,-2.2304,-2.2304,-2.2186,-2.2027,-2.2027,-2.1926,-2.1812,-1.1489,-1.1489,-1.1489,-1.1489,-1.1489,-1.1373,-1.0973,0.0,0.0,0.0,0.0,0.0,0.0,0.0,0.0,0.0,0.0,0.0,0.0,0.0,0.0,0.0,0.0,0.0,0.0,0.0,0.0,0.0,0.0,0.0,0.0,0.0,0.0,0.0,0.0,-1.1017,-1.2578,0.0,0.0,0.0,-1.7412,0.0,0.0,-2.0644,-2.1269,0.0,0.0,0.0,-2.1166,-2.1166,-1.9724,0.0,0.0,0.0,-1.326,-1.2638,0.0,0.0,0.0,0.0,0.0,0.0,0.0,0.0,0.0,0.0,0.0,0.0,0.0,0.0,0.0,0.0,0.0,0.0,0.0,0.0,0.0,0.0,0.0,0.0,0.0,0.0,0.0,0.0,0.0,-2.2957,-2.304,-2.3107,-2.3107,-2.3107,-2.3107,-2.3107,-2.3107,-2.3107,-2.3107,-2.3107,-2.3107,-2.3107,-2.2982,-2.2932,-2.2932,-2.2803,-2.2751,-2.2764,-2.2863,-2.2868,-2.2751,-2.2751,-2.2588,-2.2329,-2.2231,-2.2101,-2.1969,-2.1969,-2.1913,-2.1812,0.0,-1.1478,-1.1489,-1.1489,-1.1489,-1.1489,-1.1489,0.0,0.0,0.0,0.0,0.0,0.0,0.0,0.0,0.0,0.0,0.0,0.0,0.0,0.0,0.0,0.0,-0.9561,0.0,0.0,0.0,0.0,0.0,0.0,0.0,0.0,0.0,0.0,-0.8395,-0.9312,-1.1147,-1.0791,0.0,-1.5717,-1.7942,-1.8953,0.0,0.0,-2.1538,0.0,-2.162,-2.1709,-2.1796,-2.1713,-2.0323,0.0,0.0,-1.5541,-1.5242,-1.3781,-1.4387,0.0,0.0,0.0,0.0,0.0,0.0,0.0,-1.674,-1.6702,0.0,0.0,0.0,0.0,0.0,0.0,0.0,0.0,0.0,0.0,0.0,0.0,0.0,0.0,0.0,0.0,0.0,-2.2329,-2.2538,-2.2751,-2.294,-2.3082,-2.3107,-2.3107,-2.3107,-2.3107,-2.3107,-2.3107,-2.3107,-2.3107,-2.3107,-2.3107,-2.3107,-2.3107,-2.3107,-2.3107,-2.3107,-2.3107,-2.3107,-2.3107,-2.3107,-2.3082,-2.273,-2.2153,-2.1986,-2.1869,-2.1825,-2.1825,-2.1811,-2.1812,-1.1192,-1.1353,-1.1489,-1.1489,-1.1489,-1.1489,0.0,0.0,0.0,0.0,0.0,0.0,0.0,0.0,0.0,0.0,0.0,0.0,0.0,0.0,0.0,0.0,-0.82,-0.8582,0.0,0.0,0.0,0.0,0.0,0.0,0.0,0.0,0.0,0.0,-0.8203,-0.8796,-0.9883,-1.144,0.0,-1.5057,-1.6116,0.0,-2.0093,-2.0544,-2.1151,-2.1753,-2.1753,-2.1783,-2.1713,0.0,-2.024,-1.9118,0.0,0.0,0.0,0.0,0.0,-1.6818,0.0,-1.6171,-1.6818,0.0,0.0,0.0,0.0,-1.5182,0.0,0.0,0.0,0.0,0.0,0.0,0.0,0.0,0.0,0.0,0.0,0.0,0.0,0.0,0.0,0.0,0.0,-2.2139,-2.2284,-2.2538,-2.2751,-2.2932,-2.3095,-2.3107,-2.3107,-2.3107,-2.3107,-2.3107,-2.3107,-2.3107,-2.3107,-2.3107,-2.3107,-2.3107,-2.3107,-2.3107,-2.3107,-2.3107,-2.3107,-2.3107,-2.3095,-2.2932,-2.2773,-2.2668,-2.2628,-2.2364,-2.2039,-2.2039,-2.194,-2.1812,-1.1062,-1.1215,-1.1342,-1.1478,-1.1489,-1.1489,0.0,0.0,0.0,0.0,0.0,0.0,0.0,0.0,0.0,0.0,0.0,0.0,0.0,0.0,0.0,0.0,-0.8167,-0.831,-0.898,0.0,0.0,0.0,0.0,0.0,0.0,0.0,0.0,0.0,0.0,0.0,0.0,0.0,-1.3024,-1.4877,-1.6772,0.0,-2.045,-2.0971,-2.1422,-2.1812,-2.1812,-2.1812,-2.1696,-2.095,-2.0207,0.0,0.0,-1.8004,-1.7789,0.0,-1.7155,-1.7756,0.0,0.0,-1.7321,-1.6586,0.0,0.0,0.0,0.0,0.0,0.0,0.0,0.0,0.0,0.0,0.0,0.0,0.0,0.0,0.0,0.0,0.0,0.0,0.0,0.0,0.0,-2.0965,-2.1183,-2.1481,-2.1606,-2.1927,-2.251,-2.2558,-2.2558,-2.2558,-2.2558,-2.2558,-2.2558,-2.2558,-2.2751,-2.3107,-2.3107,-2.3107,-2.3107,-2.3107,-2.3107,-2.3107,-2.3107,-2.3107,-2.3095,-2.2995,-2.2893,-2.279,-2.2685,-2.2511,-2.2298,-2.2298,-2.2141,-2.1955,-1.0956,-1.105,-1.1192,-1.1444,-1.1489,0.0,0.0,0.0,0.0,0.0,0.0,0.0,0.0,0.0,0.0,0.0,0.0,0.0,0.0,0.0,0.0,0.0,-0.8439,-0.8372,-0.8909,0.0,0.0,0.0,0.0,0.0,0.0,0.0,0.0,0.0,0.0,0.0,0.0,0.0,0.0,-1.5304,0.0,-1.9414,-2.0146,-2.1162,-2.1567,-2.1613,-2.1763,-2.1812,-2.1696,-2.095,0.0,-1.9664,-1.8787,-1.8704,0.0,0.0,0.0,0.0,0.0,0.0,0.0,0.0,0.0,-1.7249,0.0,0.0,0.0,-1.7711,0.0,0.0,0.0,0.0,0.0,0.0,0.0,0.0,0.0,0.0,0.0,0.0,0.0,0.0,0.0,-1.9683,-1.9912,-2.0402,-2.0316,-2.0668,-2.1715,-2.1762,-2.1762,-2.1762,-2.1762,-2.1762,-2.1762,-2.1762,-2.2066,-2.2651,-2.2809,-2.2879,-2.2896,-2.3037,-2.3107,-2.3107,-2.3107,-2.3107,-2.3107,-2.3107,-2.299,-2.2842,-2.2632,-2.2538,-2.2521,-2.2521,-2.2392,-2.2234,-1.0644,-1.0932,-1.1192,-1.1444,0.0,0.0,0.0,0.0,0.0,0.0,0.0,0.0,0.0,0.0,0.0,0.0,0.0,0.0,-1.2248,0.0,0.0,0.0,-0.8885,-0.8564,-0.8645,-0.8628,0.0,0.0,0.0,0.0,0.0,0.0,-0.8153,-0.9172,-0.9856,0.0,0.0,0.0,-1.4755,0.0,-1.7909,-1.8335,0.0,-2.008,-2.0718,-2.0901,-2.1564,-2.1812,-2.1696,0.0,-2.0635,-2.0323,0.0,-1.9396,0.0,0.0,0.0,0.0,0.0,0.0,0.0,0.0,-1.8862,0.0,0.0,0.0,-1.705,-1.5906,0.0,0.0,0.0,0.0,0.0,0.0,0.0,0.0,0.0,0.0,0.0,0.0,0.0,0.0,0.0,0.0,-1.9102,-2.0169,-1.9635,-1.9745,-2.0872,-2.0947,-2.0947,-2.0947,-2.0947,-2.0947,-2.0947,-2.0947,-2.0982,-2.1059,-2.1779,-2.213,-2.2148,-2.2791,-2.3107,-2.3107,-2.3107,-2.3107,-2.3107,-2.3107,-2.3095,-2.3057,-2.2838,-2.2686,-2.2582,-2.2582,-2.263,-2.2708,-1.0595,-1.0789,-1.0991,-1.1433,0.0,0.0,0.0,0.0,0.0,0.0,0.0,0.0,0.0,0.0,0.0,0.0,0.0,-1.383,0.0,0.0,0.0,0.0,-0.9909,-0.9177,-0.9177,0.0,0.0,0.0,-0.8201,0.0,0.0,0.0,-0.8911,-1.0246,-1.1091,0.0,-1.3972,0.0,0.0,0.0,0.0,0.0,0.0,-2.0329,-2.1288,-2.1381,-2.1696,-2.1812,-2.1696,0.0,-2.042,0.0,0.0,0.0,0.0,0.0,0.0,0.0,0.0,0.0,0.0,0.0,0.0,0.0,0.0,0.0,-1.7437,0.0,0.0,0.0,0.0,0.0,0.0,0.0,0.0,0.0,0.0,0.0,0.0,0.0,0.0,0.0,0.0,0.0,0.0,0.0,0.0,-1.8497,-2.0072,-2.0163,-2.0163,-2.0163,-2.0163,-2.0163,-2.0163,-2.0163,-2.0374,-2.0807,-2.1129,-2.1551,-2.2008,-2.2324,-2.2698,-2.3107,-2.3107,-2.3107,-2.3107,-2.3107,-2.3107,-2.3107,-2.3077,-2.2998,-2.2879,-2.2764,-2.2673,-2.2594,-1.0496,0.0,0.0,0.0,0.0,0.0,-1.1606,-1.2802,-1.3664,0.0,0.0,0.0,-1.6416,-1.5922,0.0,0.0,0.0,-1.5124,0.0,0.0,-1.2529,-1.2981,-1.1151,0.0,0.0,0.0,0.0,0.0,0.0,0.0,0.0,0.0,0.0,-1.0788,0.0,-1.3601,-1.5471,0.0,0.0,-1.7264,-1.7517,-1.7981,-1.8749,-2.0742,-2.163,-2.1812,-2.1812,-2.1812,-2.1696,-2.095,-2.034,0.0,-2.029,0.0,0.0,0.0,0.0,0.0,-1.7785,0.0,0.0,0.0,0.0,0.0,0.0,0.0,0.0,0.0,0.0,0.0,0.0,0.0,0.0,0.0,0.0,0.0,0.0,0.0,0.0,0.0,0.0,0.0,0.0,0.0,0.0,0.0,0.0,0.0,-1.9265,-1.9363,-1.9363,-1.9363,-1.9363,-1.9363,-1.9363,-1.9363,-1.9636,-2.0163,-2.0392,-2.0796,-2.1375,-2.1586,-2.1955,-2.247,-2.247,-2.2593,-2.2803,-2.281,-2.2957,-2.318,-2.3301,-2.3301,-2.3205,-2.3077,-2.2977,-2.2833,-1.026,-1.031,0.0,0.0,0.0,0.0,-1.1861,-1.2039,-1.2608,0.0,0.0,0.0,0.0,0.0,0.0,0.0,0.0,-1.723,-1.7294,0.0,-1.4449,0.0,0.0,-1.1479,0.0,0.0,-1.015,-0.9569,0.0,0.0,0.0,0.0,0.0,0.0,0.0,-1.3593,-1.4735,-1.6138,-1.8141,-2.0289,-1.9663,-2.0308,-2.1582,0.0,-2.1182,-2.1812,-2.1812,0.0,0.0,-2.095,-2.0685,0.0,0.0,0.0,0.0,0.0,0.0,0.0,0.0,0.0,0.0,-1.6989,0.0,0.0,0.0,0.0,-1.829,0.0,0.0,0.0,0.0,0.0,0.0,0.0,0.0,0.0,0.0,0.0,0.0,0.0,0.0,0.0,0.0,0.0,0.0,0.0,0.0,0.0,-1.845,-1.8547,-1.8547,-1.8547,-1.8547,-1.8547,-1.8547,-1.8547,-1.8547,-1.8583,-1.9363,-1.9749,-1.9802,-2.0515,-2.0848,-2.0866,-2.0866,-2.1323,-2.2037,-2.2117,-2.2593,-2.3301,-2.3448,-2.3494,-2.3505,-2.3623,-2.3714,-2.3742,0.0,0.0,0.0,0.0,0.0,0.0,-1.1876,-1.3038,0.0,0.0,0.0,0.0,0.0,0.0,-1.7954,0.0,0.0,-1.7923,-1.7978,-1.6511,0.0,0.0,0.0,-1.3406,0.0,0.0,-1.0842,-1.0194,0.0,0.0,0.0,0.0,0.0,0.0,0.0,-1.4136,0.0,0.0,0.0,0.0,0.0,-2.0461,-2.1779,0.0,0.0,-2.1812,-2.1812,-2.1812,0.0,-2.1514,-2.11,-2.0735,-2.0986,-2.0224,-1.9234,-1.9234,-1.8915,0.0,0.0,0.0,-1.92,-1.7536,0.0,0.0,0.0,0.0,0.0,0.0,0.0,0.0,0.0,0.0,0.0,0.0,0.0,0.0,0.0,0.0,0.0,0.0,0.0,0.0,0.0,0.0,0.0,0.0,0.0,0.0,0.0,-1.8435,-1.8495,-1.8495,-1.8495,-1.8495,-1.8495,-1.8495,-1.8495,-1.8495,-1.8776,-1.917,-1.9714,-1.997,-2.0339,-2.0807,-2.089,-2.1099,-2.1346,-2.1409,-2.1914,-2.2654,-2.2786,-2.3163,-2.3611,-2.3417,-2.3376,-2.3359,-0.9943,0.0,0.0,0.0,0.0,0.0,0.0,0.0,0.0,0.0,-1.653,0.0,-1.8129,0.0,-1.8448,0.0,-1.879,-1.8611,-1.8651,-1.7405,0.0,-1.7857,-1.6079,0.0,0.0,0.0,0.0,-1.1573,0.0,-1.049,0.0,0.0,0.0,0.0,0.0,0.0,0.0,0.0,-1.8963,0.0,0.0,-2.0953,0.0,0.0,-2.1812,-2.1812,0.0,-2.1812,-2.1812,-2.1812,-2.1481,-2.1166,-2.1647,-2.0638,-1.9316,-1.9548,-1.8952,-1.8137,-1.7635,-1.8336,0.0,-1.747,-1.817,0.0,-1.7437,0.0,0.0,0.0,0.0,0.0,0.0,0.0,0.0,0.0,0.0,0.0,0.0,0.0,0.0,0.0,0.0,0.0,0.0,0.0,-1.4569,-1.6454,0.0,0.0,0.0,0.0,-1.8435,-1.8495,-1.8495,-1.8495,-1.8495,-1.8495,-1.8495,-1.8495,-1.8495,-1.8776,-1.9268,-1.9298,-1.9583,-2.0033,-2.0162,-2.0372,-2.0631,-2.0705,-2.1389,-2.2393,-2.2527,-2.3047,-2.3714,-2.3491,-2.3411,-2.3388,0.0,0.0,0.0,0.0,-1.0382,0.0,0.0,0.0,-1.4848,0.0,-1.682,-1.7505,-1.8172,-1.8245,-1.8477,-1.9058,-1.9213,0.0,-1.9302,-1.8243,0.0,0.0,-1.7326,-1.666,-1.6799,0.0,0.0,0.0,0.0,0.0,0.0,0.0,0.0,0.0,-1.2831,0.0,-1.4831,-1.7757,-1.9652,-2.0752,-2.1497,-2.1812,-2.1812,-2.1812,0.0,-2.1812,-2.1812,-2.1812,-2.1781,-2.1763,-2.1779,-2.1796,-2.1698,-2.1216,-2.0503,-1.9763,-1.9518,-1.92,-1.7868,-1.7988,-1.8174,-1.679,0.0,0.0,0.0,0.0,-1.9392,0.0,0.0,0.0,0.0,0.0,0.0,0.0,0.0,0.0,0.0,0.0,0.0,0.0,0.0,0.0,0.0,0.0,-1.4096,-1.6359,-1.5886,0.0,0.0,0.0,-1.8245,-1.8485,-1.8495,-1.8495,-1.8495,-1.8495,-1.8495,-1.8495,-1.8495,-1.8495,-1.8495,-1.8574,-1.8612,-1.8622,-1.8742,-1.9189,-1.9859,-2.0,-2.0973,-2.2401,-2.2586,-2.3125,-2.3806,-2.3806,-2.3806,-2.3774,-1.0518,-1.086,-1.1161,0.0,-1.0908,-1.1177,0.0,0.0,0.0,0.0,-1.7363,-1.8187,-1.8796,-1.8869,-1.8927,-1.9087,-1.912,0.0,0.0,0.0,0.0,-1.9322,-1.8466,-1.8039,-1.8108,-1.589,0.0,-1.4244,0.0,0.0,-1.1556,0.0,0.0,0.0,0.0,0.0,-1.5443,-1.6857,-1.8727,-2.0752,-2.1497,-2.1812,0.0,0.0,-2.1812,-2.1812,-2.1812,-2.1812,-2.1729,-2.1166,-2.1348,-2.1599,-2.0508,-2.0028,-1.9747,-1.9002,-1.8435,-1.7955,-1.7602,-1.7988,-1.829,-1.7437,-1.7855,-1.8269,0.0,0.0,0.0,0.0,0.0,0.0,0.0,0.0,0.0,0.0,0.0,0.0,0.0,0.0,0.0,0.0,0.0,0.0,0.0,-1.3705,-1.4397,-1.5554,-1.555,0.0,0.0,0.0,0.0,-1.8477,-1.8495,-1.8495,-1.8495,-1.8495,-1.8495,-1.8495,-1.8545,-1.8545,-1.8522,-1.8668,-1.8678,-1.8604,-1.8789,-1.8986,-1.9174,-1.9308,-1.9957,-2.0924,-2.1549,-2.2618,-2.3806,-2.3806,-2.3806,-2.3795,-1.0744,0.0,0.0,-1.2612,0.0,0.0,-1.34,0.0,0.0,-1.6698,-1.7505,0.0,-1.8647,-1.8941,-1.9101,-1.9101,-1.9139,0.0,0.0,0.0,0.0,-1.952,-1.92,-1.9031,-1.9083,-1.696,0.0,-1.5019,0.0,0.0,-1.1597,0.0,0.0,0.0,0.0,-1.3439,0.0,-1.7248,-1.9094,-2.0752,-2.1497,0.0,0.0,-2.1812,-2.1812,-2.1812,-2.1812,-2.1812,-2.1696,-2.095,-2.0984,-2.1133,-1.9962,-1.9369,-1.9051,-1.8608,-1.8038,-1.7503,-1.7503,-1.7785,-1.8066,-1.802,-1.8535,-1.8934,-1.8626,-1.8839,-1.9148,0.0,0.0,0.0,0.0,0.0,0.0,0.0,0.0,0.0,0.0,0.0,0.0,0.0,0.0,0.0,0.0,-1.3781,-1.451,-1.5242,-1.5368,0.0,0.0,0.0,0.0,-1.8485,-1.8495,-1.8495,-1.8495,-1.8495,-1.8495,-1.8495,-1.8565,-1.8584,-1.8545,-1.8743,-1.8798,-1.8744,-1.8913,-1.8983,-1.8983,-1.907,-1.9775,-2.0934,-2.2075,-2.2835,-2.3361,-2.3668,-2.3806,-2.3806,0.0,0.0,0.0,0.0,0.0,0.0,0.0,-1.4863,0.0,-1.7041,0.0,-1.7937,-1.8281,-1.8796,-1.9101,-1.912,0.0,-1.9246,-1.9139,-1.9431,-1.9556,-1.9431,-1.9599,-1.9708,-1.9708,-1.8321,0.0,0.0,0.0,0.0,0.0,0.0,0.0,0.0,0.0,0.0,0.0,-1.8208,-2.0042,0.0,-2.1497,-2.1812,-2.1812,-2.1812,-2.1812,-2.1812,-2.1812,-2.1812,-2.168,-2.0851,-2.0619,-2.0536,-1.9614,-1.8952,-1.8476,-1.8389,-1.7955,-1.7503,-1.7498,-1.7498,-1.7659,-1.8381,-1.9077,-1.9577,-1.96,-1.9647,-1.971,-1.9833,-1.874,-1.8409,0.0,0.0,0.0,0.0,0.0,0.0,0.0,0.0,0.0,0.0,0.0,0.0,0.0,-1.4008,-1.4586,-1.511,0.0,0.0,0.0,0.0,0.0,-1.8317,-1.846,0.0,-1.8495,0.0,-1.8495,-1.8514,-1.8584,-1.8631,-1.8641,-1.8834,-1.8913,-1.8913,-1.9035,-1.9095,-1.9095,-1.9095,-2.0047,-2.164,-2.298,-2.3234,-2.2916,-2.356,-2.3806,-2.3806,0.0,0.0,0.0,0.0,0.0,-1.5525,-1.6422,-1.6488,-1.6694,-1.7444,-1.8286,-1.8871,-1.8941,-1.9043,-1.9139,-1.9265,-1.9302,0.0,0.0,0.0,0.0,-1.9574,-1.9636,-1.9708,-1.9708,-1.8321,-1.6977,0.0,-1.4278,-1.2937,0.0,0.0,0.0,0.0,0.0,0.0,-1.6051,-1.8557,0.0,-2.0752,-2.1497,-2.1812,-2.1812,-2.1812,-2.1812,-2.1812,-2.1812,-2.1812,-2.1582,-2.0243,-2.0207,-2.037,-1.8481,-1.8153,-1.8389,-1.7839,-1.7586,-1.7498,-1.7505,-1.7489,-1.7545,-1.7744,-1.8337,-1.8746,-1.8202,-1.855,-1.9,-1.9072,-1.887,-1.8778,-1.9146,0.0,0.0,0.0,0.0,0.0,0.0,0.0,0.0,0.0,0.0,0.0,0.0,0.0,0.0,0.0,0.0,0.0,0.0,0.0,0.0,0.0,0.0,0.0,0.0,0.0,-1.8534,-1.8593,-1.8705,-1.8769,-1.8779,-1.8958,-1.8991,-1.8913,-1.9035,-1.9095,-1.9095,-1.9095,-2.0047,-2.1532,-2.1803,-2.26,-2.3614,-2.3741,-2.3806,-2.3806,0.0,0.0,0.0,0.0,0.0,0.0,0.0,-1.7922,0.0,-1.791,-1.8153,-1.8413,-1.8662,-1.9005,-1.9246,-1.9339,-1.9358,-1.9376,-1.9395,-1.9538,-1.9593,-1.9593,-1.9654,0.0,-1.9708,-1.887,-1.7693,-1.6219,-1.5014,-1.3687,0.0,0.0,0.0,0.0,0.0,-1.4463,0.0,0.0,0.0,-2.0752,-2.1497,-2.1812,-2.1812,-2.1812,-2.1812,-2.1812,-2.1812,-2.1812,-2.1566,-2.0094,-1.9846,-1.9826,-1.8066,-1.7706,-1.7922,-1.7586,-1.7503,-1.7498,-1.751,-1.7493,-1.76,-1.8057,-1.8444,-1.8737,-1.8855,-1.8879,-1.8858,-1.8894,-1.8589,-1.8312,-1.8237,-1.8236,0.0,0.0,0.0,0.0,0.0,0.0,0.0,0.0,0.0,0.0,0.0,0.0,0.0,0.0,0.0,0.0,0.0,0.0,0.0,0.0,0.0,0.0,0.0,0.0,0.0,-1.8705,-1.8798,-1.8887,-1.8957,-1.9062,-1.9104,-1.9119,-1.9178,-1.9194,-1.9239,-1.9697,-2.0302,-2.1052,-2.1862,-2.2645,-2.3373,-2.3692,-2.3806,-2.3806,0.0,-1.6041,0.0,0.0,-1.7774,0.0,-1.8592,-1.8917,-1.8979,-1.8499,-1.8165,-1.8118,-1.8487,-1.9009,-1.9358,-1.9446,-1.9446,-1.9465,-1.9468,-1.956,-1.9629,-1.9629,-1.9672,-1.9708,-1.9708,-1.9446,-1.8491,0.0,0.0,0.0,0.0,0.0,-1.2209,-1.2457,0.0,0.0,0.0,0.0,-2.0257,-2.0984,-2.1564,-2.1812,-2.1812,-2.1812,-2.1812,-2.1812,-2.1812,-2.1812,-2.1613,-2.029,-1.973,-1.9383,-1.8104,-1.7619,-1.7503,-1.7503,-1.7503,-1.7548,-1.7705,-1.7766,-1.7907,-1.8574,-1.885,-1.9076,-1.9449,-1.9186,-1.886,-1.8691,-1.82,-1.78,-1.7788,-1.8233,0.0,0.0,0.0,0.0,0.0,0.0,0.0,0.0,0.0,0.0,0.0,0.0,0.0,0.0,0.0,0.0,0.0,0.0,0.0,0.0,0.0,-1.7781,-1.8356,0.0,-1.8806,0.0,-1.886,-1.8973,-1.9091,-1.9137,-1.9194,-1.9308,-1.9314,-1.9321,-1.9366,-2.0045,-2.0388,-2.0608,-2.1981,-2.2665,-2.293,-2.3575,-2.3806,-2.3806,0.0,0.0,0.0,0.0,0.0,0.0,0.0,-1.9064,-1.9254,-1.9196,-1.9144,-1.9181,-1.9288,-1.9347,-1.9446,-1.9574,-1.9574,-1.9611,-1.9672,-1.969,-1.969,-1.969,-1.9708,-1.9708,-1.9708,-1.9684,-1.8827,0.0,0.0,0.0,0.0,0.0,-1.3785,-1.4326,0.0,0.0,0.0,-1.9929,-2.1017,-2.1713,-2.1779,-2.1812,-2.1812,-2.1812,-2.1812,-2.1812,-2.1812,-2.1812,-2.168,-2.0941,-2.0202,-1.9452,-1.8671,-1.7988,-1.7503,-1.7503,-1.7503,-1.7671,-1.8379,-1.8583,-1.8624,-1.8829,-1.9376,-1.955,-1.8278,-1.8471,-1.8707,-1.8036,-1.785,-1.785,-1.8033,-1.7961,-1.7873,0.0,0.0,0.0,0.0,0.0,0.0,0.0,0.0,0.0,0.0,0.0,0.0,0.0,0.0,0.0,0.0,0.0,0.0,-1.6357,0.0,-1.7586,-1.7595,-1.8404,0.0,-1.8887,-1.8895,-1.8974,-1.9104,-1.9237,-1.9293,-1.929,-1.9361,-1.9387,-1.9398,-1.9418,-1.9821,-2.0493,-2.1307,-2.2076,-2.2819,-2.3534,-2.3806,-2.3806,0.0,0.0,0.0,0.0,0.0,0.0,0.0,-1.9339,-1.9395,-1.9483,-1.9376,-1.9339,-1.9395,-1.9483,-1.9556,-1.965,-1.9669,-1.9672,-1.9708,-1.9708,-1.9708,-1.9708,-1.9708,-1.9782,-1.9997,-2.0239,-1.9821,0.0,0.0,0.0,0.0,0.0,0.0,0.0,0.0,-1.8328,-1.9234,-2.0257,-2.1133,-2.1812,-2.1812,-2.1812,-2.1812,-2.1812,-2.1812,-2.1812,-2.1812,-2.1812,-2.1763,-2.1479,-2.0898,-2.0155,-1.9534,-1.9101,-1.8743,-1.8343,-1.8222,-1.83,-1.8662,-1.8725,-1.872,-1.881,-1.9058,-1.9056,-1.8182,-1.8219,-1.8389,-1.8253,-1.8082,-1.7975,-1.7932,-1.7954,-1.7969,0.0,0.0,0.0,0.0,0.0,0.0,0.0,0.0,0.0,0.0,0.0,0.0,0.0,0.0,-1.3647,-1.407,0.0,0.0,-1.5622,0.0,-1.7688,-1.7628,-1.8519,-1.9018,-1.9144,-1.9144,-1.924,-1.9409,-1.9368,-1.9391,-1.9475,-1.9416,-1.9402,-1.9402,-1.9376,-1.9785,-2.049,-2.0742,-2.168,-2.2894,-2.307,-2.3478,-2.3917,-1.7297,0.0,-1.7646,0.0,-1.8626,-1.8798,-1.9523,-1.9538,-1.9501,-1.9593,-1.9483,-1.9413,-1.9487,-1.956,-1.965,-1.9708,-1.9708,-1.9708,-1.9708,-1.9708,-1.9708,-1.9708,-1.9708,0.0,-2.005,-2.0342,-2.0201,-1.9594,-1.8666,0.0,0.0,-1.6349,0.0,0.0,-1.8696,-1.9432,-2.0063,-2.0775,-2.1387,-2.1855,-2.1855,-2.1855,-2.1855,-2.1855,-2.1855,-2.1855,-2.184,-2.184,-2.1855,-2.1855,-2.152,-2.0971,-2.0341,-1.9927,-1.9617,-1.9131,-1.8851,-1.8775,-1.9064,-1.8963,-1.8824,-1.9176,-1.9099,-1.8847,-1.8609,-1.8308,-1.818,-1.8428,-1.829,-1.8107,-1.81,-1.8166,-1.8211,-1.8211,0.0,0.0,0.0,0.0,0.0,0.0,0.0,-1.8782,0.0,0.0,0.0,0.0,0.0,-1.4445,-1.4762,0.0,0.0,0.0,0.0,0.0,0.0,-1.8719,-1.9232,-1.9337,-1.9337,-1.9409,-1.9541,-1.9474,-1.9513,-1.9608,-1.9541,-1.9506,-1.9452,-1.9481,-1.9797,-2.0275,-2.0409,-2.1387,-2.2707,-2.2465,-2.3094,-2.4049,-1.8765,-1.8874,-1.9043,-1.9584,-1.969,-1.969,-1.9708,-1.9632,-1.9593,-1.9593,-1.9593,-1.9629,-1.969,-1.9708,-1.9708,-1.9708,-1.9708,-1.9708,-1.9708,-1.9708,-1.9708,0.0,0.0,-1.9708,-1.9708,-1.9708,-1.9504,-1.911,0.0,0.0,-1.7686,-1.8075,-1.8664,-1.9416,-2.0483,-2.096,-2.1041,-2.1697,-2.1982,-2.2013,-2.2013,-2.2013,-2.2013,-2.2013,-2.2013,-2.1998,-2.1926,-2.194,-2.2013,-2.2013,-2.1982,-2.1833,-2.0957,-2.0229,-1.9704,-1.9687,-1.9219,-1.8888,-1.9753,-1.9399,-1.9056,-2.0118,-1.9786,-1.9262,-1.9514,-1.8805,-1.818,-1.8428,-1.829,-1.8242,-1.8696,-1.8638,-1.8495,-1.8495,0.0,0.0,0.0,0.0,0.0,0.0,-1.7762,-1.7501,-1.8671,0.0,0.0,0.0,0.0,0.0,0.0,0.0,0.0,-1.7725,-1.7985,0.0,-1.8003,-1.8926,-1.9402,-1.9402,-1.9402,-1.9402,-1.9409,-1.9541,-1.9608,-1.9614,-1.9738,-1.9719,-1.9596,-1.9675,-1.9707,-1.9782,-2.0367,-2.122,-2.2066,-2.1749,-2.2749,-2.4155,-1.808,-1.8291,-1.8563,-1.8846,-1.9105,-1.938,-1.9672,-1.9672,-1.9672,-1.9672,-1.9672,-1.9687,-1.9708,-1.9708,-1.9708,0.0,-1.9708,-1.9708,0.0,-1.9708,-1.9708,-1.9708,-1.9708,-1.9942,-2.0444,-2.0444,-2.0636,-2.1011,0.0,0.0,0.0,-1.9722,-2.0284,-2.1183,-2.1611,-2.1756,-2.1711,-2.1898,-2.2013,-2.2013,-2.2013,-2.2013,-2.2013,-2.2013,-2.2013,-2.1998,-2.1984,-2.1984,-2.2013,-2.2013,-2.2013,-2.1948,-2.1671,-2.1499,-2.129,-2.0753,-2.0501,-2.0462,-2.0741,-2.0238,-1.9828,-2.0718,-1.9965,-1.9052,-1.929,-1.8933,-1.8593,-1.8695,-1.8639,-1.8574,-1.8582,-1.8657,-1.8873,-1.9435,-1.9228,0.0,0.0,0.0,0.0,0.0,0.0,-1.9192,0.0,-1.8824,0.0,0.0,0.0,0.0,0.0,0.0,0.0,0.0,-1.8316,0.0,-1.8139,-1.8974,-1.9445,-1.9541,-1.9541,-1.9576,-1.9668,-1.9719,-1.9763,-1.9794,-1.9757,-1.9726,-1.9732,-1.9669,-1.9974,-2.0535,-2.0735,-2.1696,-2.2978,-2.2871,-2.358,-2.4534,-1.8068,-1.8206,-1.8442,-1.8688,-1.8917,-1.925,-1.9654,-1.9708,-1.9708,-1.9708,-1.9708,-1.9708,-1.9708,-1.9708,0.0,-1.9708,-1.9708,-1.9708,-1.9708,-1.9708,-1.9708,-1.9708,-1.9839,-2.0137,-2.0579,0.0,0.0,-2.1478,-2.0976,-2.0822,-2.1011,-2.11,-2.1494,-2.2118,-2.2194,-2.2194,-2.2118,-2.2118,-2.2118,-2.2118,-2.2118,-2.2118,-2.2118,-2.2118,-2.2118,-2.2118,-2.2089,-2.2089,-2.2118,-2.2089,-2.2089,-2.2118,-2.2089,-2.2152,-2.2141,-2.1608,-2.1326,-2.119,-2.119,-2.0619,-2.0226,-2.1118,-2.048,-1.9596,-1.9523,-1.9139,-1.8797,-1.8797,-1.8797,-1.8779,-1.8733,-1.9066,-1.9524,-2.0027,-1.9804,-1.9721,-2.0228,0.0,0.0,0.0,0.0,0.0,0.0,-2.0101,0.0,0.0,0.0,0.0,0.0,0.0,0.0,-1.7849,-1.8853,0.0,-1.8728,-1.9274,-1.9582,-1.9686,-1.97,-1.9763,-1.9844,-2.0175,-2.015,-1.9892,-2.0156,-2.0088,-1.9818,-2.0126,-2.0565,-2.1073,-2.1355,-2.2336,-2.3534,-2.3117,-2.3711,-2.4715,-1.863,-1.8558,0.0,0.0,-1.912,0.0,-1.9654,-1.9708,-1.9708,-1.9708,-1.9708,-1.9708,-1.9708,-1.9708,-1.9708,-1.9708,0.0,0.0,0.0,-1.9711,-1.9729,-1.9729,-2.0106,-2.0313,-2.0277,-2.0697,-2.0909,-2.0876,-2.1261,-2.1661,-2.2013,-2.2137,-2.2242,-2.2296,-2.2296,-2.2296,-2.2296,-2.2296,-2.2296,-2.2296,-2.2296,-2.2296,-2.2296,-2.2296,-2.2296,-2.2282,-2.2242,-2.2257,-2.2282,-2.2242,-2.224,-2.2282,-2.2228,-2.224,-2.2282,-2.2228,-2.1765,-2.1275,-2.1275,-2.0699,-2.0369,-2.1415,-2.1272,-2.0749,-2.0206,-1.9467,-1.8895,-1.8976,-1.894,-1.8986,-1.9224,-1.9892,-2.0373,-2.0373,-2.0336,-2.03,-2.03,0.0,0.0,0.0,0.0,0.0,0.0,-2.0987,-2.1487,0.0,0.0,0.0,0.0,0.0,-1.8577,-1.939,-1.952,-1.9594,-1.9608,-1.9725,-1.9814,-1.9889,-2.0012,-2.0047,-2.0015,-2.0897,-2.0761,-1.988,-2.0791,-2.0685,-1.991,-2.091,-2.1344,-2.1453,-2.2201,-2.3103,-2.3852,-2.2804,-2.3472,-2.4807,0.0,0.0,-1.9347,-1.9139,-1.9347,-1.9599,-1.969,-1.9708,-1.9708,-1.9708,-1.9708,-1.9708,-1.9708,-1.9708,-1.9708,-1.9708,-1.9708,-1.9708,-1.9708,-1.9945,-2.0085,-2.0085,-2.0462,-2.0795,-2.1039,-2.1151,-2.1355,-2.1645,-2.1888,-2.2051,-2.2152,-2.22,-2.2242,-2.2296,-2.2296,-2.2296,-2.2296,-2.2296,-2.2296,-2.2296,-2.2296,-2.2296,-2.2296,-2.2296,-2.2296,-2.2296,-2.2282,-2.2282,-2.2296,-2.2282,-2.2282,-2.2296,-2.2282,-2.2282,-2.2282,-2.2228,-2.2122,-2.204,-2.204,-2.1638,-2.1407,-2.2233,-2.2044,-2.1489,-2.0963,-2.0263,-1.9926,-2.0696,-2.0372,-2.0147,-2.0807,-2.1079,-2.1215,-2.1216,-2.0699,-2.03,-2.03,-1.9612,0.0,0.0,-2.0814,-2.1368,-2.1508,-2.2246,-2.1968,0.0,0.0,0.0,0.0,-1.8971,-1.9221,-1.9548,-1.9431,-1.9439,-1.9608,-1.9635,-2.0038,-2.0797,-2.1482,-2.15,-2.0922,-2.1792,-2.1368,-1.9993,-2.0893,-2.0795,-2.0106,-2.1009,-2.1745,-2.2369,-2.3217,-2.4112,-2.4855,-2.4598,-2.4764,-2.51,-1.8879,-1.9011,-1.9143,-1.9101,-1.9288,-1.949,-1.9672,-1.9708,-1.9708,-1.9708,-1.9708,-1.9708,-1.9744,-1.9744,-1.9762,-1.983,-1.978,-1.9744,-1.9744,-1.996,-2.0172,-2.0328,-2.0714,-2.1087,-2.1386,-2.1603,-2.1783,-2.194,-2.2123,-2.22,-2.22,-2.2242,-2.2285,-2.2296,-2.2296,-2.2296,-2.2296,-2.2296,-2.2296,-2.2296,-2.2296,-2.2296,-2.2296,-2.2296,-2.2296,-2.2296,-2.2296,-2.2296,-2.2324,-2.2432,-2.2487,-2.2487,-2.2487,-2.2565,-2.2602,-2.2338,-2.2366,-2.2515,-2.2628,-2.2474,-2.2412,-2.2947,-2.2576,-2.2052,-2.187,-2.1245,-2.0841,-2.1424,-2.1179,-2.0989,-2.1425,-2.1796,-2.193,-2.156,-2.118,-2.0814,-2.0431,-1.9772,0.0,-2.0558,-2.1299,-2.1944,-2.2454,-2.2839,-2.2368,-2.0738,0.0,0.0,-1.9058,-1.936,-1.9621,-1.9699,-1.9592,-1.962,-1.9776,-2.0145,-2.0803,-2.1745,-2.2242,-2.2254,-2.1852,-2.2336,-2.185,-2.0675,-2.1133,-2.0876,-2.0208,-2.144,-2.2204,-2.2734,-2.3995,-2.4784,-2.5191,-2.5191,-2.5191,-2.5191,-1.8674,-1.8674,-1.8803,-1.9124,-1.9195,-1.9306,-1.9654,-1.9708,-1.9708,-1.9708,-1.9708,-1.9744,-1.978,-1.9815,-1.9884,-1.9988,-1.9902,-1.9869,-1.9889,-2.0063,-2.0291,-2.0648,-2.1023,-2.1353,-2.1584,-2.1993,-2.2137,-2.2027,-2.2152,-2.2228,-2.2228,-2.2268,-2.2296,-2.2296,-2.2296,-2.2296,-2.2296,-2.2296,-2.2296,-2.2296,-2.2296,-2.2296,-2.2296,-2.2296,-2.2296,-2.2296,-2.2296,-2.2296,-2.2338,-2.2552,-2.2632,-2.2632,-2.2632,-2.2799,-2.291,-2.2525,-2.2579,-2.2799,-2.2985,-2.3109,-2.3212,-2.3474,-2.2947,-2.2453,-2.2793,-2.2152,-2.1598,-2.1908,-2.1826,-2.1743,-2.188,-2.2479,-2.2641,-2.1659,-2.1651,-2.1428,-2.0447,0.0,-1.9911,-2.0783,-2.1369,-2.2014,-2.2899,-2.2846,-2.2467,-2.1787,-2.1178,-2.0521,0.0,-1.9794,-1.9781,-1.9813,-1.9782,-1.9888,-2.0161,-2.0948,-2.1806,-2.2708,-2.2895,-2.2842,-2.2606,-2.2732,-2.2204,-2.1216,-2.1349,-2.0981,-2.0423,-2.1976,-2.2703,-2.2955,-2.4588,-2.522,-2.5203,-2.5203,-2.5203,-2.5208,-1.9512,-1.9512,-1.953,-1.9599,-1.9617,-1.9636,-1.969,-1.9708,-1.9708,-1.9708,-1.9744,-1.978,-1.9797,-1.9902,-1.9988,-2.0005,-2.0028,-2.0152,-2.0379,-2.0681,-2.0991,-2.1323,-2.1688,-2.188,-2.1926,-2.2092,-2.22,-2.2168,-2.2254,-2.2282,-2.2282,-2.2296,-2.2296,-2.2296,-2.2296,-2.2296,-2.2296,-2.2296,-2.2296,-2.2296,-2.2296,-2.2296,-2.2296,-2.2296,-2.2296,-2.2296,-2.2296,-2.2296,-2.231,-2.2352,-2.2366,-2.2366,-2.2366,-2.2391,-2.2497,-2.2871,-2.301,-2.2998,-2.2812,-2.3084,-2.3486,-2.37,-2.32,-2.2841,-2.3549,-2.257,-2.1907,-2.333,-2.3084,-2.282,-2.3552,-2.3896,-2.3511,-2.1844,-2.1847,-2.144,-1.9726,0.0,-1.9904,-2.0723,-2.1005,-2.1473,-2.234,-2.191,-2.1511,-2.1396,-2.0577,-1.9994,-1.9803,-1.9744,-1.9775,-1.9879,-1.9713,-2.002,-2.0841,-2.1702,-2.2615,-2.3604,-2.4359,-2.397,-2.2628,-2.3359,-2.2462,-2.0341,-2.1077,-2.133,-2.1283,-2.2333,-2.3146,-2.379,-2.487,-2.5245,-2.5201,-2.5201,-2.5201,-2.5201,-1.9815,-1.983,-1.9815,-1.9866,-1.983,-1.9815,-1.9866,-1.9866,-1.9866,-1.9866,-1.9884,-1.9919,-1.9957,-2.001,-2.015,-2.0424,-2.046,-2.068,-2.1166,-2.1007,-2.1119,-2.1646,-2.1811,-2.1972,-2.2147,-2.2209,-2.2254,-2.2254,-2.2282,-2.2296,-2.2296,-2.2296,-2.2296,-2.2296,-2.2296,-2.2296,-2.2296,-2.2296,-2.2296,-2.2296,-2.2296,-2.2296,-2.2296,-2.2296,-2.2296,-2.2296,-2.2296,-2.2296,-2.2352,-2.2628,-2.2734,-2.276,-2.2897,-2.3017,-2.311,-2.3092,-2.3271,-2.345,-2.3376,-2.3524,-2.375,-2.3876,-2.3333,-2.287,-2.3275,-2.2792,-2.2511,-2.3391,-2.3593,-2.3759,-2.4282,-2.4391,-2.3966,-2.2628,-2.2308,0.0,0.0,-1.9982,-2.0187,-2.102,-2.1085,-2.14,-2.2269,-2.157,-2.1115,-2.1191,-2.0397,-1.9928,-1.9965,-1.9939,-1.9944,-2.002,-1.9928,-2.031,-2.1214,-2.1612,-2.2274,-2.316,-2.3555,-2.3356,-2.2601,-2.2573,-2.1909,-2.0805,-2.0819,-2.0806,-2.0915,-2.2284,-2.3045,-2.3492,-2.4822,-2.5307,-2.524,-2.524,-2.5225,-2.5212,-1.9937,-1.9955,-1.9937,-1.9988,-1.9955,-1.9937,-1.9988,-2.0005,-2.0005,-2.0005,-2.0078,-2.015,-2.0204,-2.0309,-2.0513,-2.0877,-2.0909,-2.1166,-2.1751,-2.1324,-2.1293,-2.1886,-2.1915,-2.2034,-2.2296,-2.2296,-2.2296,-2.2296,-2.2296,-2.2296,-2.2296,-2.2296,-2.2296,-2.2296,-2.2296,-2.2296,-2.2296,-2.2296,-2.2296,-2.2296,-2.2296,-2.2338,-2.2391,-2.2391,-2.2432,-2.2484,-2.2484,-2.2484,-2.2552,-2.2973,-2.3091,-2.3128,-2.3342,-2.3506,-2.3577,-2.3311,-2.3522,-2.3837,-2.3827,-2.3886,-2.3945,-2.3986,-2.3239,-2.2601,-2.2877,-2.2795,-2.2784,-2.3161,-2.3855,-2.4449,-2.4591,-2.4572,-2.4246,-2.3322,0.0,0.0,0.0,-2.092,-2.0852,-2.1295,-2.1241,-2.135,-2.1776,-2.1161,-2.0758,-2.0852,-2.0305,-1.9986,-2.0088,-2.0093,-2.0093,-2.0093,-2.0093,-2.0518,-2.1388,-2.1407,-2.1803,-2.2601,-2.263,-2.2526,-2.2316,-2.1708,-2.1329,-2.1105,-2.0557,-2.0414,-2.073,-2.2277,-2.3032,-2.3343,-2.4843,-2.5383,-2.5322,-2.5301,-2.5265,-2.5233,-1.9988,-2.0005,-1.9988,-2.0005,-2.0005,-1.9988,-2.0005,-2.0005,-2.0005,-2.0005,-2.0325,-2.0563,-2.0563,-2.0942,-2.1229,-2.1261,-2.1261,-2.1416,-2.1766,-2.1751,-2.1886,-2.2254,-2.2268,-2.2268,-2.2296,-2.2296,-2.2296,-2.2296,-2.2296,-2.2296,-2.2296,-2.2296,-2.2296,-2.2296,-2.2296,-2.2296,-2.2296,-2.2296,-2.2296,-2.2296,-2.2296,-2.2446,-2.2672,-2.2672,-2.2825,-2.3047,-2.3047,-2.3047,-2.306,-2.3096,-2.3091,-2.3103,-2.3123,-2.3129,-2.32,-2.3488,-2.3756,-2.3927,-2.3692,-2.3806,-2.3996,-2.3996,-2.2829,-2.1926,-2.2874,-2.2516,-2.2235,-2.3188,-2.4076,-2.4684,-2.47,-2.47,-2.4403,-2.3517,0.0,0.0,-2.2414,-2.2355,-2.213,-2.1309,-2.1303,-2.1046,-2.0164,-2.0129,-2.0165,-2.0174,-2.0117,-2.0084,-2.0093,-2.0093,-2.0093,-2.0093,-2.0093,-2.0518,-2.1388,-2.1407,-2.1803,-2.2601,-2.267,-2.2302,-2.1585,-2.1513,-2.1083,-2.0377,-2.0324,-2.0767,-2.1581,-2.2581,-2.3429,-2.4203,-2.512,-2.5457,-2.5394,-2.5327,-2.5308,-2.5284,-2.0183,-2.0183,-2.0183,-2.0183,-2.0183,-2.0252,-2.046,-2.0494,-2.0578,-2.0779,-2.0926,-2.1023,-2.1023,-2.1182,-2.1385,-2.1584,-2.1616,-2.1751,-2.2094,-2.2123,-2.2166,-2.2296,-2.2296,-2.2296,-2.2296,-2.2296,-2.2296,-2.2296,-2.246,-2.2555,-2.2555,-2.2555,-2.2646,-2.2782,-2.2619,-2.2646,-2.2812,-2.2812,-2.2812,-2.2812,-2.2812,-2.2859,-2.2947,-2.2947,-2.301,-2.3091,-2.3091,-2.3091,-2.3133,-2.3289,-2.3353,-2.3375,-2.3533,-2.361,-2.3692,-2.3865,-2.4006,-2.4094,-2.3996,-2.4016,-2.4074,-2.4103,-2.2905,-2.1814,-2.2205,-2.1641,-2.1203,-2.1793,-2.2994,-2.4011,-2.4176,-2.4201,-2.4062,-2.3654,0.0,-2.2673,-2.1719,-2.1757,-2.1521,-2.0617,-2.0551,-2.0446,-2.0054,-2.0069,-2.0093,-2.0093,-2.0093,-2.0125,-2.016,-2.0207,-2.022,-2.022,-2.022,-2.0335,-2.0595,-2.0629,-2.0817,-2.1101,-2.1178,-2.1052,-2.0769,-2.0807,-2.0654,-2.0351,-2.0411,-2.0912,-2.1787,-2.2692,-2.3556,-2.4415,-2.5232,-2.5521,-2.5453,-2.5394,-2.534,-2.5308,-2.0304,-2.0304,-2.0304,-2.0304,-2.0304,-2.039,-2.0611,-2.0728,-2.0877,-2.1103,-2.1323,-2.1462,-2.1462,-2.1539,-2.1706,-2.1947,-2.1961,-2.2063,-2.2307,-2.2338,-2.2324,-2.2296,-2.2296,-2.2296,-2.2296,-2.2377,-2.2419,-2.2419,-2.2681,-2.2825,-2.2825,-2.2825,-2.291,-2.3079,-2.2897,-2.2922,-2.3091,-2.3091,-2.3091,-2.3091,-2.3091,-2.314,-2.323,-2.323,-2.3271,-2.3353,-2.3353,-2.3365,-2.3411,-2.3598,-2.3657,-2.3692,-2.3896,-2.4006,-2.4074,-2.4113,-2.4161,-2.419,-2.419,-2.42,-2.4191,-2.4199,-2.2987,-2.182,-2.1884,-2.125,-2.0737,-2.1067,-2.2231,-2.3266,-2.3471,-2.346,-2.34,-2.3359,-2.2894,-2.2309,-2.165,-2.1689,-2.1469,-2.0642,-2.0541,-2.0444,-2.0197,-2.0156,-2.0164,-2.0164,-2.0164,-2.0177,-2.0227,-2.0288,-2.0297,-2.0297,-2.0297,-2.0263,-2.0164,-2.0218,-2.023,-2.023,-2.0296,-2.0332,-2.0369,-2.0402,-2.0435,-2.0471,-2.0501,-2.0863,-2.1508,-2.2638,-2.3443,-2.4103,-2.5186,-2.5563,-2.5524,-2.5457,-2.5395,-2.5361,-2.0304,-2.0304,-2.0304,-2.0304,-2.0304,-2.0304,-2.0304,-2.0595,-2.0811,-2.0811,-2.1386,-2.1812,-2.1812,-2.2092,-2.2296,-2.2296,-2.231,-2.2338,-2.2391,-2.2422,-2.2363,-2.231,-2.231,-2.231,-2.231,-2.2582,-2.2699,-2.2699,-2.2973,-2.3091,-2.3091,-2.3091,-2.3121,-2.3103,-2.3091,-2.3121,-2.3103,-2.3103,-2.3103,-2.3103,-2.3103,-2.3265,-2.3504,-2.3504,-2.3664,-2.3907,-2.3907,-2.3937,-2.3996,-2.3996,-2.3996,-2.4006,-2.4084,-2.4151,-2.419,-2.419,-2.4199,-2.4199,-2.4199,-2.4312,-2.4373,-2.4247,-2.3006,-2.1869,-2.2066,-2.1528,-2.1073,-2.1323,-2.2032,-2.2581,-2.2581,-2.2471,-2.2443,-2.256,-2.249,-2.2449,-2.2566,-2.2581,-2.2325,-2.1577,-2.1481,-2.1182,-2.0373,-2.0296,-2.0297,-2.0297,-2.0297,-2.0297,-2.0297,-2.0297,-2.0297,-2.0297,-2.0297,-2.0297,-2.0297,-2.0297,-2.0297,-2.0297,-2.0373,-2.0446,-2.0505,-2.0495,-2.0535,-2.0594,-2.0594,-2.0594,-2.075,-2.2408,-2.3091,-2.3285,-2.4934,-2.5582,-2.5595,-2.5524,-2.5501,-2.5501,-2.0746,-2.078,-2.0877,-2.1087,-2.115,-2.1213,-2.1461,-2.1583,-2.1735,-2.1957,-2.2175,-2.229,-2.229,-2.2374,-2.2432,-2.2432,-2.2602,-2.273,-2.2743,-2.2875,-2.2798,-2.246,-2.2527,-2.2691,-2.2933,-2.3007,-2.3056,-2.3056,-2.3318,-2.3461,-2.3461,-2.3461,-2.3551,-2.371,-2.3529,-2.3551,-2.3721,-2.3721,-2.3721,-2.3721,-2.3721,-2.3782,-2.3863,-2.3863,-2.3904,-2.3976,-2.3976,-2.3986,-2.3996,-2.3996,-2.4026,-2.4084,-2.4151,-2.418,-2.4218,-2.4311,-2.4374,-2.4426,-2.4526,-2.4604,-2.4639,-2.4399,-2.3661,-2.2854,-2.2288,-2.156,-2.0879,-2.0432,-2.1021,-2.1643,-2.1746,-2.1731,-2.1726,-2.1804,-2.1799,-2.1584,-2.1054,-2.1462,-2.1548,-2.0756,-2.0656,-2.0553,-2.0319,-2.0311,-2.0297,-2.0297,-2.04,-2.0441,-2.0441,-2.0474,-2.051,-2.051,-2.051,-2.051,-2.051,-2.046,-2.0441,-2.0443,-2.0519,-2.0556,-2.0563,-2.0565,-2.0589,-2.0594,-2.0594,-2.0944,-2.1548,-2.2056,-2.2954,-2.4064,-2.4511,-2.5065,-2.5588,-2.5513,-2.551,-2.5496,-2.0763,-2.0812,-2.091,-2.1245,-2.1307,-2.1415,-2.1748,-2.1909,-2.207,-2.2287,-2.2415,-2.2501,-2.2501,-2.2501,-2.2501,-2.2501,-2.2773,-2.2935,-2.2935,-2.3129,-2.3171,-2.303,-2.3063,-2.3081,-2.3075,-2.3265,-2.3357,-2.3357,-2.3639,-2.3764,-2.3764,-2.3764,-2.3837,-2.3996,-2.3827,-2.3855,-2.3996,-2.3996,-2.3996,-2.3996,-2.3996,-2.3996,-2.3996,-2.3996,-2.4016,-2.4036,-2.4036,-2.4064,-2.4084,-2.4084,-2.4103,-2.4151,-2.418,-2.4247,-2.4303,-2.4408,-2.451,-2.4607,-2.4704,-2.4818,-2.4828,-2.4689,-2.405,-2.3291,-2.2507,-2.1702,-2.0905,-2.0167,-2.044,-2.0842,-2.0945,-2.0962,-2.0979,-2.1028,-2.1036,-2.0858,-2.037,-2.0717,-2.0972,-2.0864,-2.0565,-2.0519,-2.0865,-2.0601,-2.043,-2.043,-2.0495,-2.0684,-2.1035,-2.1092,-2.1257,-2.1589,-2.1276,-2.11,-2.11,-2.0734,-2.0549,-2.0549,-2.0587,-2.0594,-2.0594,-2.0594,-2.0594,-2.0596,-2.0596,-2.0908,-2.1416,-2.1734,-2.2651,-2.3916,-2.4194,-2.4856,-2.5632,-2.5554,-2.5531,-2.5547,-2.0646,-2.0663,-2.0763,-2.1086,-2.115,-2.1244,-2.1553,-2.1868,-2.207,-2.207,-2.2329,-2.2528,-2.2528,-2.2528,-2.2542,-2.2555,-2.2863,-2.3065,-2.3065,-2.3277,-2.35,-2.3746,-2.3746,-2.3506,-2.2993,-2.341,-2.366,-2.366,-2.3896,-2.4016,-2.4016,-2.4016,-2.4016,-2.4016,-2.4016,-2.4016,-2.4016,-2.4016,-2.4016,-2.4016,-2.4016,-2.4016,-2.4016,-2.4016,-2.4064,-2.4103,-2.4103,-2.4151,-2.419,-2.4199,-2.4199,-2.4199,-2.4228,-2.4302,-2.4424,-2.4518,-2.462,-2.4749,-2.4825,-2.4935,-2.5025,-2.5025,-2.4335,-2.3468,-2.268,-2.197,-2.1201,-2.038,-2.021,-2.0223,-2.0297,-2.0308,-2.0312,-2.0311,-2.0299,-2.0302,-2.0327,-2.0327,-2.0636,-2.1496,-2.1027,-2.0929,-2.171,-2.1213,-2.0828,-2.0828,-2.0828,-2.1178,-2.1958,-2.1939,-2.2232,-2.2975,-2.2195,-2.1784,-2.1784,-2.0987,-2.0597,-2.0594,-2.0594,-2.0595,-2.0596,-2.0596,-2.0599,-2.0583,-2.0583,-2.0583,-2.0643,-2.1386,-2.2246,-2.3164,-2.3892,-2.4807,-2.5677,-2.5619,-2.5609,-2.5591,-2.179,-2.1832,-2.195,-2.2268,-2.2323,-2.2368,-2.2422,-2.2508,-2.2548,-2.2548,-2.2619,-2.2659,-2.2659,-2.2659,-2.2738,-2.2957,-2.3365,-2.3635,-2.3635,-2.3865,-2.3847,-2.3511,-2.3886,-2.3945,-2.3606,-2.3907,-2.4074,-2.4074,-2.4141,-2.4161,-2.4161,-2.4161,-2.4161,-2.4161,-2.4161,-2.4161,-2.4161,-2.4161,-2.4161,-2.4161,-2.4161,-2.4161,-2.4161,-2.4161,-2.417,-2.418,-2.418,-2.418,-2.4199,-2.4191,-2.421,-2.422,-2.4399,-2.4447,-2.453,-2.4814,-2.491,-2.4962,-2.5145,-2.5201,-2.5233,-2.5233,-2.5111,-2.4576,-2.3016,-2.2551,-2.2055,-2.0573,-2.0279,-2.0304,-2.0372,-2.0374,-2.0382,-2.0388,-2.0371,-2.0405,-2.0457,-2.0462,-2.0552,-2.0814,-2.1286,-2.1659,-2.1799,-2.2251,-2.2564,-2.2564,-2.2564,-2.2642,-2.2838,-2.2232,-2.198,-2.2158,-2.1288,-2.0839,-2.0873,-2.0642,-2.0545,-2.0594,-2.0597,-2.0563,-2.0527,-2.0527,-2.0524,-2.0513,-2.0513,-2.0513,-2.0532,-2.0704,-2.1661,-2.305,-2.321,-2.424,-2.5627,-2.5614,-2.5593,-2.56,-2.1984,-2.2013,-2.2096,-2.2405,-2.246,-2.2517,-2.2685,-2.2816,-2.2893,-2.2893,-2.2973,-2.3025,-2.3025,-2.3025,-2.3086,-2.3236,-2.3573,-2.3806,-2.3806,-2.4054,-2.4074,-2.3795,-2.4054,-2.4123,-2.3996,-2.4141,-2.419,-2.419,-2.419,-2.419,-2.419,-2.419,-2.419,-2.419,-2.419,-2.419,-2.419,-2.419,-2.419,-2.419,-2.419,-2.419,-2.419,-2.419,-2.419,-2.419,-2.419,-2.4209,-2.4191,-2.4238,-2.4284,-2.4363,-2.4464,-2.4617,-2.4773,-2.4949,-2.5066,-2.5165,-2.5268,-2.5313,-2.535,-2.5317,-2.5344,-2.5047,-2.373,-2.347,-2.3159,-2.1855,-2.159,-2.1619,-2.1688,-2.1692,-2.1564,-2.1175,-2.112,-2.099,-2.0595,-2.0558,-2.0718,-2.1178,-2.1257,-2.1276,-2.1237,-2.1647,-2.2062,-2.246,-2.2088,-2.2382,-2.3612,-2.2519,-2.2226,-2.3026,-2.1792,-2.1147,-2.117,-2.0726,-2.0512,-2.0546,-2.0546,-2.0524,-2.0498,-2.0496,-2.0508,-2.0493,-2.0493,-2.0492,-2.0509,-2.0474,-2.1451,-2.3001,-2.2957,-2.402,-2.5552,-2.556,-2.5551,-2.5543,-2.1986,-2.1986,-2.2073,-2.2278,-2.2334,-2.2402,-2.2681,-2.2952,-2.3126,-2.3126,-2.3301,-2.3426,-2.3426,-2.3488,-2.3493,-2.3493,-2.3735,-2.3888,-2.3888,-2.4085,-2.4218,-2.4218,-2.4218,-2.4218,-2.4218,-2.4218,-2.4209,-2.419,-2.419,-2.419,-2.419,-2.419,-2.419,-2.419,-2.419,-2.419,-2.419,-2.419,-2.419,-2.419,-2.419,-2.419,-2.419,-2.419,-2.419,-2.419,-2.419,-2.4228,-2.4266,-2.4366,-2.4468,-2.4562,-2.4582,-2.4795,-2.5012,-2.5047,-2.5171,-2.5302,-2.5303,-2.535,-2.537,-2.5308,-2.5357,-2.524,-2.4562,-2.4342,-2.4036,-2.3184,-2.3017,-2.3032,-2.3098,-2.3107,-2.2883,-2.2214,-2.2119,-2.1845,-2.1124,-2.0907,-2.1081,-2.1802,-2.126,-2.0853,-2.0992,-2.1012,-2.1288,-2.1948,-2.1344,-2.1847,-2.3968,-2.2629,-2.2436,-2.3837,-2.2372,-2.1572,-2.1575,-2.0858,-2.0482,-2.0488,-2.0482,-2.0482,-2.0489,-2.0488,-2.048,-2.0487,-2.0487,-2.0483,-2.0478,-2.0422,-2.1344,-2.2771,-2.2717,-2.3754,-2.5305,-2.5456,-2.5414,-2.5287,-2.2747,-2.2747,-2.276,-2.2799,-2.2812,-2.2825,-2.2881,-2.3114,-2.3265,-2.3265,-2.345,-2.3577,-2.3577,-2.3785,-2.3917,-2.3917,-2.4106,-2.4238,-2.4238,-2.4275,-2.4294,-2.4294,-2.4294,-2.4294,-2.4294,-2.4294,-2.4257,-2.419,-2.419,-2.419,-2.419,-2.419,-2.419,-2.419,-2.419,-2.419,-2.419,-2.419,-2.419,-2.419,-2.419,-2.419,-2.419,-2.419,-2.419,-2.419,-2.419,-2.4321,-2.4495,-2.467,-2.473,-2.4783,-2.4962,-2.5049,-2.5115,-2.5233,-2.5274,-2.5303,-2.5303,-2.5317,-2.5303,-2.5308,-2.5383,-2.547,-2.5353,-2.4757,-2.4002,-2.3237,-2.3091,-2.3086,-2.3107,-2.3099,-2.3065,-2.2968,-2.2948,-2.2909,-2.2773,-2.2162,-2.1763,-2.19,-2.1736,-2.1913,-2.2606,-2.2682,-2.272,-2.2833,-2.2736,-2.2812,-2.316,-2.2301,-2.1908,-2.2136,-2.1128,-2.0614,-2.0678,-2.0505,-2.0404,-2.0413,-2.0402,-2.0407,-2.0402,-2.0415,-2.0405,-2.041,-2.041,-2.041,-2.0407,-2.0398,-2.0985,-2.1868,-2.1869,-2.2891,-2.4462,-2.5225,-2.5027,-2.437,-2.2906,-2.2906,-2.2906,-2.2906,-2.3028,-2.3109,-2.3109,-2.3452,-2.3696,-2.3696,-2.3868,-2.3989,-2.3989,-2.4096,-2.4163,-2.4163,-2.4247,-2.4294,-2.4294,-2.4294,-2.4294,-2.4294,-2.4364,-2.4417,-2.4417,-2.4526,-2.4559,-2.4545,-2.4348,-2.4247,-2.4247,-2.4247,-2.4303,-2.4357,-2.4247,-2.4238,-2.4311,-2.4357,-2.4366,-2.4375,-2.4486,-2.4545,-2.4545,-2.4545,-2.4545,-2.4545,-2.4551,-2.4596,-2.4697,-2.4806,-2.4903,-2.4974,-2.5066,-2.5154,-2.5228,-2.5274,-2.5327,-2.5352,-2.5352,-2.5403,-2.546,-2.5418,-2.5486,-2.5559,-2.5551,-2.5264,-2.4898,-2.4619,-2.4557,-2.4547,-2.4547,-2.455,-2.4394,-2.3905,-2.3825,-2.3667,-2.3178,-2.2339,-2.1618,-2.117,-2.1088,-2.1217,-2.1577,-2.1595,-2.1783,-2.2249,-2.1818,-2.1961,-2.2882,-2.1714,-2.1243,-2.1724,-2.0878,-2.0404,-2.0444,-2.041,-2.0398,-2.0408,-2.0398,-2.0401,-2.0394,-2.041,-2.039,-2.0402,-2.0402,-2.0402,-2.0402,-2.0402,-2.0908,-2.1707,-2.1707,-2.2402,-2.345,-2.3856,-2.374,-2.3412]},{"header":{"parameterUnit":"m.s-1","parameterCategory":1,"la1":30.6,"la2":28.766,"lo1":-90.7593,"lo2":-88.6598,"dy":0.0162,"dx":0.0183,"nx":116,"ny":114,"refTime":"2024-07-09T12:00:00:Z","depth":0,"parameterNumber":3,"parameterNumberName":"V-component_of_WINDS"},"data":[0.0,0.0,0.0,0.0,0.0,0.0,0.0,0.0,0.0,0.0,0.0,0.0,0.0,0.0,0.0,0.0,0.0,0.0,0.0,0.0,0.0,0.0,0.0,0.0,0.0,0.0,0.0,0.0,0.0,0.0,0.0,0.0,0.0,0.0,0.0,0.0,0.0,0.0,0.0,0.0,0.0,0.0,0.0,0.0,0.0,0.0,0.0,0.0,0.0,0.0,0.0,0.0,0.0,0.0,0.0,0.0,0.0,0.0,0.0,0.0,0.0,0.0,0.0,0.0,0.0,0.0,0.0,0.0,0.0,0.0,0.0,0.0,0.0,0.0,0.0,0.0,0.0,0.0,0.0,0.0,0.0,0.0,0.0,0.0,0.0,0.0,0.0,0.0,0.0,0.0,0.0,0.0,0.0,0.0,0.0,0.0,0.0,0.0,0.0,0.0,0.0,0.0,0.0,0.0,0.0,0.0,0.0,0.0,0.0,0.0,0.0,0.0,0.0,0.0,0.0,0.0,0.0,0.0,0.0,0.0,0.0,0.0,0.0,0.0,0.0,0.0,0.0,0.0,0.0,0.0,0.0,0.0,0.0,0.0,0.0,0.0,0.0,0.0,0.0,0.0,0.0,0.0,0.0,0.0,0.0,0.0,0.0,0.0,0.0,0.0,0.0,0.0,0.0,0.0,0.0,0.0,0.0,0.0,0.0,0.0,0.0,0.0,0.0,0.0,0.0,0.0,0.0,0.0,0.0,0.0,0.0,0.0,0.0,0.0,0.0,0.0,0.0,0.0,0.0,0.0,0.0,0.0,0.0,0.0,0.0,0.0,0.0,0.0,0.0,0.0,0.0,0.0,0.0,0.0,0.0,0.0,0.0,0.0,0.0,0.0,0.0,0.0,0.0,0.0,0.0,0.0,0.0,0.0,0.0,0.0,0.0,0.0,0.0,0.0,0.0,0.0,0.0,0.0,0.0,0.0,0.0,0.0,0.0,0.0,0.0,0.0,0.0,0.0,0.0,0.0,0.0,0.0,0.0,0.0,0.0,0.0,0.0,0.0,0.0,0.0,0.0,0.0,0.0,0.0,0.0,0.0,0.0,0.0,0.0,0.0,0.0,0.0,0.0,0.0,0.0,0.0,0.0,0.0,0.0,0.0,0.0,0.0,0.0,0.0,0.0,0.0,0.0,0.0,0.0,0.0,0.0,0.0,0.0,0.0,0.0,0.0,0.0,0.0,0.0,0.0,0.0,0.0,0.0,0.0,0.0,0.0,0.0,0.0,0.0,0.0,0.0,0.0,0.0,0.0,0.0,0.0,0.0,0.0,0.0,0.0,0.0,0.0,0.0,0.0,0.0,0.0,0.0,0.0,0.0,0.0,0.0,0.0,0.0,0.0,0.0,0.0,0.0,0.0,0.0,0.0,0.0,0.0,0.0,0.0,0.0,0.0,0.0,0.0,0.0,0.0,0.0,0.0,0.0,0.0,0.0,0.0,0.0,0.0,0.0,0.0,0.0,0.0,0.0,0.0,0.0,0.0,0.0,0.0,0.0,0.0,0.0,0.0,0.0,0.0,0.0,0.0,0.0,0.0,0.0,0.0,0.0,0.0,0.0,0.0,0.0,0.0,0.0,0.0,0.0,0.0,0.0,0.0,0.0,0.0,0.0,0.0,0.0,0.0,0.0,0.0,0.0,0.0,0.0,0.0,0.0,0.0,0.0,0.0,0.0,0.0,0.0,0.0,0.0,0.0,0.0,0.0,0.0,0.0,0.0,0.0,0.0,0.0,0.0,0.0,0.0,0.0,0.0,0.0,0.0,0.0,0.0,0.0,0.0,0.0,0.0,0.0,0.0,0.0,0.0,0.0,0.0,0.0,0.0,0.0,0.0,0.0,0.0,0.0,0.0,0.0,0.0,0.0,0.0,0.0,0.0,0.0,0.0,0.0,0.0,0.0,0.0,0.0,0.0,0.0,0.0,0.0,0.0,0.0,0.0,0.0,0.0,0.0,0.0,0.0,0.0,0.0,0.0,0.0,0.0,0.0,0.0,0.0,0.0,0.0,0.0,0.0,0.0,0.0,0.0,0.0,0.0,0.0,0.0,0.0,0.0,0.0,0.0,0.0,0.0,0.0,0.0,0.0,0.0,0.0,0.0,0.0,0.0,0.0,0.0,0.0,0.0,0.0,0.0,0.0,0.0,0.0,0.0,0.0,0.0,0.0,0.0,0.0,0.0,0.0,0.0,0.0,0.0,0.0,0.0,0.0,0.0,0.0,0.0,0.0,0.0,0.0,0.0,0.0,0.0,0.0,0.0,0.0,0.0,0.0,0.0,0.0,0.0,0.0,0.0,0.0,0.0,0.0,0.0,0.0,0.0,0.0,0.0,0.0,0.0,0.0,0.0,0.0,0.0,0.0,0.0,0.0,0.0,0.0,0.0,0.0,0.0,0.0,0.0,0.0,0.0,0.0,0.0,0.0,0.0,0.0,0.0,0.0,0.0,0.0,0.0,0.0,0.0,0.0,0.0,0.0,0.0,0.0,0.0,0.0,0.0,0.0,0.0,0.0,0.0,0.0,0.0,0.0,0.0,0.0,0.0,0.0,0.0,0.0,0.0,0.0,0.0,0.0,0.0,0.0,0.0,0.0,0.0,0.0,0.0,0.0,0.0,0.0,0.0,0.0,0.0,0.0,0.0,0.0,0.0,0.0,0.0,0.0,0.0,0.0,0.0,0.0,0.0,0.0,0.0,0.0,0.0,0.0,0.0,0.0,0.0,0.0,0.0,0.0,0.0,0.0,0.0,0.0,0.0,0.0,0.0,0.0,0.0,0.0,0.0,0.0,0.0,0.0,0.0,0.0,0.0,0.0,0.0,0.0,0.0,0.0,0.0,0.0,0.0,0.0,0.0,0.0,0.0,0.0,0.0,0.0,0.0,0.0,0.0,0.0,0.0,0.0,0.0,0.0,0.0,0.0,0.0,0.0,0.0,0.0,0.0,0.0,0.0,0.0,0.0,0.0,0.0,0.0,0.0,0.0,0.0,0.0,0.0,0.0,0.0,0.0,0.0,0.0,0.0,0.0,0.0,0.0,0.0,0.0,0.0,0.0,0.0,0.0,0.0,0.0,0.0,0.0,0.0,0.0,0.0,0.0,0.0,0.0,0.0,0.0,0.0,0.0,0.0,0.0,0.0,0.0,0.0,0.0,0.0,0.0,0.0,0.0,0.0,0.0,0.0,0.0,0.0,0.0,0.0,0.0,0.0,0.0,0.0,0.0,0.0,0.0,0.0,0.0,0.0,0.0,0.0,0.0,0.0,0.0,0.0,0.0,0.0,0.0,0.0,0.0,0.0,0.0,0.0,0.0,0.0,0.0,0.0,0.0,0.0,0.0,0.0,0.0,0.0,0.0,0.0,0.0,0.0,0.0,0.0,0.0,0.0,0.0,0.0,0.0,0.0,0.0,0.0,0.0,0.0,0.0,0.0,0.0,0.0,0.0,0.0,0.0,0.0,0.0,0.0,0.0,0.0,0.0,0.0,0.0,0.0,0.0,0.0,0.0,0.0,0.0,0.0,0.0,0.0,0.0,0.0,0.0,0.0,0.0,0.0,0.0,0.0,0.0,0.0,0.0,0.0,0.0,0.0,0.0,0.0,0.0,0.0,0.0,0.0,0.0,0.0,0.0,0.0,0.0,0.0,0.0,0.0,0.0,0.0,0.0,0.0,0.0,0.0,0.0,0.0,0.0,0.0,0.0,0.0,0.0,0.0,0.0,0.0,0.0,0.0,0.0,0.0,0.0,0.0,0.0,0.0,0.0,0.0,0.0,0.0,0.0,0.0,0.0,0.0,0.0,0.0,0.0,0.0,0.0,0.0,0.0,0.0,0.0,0.0,0.0,0.0,0.0,0.0,0.0,0.0,0.0,0.0,0.0,0.0,0.0,0.0,0.0,0.0,0.0,0.0,0.0,0.0,0.0,0.0,0.0,0.0,0.0,0.0,0.0,0.0,0.0,0.0,0.0,0.0,0.0,0.0,0.0,0.0,0.0,0.0,0.0,0.0,0.0,0.0,0.0,0.0,0.0,0.0,0.0,0.0,0.0,0.0,0.0,0.0,0.0,0.0,0.0,0.0,0.0,0.0,0.0,0.0,0.0,0.0,0.0,0.0,0.0,0.0,0.0,0.0,0.0,0.0,0.0,0.0,0.0,0.0,0.0,0.0,0.0,0.0,0.0,0.0,0.0,0.0,0.0,0.0,0.0,0.0,0.0,0.0,0.0,0.0,0.0,0.0,0.0,0.0,0.0,0.0,0.0,0.0,0.0,0.0,0.0,0.0,0.0,0.0,0.0,0.0,0.0,0.0,0.0,0.0,0.0,0.0,0.0,0.0,0.0,0.0,0.0,0.0,0.0,0.0,0.0,0.0,0.0,0.0,0.0,0.0,0.0,0.0,0.0,0.0,0.0,0.0,0.0,0.0,0.0,0.0,0.0,0.0,0.0,0.0,0.0,0.0,0.0,0.0,0.0,0.0,0.0,0.0,0.0,0.0,0.0,0.0,0.0,0.0,0.0,0.0,0.0,0.0,0.0,0.0,0.0,0.0,0.0,0.0,0.0,0.0,0.0,0.0,0.0,0.0,0.0,0.0,0.0,0.0,0.0,0.0,0.0,0.0,0.0,0.0,0.0,0.0,0.0,0.0,0.0,0.0,0.0,0.0,0.0,0.0,0.0,0.0,0.0,0.0,0.0,0.0,0.0,0.0,0.0,0.0,0.0,0.0,0.0,0.0,0.0,0.0,0.0,0.0,0.0,0.0,0.0,0.0,0.0,0.0,0.0,0.0,0.0,0.0,0.0,0.0,0.0,0.0,0.0,0.0,0.0,0.0,0.0,0.0,0.0,0.0,0.0,0.0,0.0,0.0,0.0,0.0,0.0,0.0,0.0,0.0,0.0,0.0,0.0,0.0,0.0,0.0,0.0,0.0,0.0,0.0,0.0,0.0,0.0,0.0,0.0,0.0,0.0,0.0,0.0,0.0,0.0,0.0,0.0,0.0,0.0,0.0,0.0,0.0,0.0,0.0,0.0,0.0,0.0,0.0,0.0,0.0,0.0,0.0,0.0,0.0,0.0,0.0,0.0,0.0,0.0,0.0,0.0,0.0,0.0,0.0,0.0,0.0,0.0,0.0,0.0,0.0,0.0,0.0,0.0,0.0,0.0,0.0,0.0,0.0,0.0,0.0,0.0,0.0,0.0,0.0,0.0,0.0,0.0,0.0,0.0,0.0,0.0,0.0,0.0,0.0,0.0,0.0,0.0,0.0,0.0,0.0,0.0,0.0,0.0,0.0,0.0,0.0,0.0,0.0,0.0,0.0,0.0,0.0,0.0,0.0,0.0,0.0,0.0,0.0,0.0,0.0,0.0,0.0,0.0,0.0,0.0,0.0,0.0,0.0,0.0,0.0,0.0,0.0,0.0,0.0,0.0,0.0,0.0,0.0,0.0,0.0,0.0,0.0,0.0,0.0,0.0,0.0,0.0,0.0,0.0,0.0,0.0,0.0,0.0,0.0,0.0,0.0,0.0,0.0,0.0,0.0,0.0,0.0,0.0,0.0,0.0,0.0,0.0,0.0,0.0,0.0,0.0,0.0,0.0,0.0,0.0,0.0,0.0,0.0,0.0,0.0,0.0,0.0,0.0,0.0,0.0,0.0,0.0,0.0,0.0,0.0,0.0,0.0,0.0,0.0,0.0,0.0,0.0,0.0,0.0,0.0,0.0,0.0,0.0,0.0,0.0,0.0,0.0,0.0,0.0,0.0,0.0,0.0,0.0,0.0,0.0,0.0,0.0,0.0,0.0,0.0,0.0,0.0,0.0,0.0,0.0,0.0,0.0,0.0,0.0,0.0,0.0,0.0,0.0,0.0,0.0,0.0,0.0,0.0,0.0,0.0,0.0,0.0,0.0,0.0,0.0,0.0,0.0,0.0,0.0,0.0,0.0,0.0,0.0,0.0,0.0,0.0,0.0,0.0,0.0,0.0,0.0,0.0,0.0,0.0,0.0,0.0,0.0,0.0,0.0,0.0,0.0,0.0,0.0,0.0,0.0,0.0,0.0,0.0,0.0,-1.058,0.0,0.0,0.0,0.0,0.0,0.0,0.0,0.0,0.0,0.0,0.0,0.0,0.0,0.0,0.0,0.0,0.0,0.0,0.0,0.0,0.0,0.0,0.0,0.0,-0.7681,-0.779,-0.779,-0.7701,-0.7611,-0.7544,0.0,0.0,0.0,0.0,0.0,-0.6162,-0.5952,-0.5962,-0.6181,-0.6057,-0.5926,-0.5777,-0.5875,-0.5454,-0.4641,0.0,0.0,0.0,0.0,0.0,0.0,0.0,0.0,0.0,0.0,0.0,0.0,0.0,0.0,0.0,0.0,0.0,0.0,0.0,0.0,0.0,0.0,0.0,0.0,0.0,0.0,0.0,0.0,0.0,0.0,0.0,0.0,0.0,0.0,0.0,0.0,0.0,0.0,0.0,0.0,0.0,0.0,0.0,0.0,0.0,0.0,0.0,0.0,0.0,0.0,0.0,0.0,0.0,0.0,0.0,0.0,0.0,0.0,0.0,0.0,0.0,0.0,0.0,0.0,0.0,0.0,0.0,0.0,0.0,0.0,0.0,-1.1209,0.0,0.0,0.0,0.0,0.0,0.0,0.0,0.0,0.0,0.0,0.0,0.0,0.0,0.0,0.0,0.0,0.0,0.0,0.0,0.0,0.0,-0.748,-0.7617,-0.7863,-0.8077,-0.8213,-0.8027,-0.7841,-0.7727,0.0,0.0,0.0,0.0,-0.6273,-0.6079,-0.5911,-0.618,-0.6924,-0.6594,-0.6583,-0.6873,-0.7076,-0.6625,0.0,-0.5374,0.0,0.0,0.0,0.0,0.0,0.0,0.0,0.0,0.0,0.0,0.0,0.0,0.0,0.0,0.0,0.0,0.0,0.0,0.0,0.0,0.0,0.0,0.0,0.0,0.0,0.0,0.0,0.0,0.0,0.0,0.0,0.0,0.0,0.0,0.0,0.0,0.0,0.0,0.0,0.0,0.0,0.0,0.0,0.0,0.0,0.0,0.0,0.0,0.0,0.0,0.0,0.0,0.0,0.0,0.0,0.0,0.0,0.0,0.0,0.0,0.0,0.0,0.0,-1.33,-1.359,-1.4019,-1.4023,-1.4212,-1.448,-1.3375,-1.2784,-1.261,0.0,0.0,0.0,0.0,0.0,0.0,0.0,0.0,0.0,0.0,0.0,0.0,0.0,0.0,0.0,0.0,0.0,0.0,0.0,0.0,-0.7815,-0.8455,-0.8316,-0.8438,-0.9071,-0.8839,-0.8405,-0.7817,0.0,0.0,0.0,-0.6577,-0.655,-0.6356,-0.6326,-0.667,-0.7411,-0.7865,-0.8173,-0.8327,0.0,0.0,0.0,-0.6714,-0.6191,0.0,0.0,0.0,0.0,0.0,0.0,0.0,0.0,0.0,0.0,0.0,0.0,0.0,0.0,0.0,0.0,0.0,0.0,0.0,0.0,0.0,0.0,0.0,0.0,0.0,0.0,0.0,0.0,0.0,0.0,0.0,0.0,0.0,0.0,0.0,0.0,0.0,0.0,0.0,0.0,0.0,0.0,-0.5858,-0.6762,0.0,0.0,0.0,0.0,0.0,0.0,0.0,0.0,0.0,0.0,0.0,0.0,0.0,0.0,-1.2139,-1.353,-1.4399,-1.4713,-1.5352,-1.58,-1.6011,-1.5851,-1.5666,-1.5521,-1.5345,0.0,-1.3962,-1.3086,0.0,0.0,0.0,0.0,0.0,0.0,0.0,0.0,0.0,0.0,0.0,0.0,0.0,0.0,0.0,0.0,0.0,0.0,0.0,0.0,0.0,-0.8748,-0.9288,-0.9608,-0.9613,-0.9342,0.0,0.0,0.0,-0.7105,-0.6976,-0.687,-0.6737,-0.6736,-0.7158,-0.8012,-0.8765,-0.9185,0.0,0.0,0.0,0.0,-0.8561,-0.7671,0.0,0.0,0.0,0.0,0.0,0.0,0.0,0.0,0.0,0.0,0.0,0.0,0.0,0.0,0.0,0.0,0.0,0.0,0.0,0.0,0.0,0.0,0.0,0.0,0.0,0.0,0.0,0.0,0.0,0.0,0.0,0.0,0.0,0.0,0.0,0.0,0.0,0.0,0.0,0.0,0.0,-0.5754,-0.6619,-0.673,-0.7052,-0.7122,0.0,0.0,0.0,0.0,0.0,0.0,0.0,0.0,0.0,-1.0772,-1.1405,-1.2413,-1.3807,-1.4714,-1.5491,-1.6118,-1.6463,-1.6658,-1.6717,-1.6658,-1.6545,-1.6417,-1.6417,-1.6073,-1.5407,-1.4437,-1.4236,-1.4496,0.0,0.0,0.0,0.0,-1.5097,-1.5225,0.0,0.0,0.0,0.0,0.0,0.0,0.0,0.0,0.0,0.0,0.0,0.0,-0.8227,-0.9276,-1.007,-1.0282,0.0,0.0,0.0,0.0,0.0,-0.7577,-0.7355,-0.7231,-0.7184,-0.749,-0.8001,-0.8652,-0.9508,0.0,0.0,0.0,0.0,0.0,0.0,0.0,0.0,0.0,0.0,0.0,0.0,0.0,0.0,0.0,0.0,0.0,0.0,0.0,0.0,0.0,0.0,0.0,0.0,0.0,0.0,0.0,0.0,0.0,0.0,0.0,0.0,0.0,0.0,0.0,0.0,0.0,0.0,0.0,0.0,0.0,0.0,0.0,0.0,0.0,0.0,0.0,0.0,-0.6599,-0.7187,-0.7114,-0.7615,-0.7749,0.0,0.0,0.0,0.0,0.0,0.0,-0.9483,-0.9882,-1.068,-1.1916,-1.2519,-1.3642,-1.5365,-1.5863,-1.6455,-1.7192,-1.7192,-1.7192,-1.7192,-1.7192,-1.7192,-1.7192,-1.7192,-1.7006,-1.6651,-1.5542,-1.5529,-1.6115,-1.5485,-1.5685,-1.6384,-1.6798,-1.6926,-1.7096,0.0,0.0,0.0,0.0,0.0,0.0,0.0,0.0,0.0,0.0,0.0,-0.8441,0.0,0.0,0.0,0.0,0.0,0.0,0.0,0.0,0.0,-0.7451,-0.7575,-0.7663,-0.7663,-0.8854,-0.9431,0.0,0.0,0.0,0.0,0.0,0.0,0.0,0.0,0.0,0.0,0.0,0.0,0.0,0.0,0.0,0.0,0.0,0.0,0.0,0.0,0.0,0.0,0.0,0.0,0.0,0.0,0.0,0.0,0.0,0.0,0.0,0.0,0.0,0.0,0.0,0.0,0.0,0.0,0.0,0.0,0.0,0.0,0.0,0.0,0.0,0.0,0.0,0.0,0.0,0.0,0.0,0.0,-0.8917,-0.8809,0.0,0.0,0.0,0.0,-0.859,-0.919,-0.9687,-1.0036,-1.0974,-1.1927,-1.291,-1.4114,-1.529,-1.6423,-1.7068,-1.7502,-1.7668,-1.7668,-1.7668,-1.7668,-1.7668,-1.7668,-1.7668,-1.7668,-1.7657,-1.7533,-1.6216,-1.6272,-1.7194,-1.6706,-1.7147,-1.8078,-1.8103,-1.8116,-1.8152,0.0,0.0,0.0,-0.7251,-0.7233,-0.7249,-0.7452,-0.7421,-0.7329,-0.7219,-0.8188,0.0,0.0,0.0,0.0,0.0,0.0,0.0,0.0,0.0,-0.8851,-0.8515,-0.8556,-0.8741,-0.9048,-0.9161,-0.9547,0.0,0.0,0.0,0.0,0.0,0.0,0.0,0.0,0.0,0.0,0.0,0.0,0.0,0.0,0.0,0.0,0.0,0.0,0.0,0.0,0.0,0.0,0.0,0.0,0.0,0.0,0.0,0.0,0.0,0.0,0.0,0.0,0.0,0.0,0.0,0.0,0.0,0.0,0.0,0.0,0.0,0.0,0.0,0.0,0.0,0.0,0.0,0.0,0.0,0.0,0.0,0.0,-0.9109,-0.9241,0.0,0.0,-0.9372,-0.9468,-0.9585,-1.0412,-1.1042,-1.1382,-1.2104,-1.294,-1.3941,-1.435,-1.5344,-1.6938,-1.7174,-1.7602,-1.8143,-1.8143,-1.8143,-1.8143,-1.8143,-1.8143,-1.8143,-1.8143,-1.7988,-1.7688,-1.7648,-1.7647,-1.7651,-1.7209,-1.7504,-1.8178,-1.8572,-1.8707,-1.8781,-0.6924,-0.6924,0.0,-0.7195,-0.7083,-0.705,-0.729,-0.7258,-0.7215,-0.7293,-0.8339,-0.9191,0.0,0.0,0.0,0.0,0.0,0.0,0.0,0.0,-0.9343,-0.9121,-0.9244,-0.9484,-0.9797,-0.9594,0.0,0.0,0.0,0.0,0.0,0.0,0.0,0.0,0.0,0.0,0.0,0.0,0.0,0.0,0.0,0.0,-0.4908,0.0,0.0,0.0,0.0,0.0,0.0,0.0,0.0,0.0,0.0,0.0,0.0,0.0,0.0,0.0,0.0,0.0,0.0,0.0,0.0,0.0,0.0,0.0,0.0,0.0,0.0,0.0,0.0,0.0,0.0,0.0,0.0,0.0,0.0,0.0,-0.9019,-0.9611,-0.9932,-1.0122,-1.0124,-1.0516,-1.0782,-1.0748,-1.1586,-1.2212,-1.2449,-1.3083,-1.3982,-1.5116,-1.5397,-1.6244,-1.7846,-1.7846,-1.8119,-1.8642,-1.8642,-1.8642,-1.8642,-1.8642,-1.8642,-1.8642,-1.8642,-1.8454,-1.8196,-1.8725,-1.8728,-1.8375,-1.8215,-1.8501,-1.8998,-1.9195,-1.9259,-1.9334,-0.6599,-0.6757,-0.6866,-0.6732,-0.6816,-0.6883,-0.6816,-0.6807,-0.7023,-0.7608,-0.8167,0.0,0.0,0.0,0.0,0.0,0.0,0.0,0.0,-0.9852,-0.9782,-0.9174,-0.9573,-0.9833,-0.9862,0.0,0.0,0.0,0.0,0.0,0.0,0.0,0.0,0.0,0.0,0.0,0.0,0.0,0.0,0.0,0.0,0.0,-0.6128,0.0,0.0,0.0,0.0,0.0,0.0,0.0,0.0,0.0,0.0,0.0,0.0,0.0,0.0,0.0,0.0,0.0,0.0,0.0,0.0,0.0,0.0,0.0,0.0,0.0,0.0,0.0,0.0,0.0,0.0,0.0,0.0,0.0,-0.8539,-0.8834,-0.9463,-1.0492,-1.0931,-1.1153,-1.1167,-1.1767,-1.2131,-1.2061,-1.2694,-1.3117,-1.3158,-1.3949,-1.5044,-1.64,-1.7245,-1.8152,-1.9098,-1.9108,-1.9108,-1.9108,-1.9108,-1.9108,-1.9108,-1.9108,-1.9108,-1.9108,-1.9108,-1.9098,-1.9133,-1.9371,-1.946,-1.9517,-1.9747,-2.0177,-2.0589,-2.0037,-1.9823,-1.9824,-0.6633,-0.6757,-0.6908,-0.6924,-0.6874,-0.6874,-0.6993,-0.6927,-0.7001,-0.736,0.0,0.0,0.0,0.0,0.0,0.0,0.0,0.0,-1.0238,0.0,-0.9216,-1.0012,-1.0215,0.0,0.0,0.0,0.0,0.0,0.0,0.0,0.0,0.0,0.0,0.0,0.0,0.0,0.0,0.0,0.0,0.0,0.0,0.0,-0.6695,0.0,0.0,0.0,0.0,0.0,0.0,0.0,0.0,0.0,0.0,0.0,0.0,0.0,0.0,0.0,0.0,0.0,0.0,0.0,0.0,0.0,0.0,0.0,0.0,0.0,0.0,0.0,0.0,0.0,0.0,0.0,0.0,-0.8664,-0.8528,-0.9892,-1.0912,-1.0968,-1.1675,-1.2202,-1.2193,-1.285,-1.3256,-1.3243,-1.3363,-1.3696,-1.4215,-1.4571,-1.5486,-1.7082,-1.7499,-1.8164,-1.9098,-1.9108,-1.9108,-1.9108,-1.9108,-1.9108,-1.9108,-1.9108,-1.9108,-1.9108,-1.9108,-1.9396,-1.9868,-2.0403,-2.0937,-2.1287,-2.0643,-2.0233,-2.0086,-2.0343,-2.0189,-1.9837,-0.6625,-0.6715,-0.6833,-0.6874,-0.6761,-0.6719,-0.6861,-0.6824,-0.7008,-0.7631,0.0,0.0,0.0,0.0,0.0,0.0,0.0,0.0,-0.9835,-0.9124,-0.9319,0.0,0.0,0.0,0.0,0.0,0.0,0.0,0.0,0.0,0.0,0.0,0.0,0.0,0.0,0.0,0.0,0.0,0.0,0.0,0.0,0.0,-0.7517,-0.6844,-0.6361,-0.5956,-0.5575,-0.5366,-0.5262,-0.498,0.0,0.0,0.0,0.0,0.0,0.0,0.0,0.0,0.0,0.0,0.0,0.0,0.0,0.0,0.0,0.0,0.0,0.0,0.0,0.0,0.0,0.0,0.0,0.0,-0.8657,-0.9437,-0.9681,-1.0763,-1.1554,-1.1662,-1.2359,-1.2854,-1.2998,-1.3708,-1.404,-1.3884,-1.4132,-1.4449,-1.4877,-1.559,-1.6499,-1.7628,-1.8418,-1.9026,-1.9399,-1.9541,-1.9541,-1.9388,-1.9388,-1.9295,-1.9108,-1.9108,-1.9108,0.0,-1.9108,-1.933,-1.9715,-2.0387,-2.108,0.0,0.0,0.0,0.0,0.0,-2.0679,-2.0253,-0.6573,-0.6651,-0.6698,-0.6681,-0.6582,-0.6531,-0.659,-0.6599,-0.6966,-0.8007,0.0,0.0,0.0,0.0,0.0,0.0,0.0,0.0,0.0,0.0,0.0,-1.1206,0.0,0.0,0.0,0.0,0.0,0.0,0.0,0.0,0.0,0.0,0.0,0.0,0.0,0.0,0.0,0.0,0.0,0.0,0.0,0.0,-0.8448,-0.7767,-0.7342,-0.6995,-0.6374,-0.6032,-0.5853,-0.5798,0.0,0.0,0.0,0.0,0.0,0.0,0.0,0.0,0.0,0.0,0.0,0.0,0.0,0.0,0.0,0.0,0.0,0.0,0.0,0.0,0.0,0.0,0.0,0.0,-0.9596,-1.0666,-1.1428,-1.1488,-1.1714,-1.2406,-1.2972,-1.3348,-1.3575,-1.4333,-1.47,-1.4305,-1.4904,-1.5347,-1.5486,0.0,0.0,0.0,0.0,-2.0234,-1.9876,-2.0224,-2.0203,-1.9793,-1.9793,-1.9554,-1.9108,-1.9108,-1.9108,-1.9108,-1.9108,-1.9131,-1.9264,-1.9846,-2.0549,-2.1298,-2.2009,-2.2309,-2.2246,-2.1694,-2.1207,-2.0882,-0.6446,-0.6625,-0.6732,-0.6561,-0.6557,-0.659,-0.6599,-0.6599,-0.6756,-0.7191,-0.7934,0.0,0.0,0.0,0.0,0.0,0.0,0.0,0.0,0.0,0.0,0.0,0.0,0.0,0.0,0.0,0.0,0.0,0.0,0.0,0.0,0.0,0.0,0.0,0.0,0.0,0.0,0.0,0.0,0.0,0.0,0.0,-0.9119,-0.8462,-0.7939,-0.7535,-0.7238,-0.6997,-0.6782,-0.6379,-0.6196,-0.6051,-0.562,0.0,0.0,0.0,0.0,0.0,0.0,0.0,0.0,0.0,0.0,0.0,0.0,0.0,0.0,0.0,0.0,0.0,0.0,0.0,0.0,-1.0157,-1.0467,-1.0978,-1.2126,-1.2058,-1.2042,-1.2448,-1.3607,-1.4173,-1.3665,-1.4821,-1.5556,-1.5487,-1.5585,-1.6184,-1.7305,-1.775,0.0,-1.9259,-2.0022,-2.0343,-2.0296,-2.0343,-2.0203,-1.9793,0.0,0.0,-1.9108,-1.9108,-1.9108,-1.9108,-1.9108,-1.9396,-1.9911,-2.0042,-2.0826,-2.193,-2.2187,-2.2309,-2.2246,-2.1694,-2.1418,-2.137,-0.6439,-0.6557,-0.6625,-0.6518,-0.6561,-0.6599,-0.6599,-0.6599,-0.6746,-0.7144,-0.7437,0.0,0.0,0.0,0.0,0.0,0.0,0.0,0.0,0.0,0.0,0.0,0.0,0.0,0.0,0.0,0.0,0.0,0.0,0.0,0.0,0.0,0.0,0.0,0.0,0.0,0.0,0.0,0.0,0.0,0.0,0.0,-1.0061,-0.923,-0.8679,-0.829,-0.7739,-0.7431,-0.7188,-0.6719,-0.6406,-0.6164,-0.5922,-0.5685,-0.5469,0.0,0.0,0.0,0.0,0.0,0.0,0.0,0.0,0.0,0.0,0.0,0.0,0.0,0.0,-0.7896,0.0,0.0,-0.9672,-1.0811,-1.1349,-1.1863,-1.2696,-1.2981,-1.3076,-1.3012,-1.368,-1.4138,-1.4111,-1.4963,-1.5585,-1.5778,-1.595,-1.6593,-1.7807,-1.8431,-1.9107,-1.9885,-2.0696,-2.1,-2.0736,-2.0963,-2.0886,-2.0441,-2.0203,-1.9886,-1.944,-1.9212,-1.9108,-1.9108,-1.9108,-1.9297,-1.9649,-2.0323,-2.0985,-2.1686,-2.2424,-2.2355,-2.1933,-2.2209,-2.1782,-2.1209,-0.6441,-0.6493,-0.651,-0.651,-0.6569,-0.6599,-0.6599,-0.6573,-0.6696,-0.7134,-0.6928,-0.6904,-0.7336,-0.7086,-0.6943,0.0,0.0,0.0,0.0,0.0,0.0,0.0,0.0,0.0,0.0,0.0,0.0,0.0,0.0,0.0,0.0,0.0,0.0,0.0,0.0,0.0,0.0,0.0,0.0,0.0,0.0,0.0,-1.082,-1.001,-0.9394,-0.8837,-0.7982,-0.7497,-0.7189,-0.6783,-0.6387,-0.606,-0.6012,-0.5895,-0.5739,-0.5625,-0.5473,0.0,0.0,0.0,0.0,0.0,0.0,0.0,0.0,0.0,-0.7254,-0.7691,-0.8119,-0.8771,-0.9826,-1.007,-1.0468,-1.1518,-1.2078,-1.2658,-1.3316,-1.3819,-1.4024,-1.3729,-1.3818,-1.4101,-1.4569,-1.5097,-1.5532,-1.5877,-1.6294,-1.7029,-1.8142,-1.8922,-1.9697,-2.0482,-2.1222,-2.1508,-2.1248,-2.1621,-2.1569,-2.1114,-2.0705,-2.0327,-1.9907,-1.945,-1.9233,-1.9233,-1.9139,-1.9108,-1.9198,-2.042,-2.0965,-2.1219,-2.2433,-2.2405,-2.1757,-2.2619,-2.2133,-2.1186,-0.6348,-0.6465,-0.659,-0.659,-0.6599,-0.6599,-0.6599,-0.6448,-0.6355,-0.6415,-0.6696,-0.6902,-0.6959,-0.7136,-0.7463,0.0,0.0,0.0,0.0,0.0,0.0,0.0,0.0,0.0,0.0,0.0,0.0,0.0,0.0,0.0,0.0,0.0,0.0,0.0,0.0,0.0,0.0,0.0,0.0,0.0,0.0,0.0,-1.0896,-1.0794,-0.9925,-0.8718,-0.7902,-0.7263,-0.6753,-0.6503,-0.6396,-0.6315,-0.6066,-0.598,-0.5955,-0.5939,0.0,-0.556,-0.596,-0.605,0.0,-0.6304,-0.6457,-0.6789,0.0,0.0,-0.942,-0.9442,-1.0552,-1.1569,-1.1778,-1.1291,-1.1519,-1.3468,-1.2613,-1.2377,-1.427,-1.4082,-1.3938,-1.4417,-1.479,-1.4923,-1.4617,-1.5541,-1.6201,-1.6233,-1.6949,-1.8055,-1.9565,-1.9268,-1.9827,-2.1573,-2.1231,-2.1231,-2.1725,-2.1776,-2.1569,-2.1114,-2.1062,-2.0793,-2.0338,-1.9917,-1.972,-1.9699,-1.9285,-1.9108,-1.9164,-1.9911,-2.0549,-2.1155,-2.1928,-2.2217,-2.2234,-2.2359,-2.2284,-2.2099,-0.6465,-0.6547,-0.6564,-0.6448,-0.653,-0.6564,-0.6439,-0.636,-0.626,-0.6144,-0.6173,-0.6205,-0.6205,-0.6434,-0.6815,-0.7341,0.0,0.0,0.0,0.0,0.0,0.0,0.0,0.0,0.0,0.0,0.0,0.0,0.0,0.0,0.0,0.0,0.0,0.0,0.0,0.0,0.0,0.0,0.0,0.0,0.0,0.0,-1.1074,-1.0532,-0.9813,-0.9004,-0.8409,-0.7579,0.0,0.0,-0.6181,-0.5989,-0.568,-0.5626,-0.5673,-0.5783,-0.5804,0.0,-0.669,0.0,0.0,0.0,-0.7567,-0.805,-0.8663,-0.9445,-1.0122,-1.0451,-1.1041,-1.1644,-1.2228,-1.2081,-1.2235,0.0,-1.3461,-1.3629,-1.432,-1.4504,-1.4664,-1.4925,-1.5112,-1.5119,-1.4958,-1.5381,-1.5923,-1.6594,-1.6941,-1.7786,-1.9304,-1.945,-2.0079,-2.1252,-2.1377,-2.153,-2.1807,-2.1807,-2.1714,-2.1518,-2.1248,-2.101,-2.0777,-2.0358,-2.0006,-1.9782,-1.9585,-1.9357,-1.9164,-1.9813,-2.0484,-2.1155,-2.1834,-2.2194,-2.2309,-2.2309,-2.1907,-2.1423,-0.643,-0.6474,-0.6465,-0.6322,-0.6378,-0.6387,-0.6242,-0.6171,-0.609,-0.5934,-0.5751,-0.5684,-0.5793,-0.6097,-0.6478,-0.6943,-0.817,-0.8812,0.0,0.0,0.0,0.0,0.0,0.0,0.0,0.0,0.0,0.0,0.0,0.0,0.0,0.0,0.0,0.0,0.0,0.0,0.0,0.0,0.0,0.0,0.0,0.0,-1.1208,-1.0434,-0.9786,-0.9219,-0.848,-0.7536,0.0,0.0,-0.5913,-0.5697,-0.5362,-0.536,-0.5512,-0.5757,-0.6126,-0.6601,-0.7267,0.0,0.0,-0.8119,-0.8646,-0.9089,-0.9419,-0.998,-1.0597,-1.121,-1.1494,-1.1861,-1.2631,-1.2634,0.0,-1.342,-1.4031,-1.4472,-1.4604,-1.4966,-1.5257,-1.536,-1.5283,-1.5257,-1.5349,-1.5482,-1.5881,-1.6687,-1.6936,-1.7588,-1.8758,-1.9332,-2.0031,-2.0857,-2.1328,-2.1645,-2.1807,-2.1807,-2.1807,-2.1797,-2.1466,-2.13,-2.129,-2.0824,-2.0296,-1.9793,-1.9793,-1.9533,-1.9131,-1.9616,-2.0323,-2.1155,-2.1647,-2.211,-2.2493,-2.2343,-2.1735,-2.1049,-0.6099,-0.618,-0.6304,-0.6295,-0.6144,-0.6016,-0.6007,-0.5843,-0.5714,-0.5714,-0.5595,-0.5659,-0.6044,-0.6499,-0.6976,-0.7442,-0.8357,-0.8812,-0.8607,-0.9065,0.0,0.0,0.0,0.0,0.0,0.0,0.0,0.0,0.0,0.0,0.0,0.0,0.0,0.0,0.0,0.0,0.0,0.0,0.0,0.0,0.0,0.0,-1.1258,-1.0841,-1.0095,-0.9121,-0.7741,0.0,0.0,0.0,-0.561,-0.5553,-0.5293,-0.5384,0.0,-0.6075,-0.6823,0.0,0.0,0.0,-0.8814,-0.9101,-0.9362,-0.9642,-0.9908,-1.0497,-1.1161,-1.1839,-1.2497,-1.3053,-1.3412,-1.2948,-1.2969,-1.4408,-1.4131,-1.4219,-1.5572,-1.542,-1.5352,-1.5737,-1.5446,-1.5334,0.0,-1.6122,-1.6351,-1.6324,-1.7059,-1.7739,-1.8278,-1.8794,-1.9578,-2.0867,-2.0905,-2.1213,-2.1807,-2.1807,-2.1807,-2.1807,-2.1797,-2.1787,-2.1766,-2.13,-2.0607,-1.9793,-1.9793,-1.9533,-1.9108,-1.9131,-1.9911,-2.1092,-2.1123,-2.1939,-2.3007,-2.2481,-2.2031,-2.1705,-0.6224,-0.6251,-0.6216,-0.5943,-0.5843,-0.5769,-0.5689,-0.5687,-0.5767,-0.5939,-0.6201,0.0,0.0,0.0,0.0,0.0,-0.8196,-0.8513,-0.8211,-0.8728,0.0,0.0,0.0,0.0,0.0,0.0,0.0,0.0,0.0,0.0,0.0,0.0,0.0,0.0,0.0,0.0,0.0,0.0,0.0,0.0,0.0,0.0,-1.0662,-1.0409,-0.9769,-0.8949,0.0,0.0,0.0,0.0,0.0,0.0,-0.5307,0.0,0.0,-0.6375,0.0,0.0,0.0,0.0,-0.912,-0.9406,-0.9798,-1.0223,-1.0582,-1.1097,-1.1674,-1.2167,-1.2445,-1.2657,-1.2749,-1.2797,-1.3159,-1.4138,-1.435,-1.4706,-1.5659,-1.5685,-1.5557,-1.5429,-1.5531,0.0,0.0,0.0,0.0,-1.6649,-1.6716,-1.7122,-1.8037,-1.9045,-1.9795,-2.0216,-2.1059,-2.1606,-2.1807,-2.1807,-2.1807,-2.1807,-2.1807,-2.1807,-2.1797,-2.1642,-2.1073,-2.0203,-2.0203,-1.9768,-1.9108,-1.9108,-1.9616,-2.0484,-2.0933,-2.1447,-2.1981,-2.2608,-2.2358,-2.1754,-0.6287,-0.6303,-0.6227,-0.5995,-0.5888,0.0,0.0,0.0,0.0,0.0,0.0,0.0,0.0,0.0,0.0,0.0,0.0,-0.8184,-0.801,0.0,0.0,0.0,0.0,0.0,0.0,0.0,0.0,0.0,0.0,0.0,0.0,0.0,0.0,0.0,0.0,0.0,0.0,0.0,0.0,0.0,0.0,0.0,-1.0275,-1.0018,-0.9597,0.0,0.0,0.0,0.0,0.0,0.0,0.0,0.0,0.0,0.0,0.0,0.0,-0.8403,0.0,-0.9384,-0.9885,-1.0045,-1.0619,-1.1135,-1.1268,-1.1541,-1.1883,-1.2122,-1.2201,-1.2235,-1.2363,-1.2595,-1.3057,-1.3947,-1.4307,-1.4829,-1.5857,-1.5882,-1.5805,-1.5822,-1.5925,0.0,0.0,0.0,0.0,-1.6421,-1.6486,-1.6857,-1.7723,-1.9125,-1.9904,-1.9904,-2.1126,-2.1807,-2.1807,-2.1807,-2.1807,-2.1807,-2.1807,-2.1807,-2.1797,-2.1631,-2.1145,-2.0385,-2.0255,-1.9758,-1.9108,-1.9108,-1.9485,-2.0128,-2.0581,-2.0948,-2.1341,-2.2372,-2.2365,-2.1952,-0.6264,-0.6308,-0.6329,0.0,0.0,0.0,0.0,0.0,0.0,0.0,0.0,0.0,0.0,0.0,0.0,0.0,0.0,0.0,0.0,0.0,0.0,0.0,0.0,0.0,-0.8473,-0.881,0.0,0.0,0.0,0.0,0.0,0.0,0.0,0.0,0.0,0.0,0.0,0.0,0.0,0.0,0.0,0.0,-1.0024,-0.9713,0.0,0.0,0.0,0.0,0.0,0.0,0.0,0.0,0.0,0.0,0.0,0.0,0.0,-0.9552,-0.9313,-1.012,-1.1043,-1.1067,-1.1734,-1.2295,-1.19,-1.1788,-1.1815,-1.1789,-1.1763,-1.1892,0.0,0.0,-1.2757,-1.3879,-1.4101,-1.4649,-1.6175,-1.6107,-1.6122,0.0,0.0,0.0,0.0,0.0,0.0,-1.5782,0.0,-1.6995,-1.7416,-1.8997,-1.9904,-1.9904,-2.1126,-2.1807,-2.1807,-2.1807,-2.1807,-2.1807,-2.1807,-2.1797,-2.1756,-2.1311,-2.0819,-2.0369,-1.9979,-1.9533,-1.9108,-1.9108,-1.9452,-2.0063,-2.0107,-2.0484,-2.1123,-2.1803,-2.2058,-2.22,0.0,0.0,0.0,0.0,0.0,0.0,0.0,0.0,0.0,0.0,0.0,0.0,0.0,0.0,0.0,0.0,0.0,0.0,0.0,0.0,0.0,0.0,0.0,0.0,0.0,-0.8682,0.0,0.0,0.0,0.0,0.0,0.0,0.0,0.0,0.0,0.0,0.0,0.0,0.0,0.0,0.0,0.0,-0.95,0.0,0.0,0.0,0.0,0.0,0.0,0.0,0.0,0.0,0.0,0.0,-0.8452,0.0,0.0,-0.9913,-0.9941,-1.074,-1.1661,-1.1984,-1.221,-1.2295,-1.19,-1.1788,-1.1738,-1.1473,-1.1422,-1.1473,-1.1567,0.0,0.0,-1.3519,-1.4153,0.0,-1.6218,-1.6516,0.0,0.0,0.0,-1.6992,-1.634,-1.6533,0.0,0.0,-1.6789,-1.7163,-1.7813,-1.9164,-1.9904,-1.9904,-2.1126,-2.1807,-2.1807,-2.1807,-2.1807,-2.1807,-2.1807,-2.1621,-2.128,-2.1129,-2.0679,-1.9958,-1.9844,-1.9533,-1.9108,-1.9108,-1.9198,-1.9396,-1.9911,-2.0193,-2.0452,-2.1123,-2.14,-2.1614,0.0,0.0,0.0,0.0,0.0,0.0,0.0,0.0,0.0,0.0,0.0,0.0,0.0,0.0,0.0,0.0,0.0,0.0,0.0,0.0,0.0,0.0,0.0,0.0,0.0,0.0,0.0,0.0,0.0,0.0,0.0,0.0,0.0,0.0,0.0,0.0,0.0,0.0,0.0,0.0,0.0,0.0,0.0,0.0,0.0,0.0,0.0,0.0,0.0,0.0,0.0,-0.7747,-0.8502,-0.9011,-0.9319,-0.9298,0.0,-1.0769,-1.0577,-1.1412,-1.2334,-1.2267,-1.2468,-1.2552,-1.2175,-1.1934,-1.1661,-1.1148,-1.1181,0.0,0.0,0.0,0.0,0.0,0.0,0.0,-1.6139,-1.6679,-1.7,0.0,-1.7586,0.0,-1.6828,-1.6954,-1.6998,0.0,-1.7006,-1.7378,-1.7991,-1.9204,-1.9864,-1.9747,-2.1088,-2.1807,-2.1807,-2.1807,-2.1807,-2.1807,-2.1807,-2.1559,-2.1104,-2.0907,-2.0431,-1.9782,0.0,-1.9347,-1.9108,-1.9108,-1.9108,-1.9131,-1.9518,-1.9649,-1.9748,-2.042,-2.0908,-2.1249,0.0,0.0,0.0,0.0,0.0,0.0,0.0,0.0,0.0,0.0,0.0,0.0,0.0,0.0,0.0,0.0,0.0,0.0,0.0,0.0,0.0,0.0,0.0,0.0,0.0,0.0,0.0,0.0,0.0,0.0,0.0,0.0,0.0,0.0,0.0,0.0,0.0,0.0,0.0,0.0,0.0,0.0,0.0,0.0,0.0,0.0,0.0,0.0,0.0,0.0,-0.8761,-0.8158,-0.915,-0.979,-1.0205,-1.0359,-1.1034,-1.1649,-1.1199,-1.1991,-1.2833,-1.2404,-1.2639,-1.2906,-1.2475,-1.2037,-1.1541,-1.0849,0.0,0.0,-1.0303,0.0,-1.1559,-1.2338,0.0,-1.417,-1.6026,-1.6627,-1.7103,-1.7897,-1.7951,-1.7797,-1.7432,-1.7351,-1.7147,-1.6738,-1.7066,-1.7473,-1.7919,-1.9125,-1.9825,-1.9874,-2.1136,-2.1807,-2.1807,-2.1807,-2.1807,-2.1807,-2.1807,-2.1528,-2.101,-2.0607,-2.0151,-1.9679,0.0,0.0,-1.9108,-1.9108,-1.9108,-1.9108,-1.9108,-1.9164,-1.9297,-1.9879,-2.0581,-2.1206,0.0,0.0,0.0,0.0,0.0,0.0,0.0,0.0,0.0,0.0,0.0,0.0,0.0,0.0,0.0,0.0,0.0,0.0,0.0,0.0,0.0,0.0,0.0,0.0,0.0,0.0,0.0,0.0,0.0,0.0,0.0,0.0,0.0,0.0,0.0,0.0,0.0,0.0,0.0,0.0,0.0,0.0,0.0,0.0,0.0,0.0,0.0,0.0,0.0,0.0,-0.9356,-1.0025,-1.0731,-1.099,-1.0981,-1.0533,-1.0887,-1.1404,-1.1477,-1.2,-1.2637,-1.3135,-1.3135,-1.2906,-1.2475,-1.1858,0.0,0.0,0.0,-1.0371,-1.0567,-1.0976,0.0,-1.2726,0.0,0.0,0.0,0.0,-1.6841,0.0,0.0,0.0,0.0,0.0,0.0,0.0,0.0,0.0,-1.7473,-1.8718,-2.0012,-2.1377,-2.1683,-2.1807,-2.1807,-2.1807,-2.1807,-2.1807,-2.1807,-2.1362,-2.0509,-2.0426,-1.9975,-1.9222,0.0,0.0,-1.9108,-1.9108,-1.9108,-1.9108,-1.9108,-1.9419,-1.9944,-2.0074,-2.089,-2.1863,0.0,0.0,0.0,0.0,0.0,0.0,0.0,0.0,0.0,0.0,-0.8689,0.0,0.0,0.0,0.0,0.0,0.0,0.0,0.0,0.0,0.0,0.0,0.0,0.0,0.0,0.0,0.0,0.0,0.0,0.0,0.0,0.0,0.0,0.0,0.0,0.0,0.0,0.0,0.0,0.0,0.0,0.0,0.0,0.0,0.0,0.0,0.0,0.0,0.0,0.0,-0.9424,-1.064,-1.1132,-1.1301,-1.1251,-1.0964,-1.1208,-1.1566,-1.1689,-1.2203,-1.276,-1.2886,-1.28,-1.2569,-1.2192,0.0,0.0,0.0,0.0,-1.0055,-0.985,0.0,0.0,0.0,0.0,0.0,0.0,0.0,0.0,0.0,0.0,0.0,0.0,0.0,0.0,0.0,0.0,0.0,-1.6984,-1.8287,-1.9795,-2.1578,-2.154,-2.1578,-2.1807,-2.1807,-2.1807,-2.1807,-2.1559,-2.1093,-2.0385,-2.0182,-1.9741,-1.9108,-1.9108,0.0,-1.9108,-1.9108,-1.9108,-1.9108,-1.9108,-1.9297,-1.9616,-1.9977,-2.073,-2.151,0.0,0.0,0.0,0.0,0.0,0.0,0.0,-0.7431,-0.7976,-0.9334,-0.9493,-0.9375,-0.9056,-0.8626,0.0,0.0,0.0,0.0,0.0,0.0,0.0,0.0,0.0,0.0,0.0,0.0,0.0,0.0,0.0,0.0,0.0,0.0,0.0,0.0,0.0,0.0,0.0,0.0,0.0,0.0,0.0,0.0,0.0,0.0,0.0,0.0,0.0,0.0,0.0,0.0,-0.9255,-1.0525,-1.0916,-1.1164,-1.1301,-1.1301,-1.149,-1.1712,-1.1789,-1.231,-1.2812,-1.2466,-1.2389,-1.2295,-1.19,-1.1174,0.0,0.0,0.0,-0.9722,-0.9218,0.0,0.0,0.0,0.0,0.0,0.0,0.0,0.0,0.0,0.0,0.0,0.0,0.0,0.0,0.0,0.0,0.0,-1.7009,-1.8167,-1.9638,-2.1425,-2.1397,-2.1464,-2.1807,-2.1807,-2.1807,-2.1797,-2.1331,-2.0829,-2.041,-1.9965,-1.9544,-1.9108,-1.9108,0.0,0.0,-1.9108,-1.9108,-1.9108,-1.9108,-1.9198,-1.9386,-1.9954,-2.0583,-2.1094,0.0,0.0,0.0,0.0,0.0,0.0,0.0,-0.7224,-0.7976,-0.9334,-0.9493,-0.9489,-0.9458,-0.9087,0.0,0.0,0.0,0.0,0.0,0.0,0.0,0.0,0.0,0.0,0.0,0.0,0.0,0.0,0.0,0.0,0.0,0.0,0.0,0.0,0.0,0.0,0.0,0.0,0.0,0.0,0.0,0.0,0.0,0.0,0.0,0.0,0.0,0.0,0.0,0.0,0.0,-0.9769,-1.0106,-1.0711,-1.1301,-1.1301,0.0,0.0,-1.1721,-1.2105,-1.246,-1.2398,-1.2389,-1.2295,-1.19,0.0,0.0,0.0,-0.9576,-0.9192,-0.9495,0.0,0.0,0.0,0.0,0.0,0.0,0.0,0.0,0.0,0.0,0.0,0.0,0.0,0.0,0.0,0.0,0.0,0.0,-1.8868,-1.9943,-2.1464,-2.1655,-2.1769,-2.1807,-2.1807,-2.1807,-2.1797,-2.1331,-2.0829,-2.041,-1.9965,-1.9544,-1.9108,-1.9108,0.0,0.0,-1.9108,-1.9108,-1.9108,-1.9108,-1.9452,-2.0041,-2.0203,-2.071,-2.1247,0.0,0.0,0.0,0.0,0.0,0.0,0.0,-0.738,-0.8094,-0.9705,-0.9922,-0.9922,-0.9922,-0.9536,0.0,0.0,0.0,0.0,0.0,0.0,0.0,0.0,0.0,0.0,0.0,0.0,0.0,0.0,0.0,0.0,0.0,0.0,0.0,0.0,0.0,0.0,0.0,0.0,0.0,0.0,0.0,0.0,0.0,0.0,0.0,0.0,0.0,0.0,0.0,0.0,0.0,0.0,-0.9756,-1.0149,0.0,0.0,-1.1096,-1.1336,-1.1456,-1.1746,-1.1977,-1.1781,-1.1893,-1.1934,-1.1584,0.0,0.0,-1.0092,-0.9517,-0.9047,-0.9201,-0.9444,-0.9821,0.0,0.0,0.0,0.0,0.0,0.0,0.0,0.0,0.0,0.0,0.0,0.0,0.0,0.0,0.0,0.0,-1.9541,-2.0226,-2.1464,-2.1578,-2.1693,-2.1807,-2.1807,-2.1807,-2.1797,-2.1052,-2.056,-2.0364,-1.9675,-1.9285,-1.9108,-1.9108,0.0,0.0,-1.9108,-1.9108,-1.9077,-1.8797,-1.8846,-1.9137,-1.9677,-2.0056,-2.0305,0.0,0.0,0.0,0.0,0.0,0.0,-0.711,-0.7411,-0.8063,-0.9609,-0.9912,-0.9994,-0.9994,-0.9592,-0.9071,-0.8471,0.0,0.0,0.0,0.0,0.0,0.0,0.0,0.0,0.0,0.0,0.0,0.0,0.0,0.0,0.0,0.0,0.0,0.0,0.0,0.0,0.0,0.0,0.0,0.0,0.0,0.0,0.0,0.0,0.0,0.0,0.0,0.0,0.0,0.0,0.0,0.0,0.0,0.0,0.0,0.0,-1.0908,-1.1155,-1.1267,-1.155,-1.1729,-1.1396,-1.1559,-1.1712,0.0,0.0,-1.0092,-1.0092,-0.9517,-0.8996,-0.8996,-0.932,-0.9705,0.0,-1.0448,-1.1131,-1.2389,0.0,0.0,0.0,0.0,0.0,0.0,0.0,0.0,0.0,0.0,0.0,0.0,-2.045,-2.0779,-2.1464,-2.154,-2.1655,-2.1807,-2.1807,-2.1735,-2.159,-2.0767,-2.0358,-2.0203,-1.9461,-1.9108,-1.9108,0.0,0.0,0.0,-1.9108,-1.9025,-1.887,-1.8538,-1.8331,-1.8281,-1.8862,-1.9086,-1.9193,0.0,0.0,0.0,0.0,0.0,0.0,0.0,-0.7204,-0.7849,-0.8792,-0.9257,-0.9503,-0.9503,-0.9149,-0.8906,-0.8885,0.0,0.0,0.0,0.0,0.0,0.0,0.0,0.0,0.0,0.0,0.0,0.0,0.0,0.0,0.0,0.0,0.0,0.0,0.0,0.0,0.0,0.0,0.0,0.0,0.0,0.0,0.0,0.0,0.0,0.0,0.0,0.0,0.0,0.0,0.0,0.0,0.0,0.0,0.0,0.0,-1.0704,-1.0781,-1.1198,-1.155,-1.1729,-1.1396,-1.1559,-1.1712,0.0,-1.0685,-1.0092,-1.0092,-0.9517,-0.8996,-0.8996,-0.932,-0.9705,-1.0055,-1.0448,0.0,0.0,0.0,0.0,0.0,0.0,0.0,0.0,0.0,0.0,0.0,0.0,0.0,0.0,-2.1769,-2.1693,-2.1512,-2.1693,-2.1807,-2.1807,-2.1807,-2.158,-2.1114,-2.0612,-2.0193,-1.9793,-1.9316,-1.9108,0.0,0.0,0.0,0.0,-1.9108,-1.8839,-1.8414,-1.8414,-1.8112,-1.7709,-1.7865,-1.7904,-1.8012,0.0,0.0,0.0,0.0,0.0,0.0,0.0,0.0,-0.6995,-0.8263,-0.8528,-0.8834,-0.9447,-0.9149,-0.8896,-0.8896,0.0,0.0,0.0,0.0,0.0,0.0,0.0,0.0,0.0,0.0,0.0,0.0,0.0,0.0,0.0,0.0,0.0,0.0,0.0,0.0,0.0,0.0,0.0,0.0,0.0,0.0,0.0,0.0,0.0,0.0,0.0,0.0,0.0,0.0,0.0,0.0,0.0,0.0,0.0,-0.979,0.0,0.0,-1.0865,-1.096,-1.096,-1.0567,-1.0764,-1.0952,-1.0559,-1.0285,-1.0024,-0.9799,-0.9346,-0.8996,-0.8996,-0.9098,-0.9474,-1.0371,0.0,0.0,0.0,0.0,0.0,0.0,0.0,0.0,0.0,0.0,0.0,0.0,0.0,0.0,0.0,-2.0894,-2.097,-2.1672,-2.1769,-2.1807,-2.1807,-2.1807,-2.1569,-2.1104,-2.0602,-2.0193,-1.9772,-1.9316,0.0,0.0,0.0,0.0,0.0,-1.8766,-1.8735,-1.8797,-1.7833,-1.7544,-1.7698,-1.7489,-1.7431,-1.7522,0.0,0.0,0.0,0.0,0.0,0.0,0.0,0.0,-0.654,-0.7773,-0.7942,-0.828,-0.9175,-0.8891,-0.8709,-0.8885,0.0,0.0,0.0,0.0,0.0,0.0,0.0,0.0,0.0,0.0,0.0,0.0,0.0,0.0,0.0,0.0,0.0,0.0,0.0,0.0,0.0,0.0,0.0,0.0,0.0,0.0,-0.9165,0.0,0.0,0.0,0.0,0.0,0.0,0.0,0.0,0.0,0.0,0.0,0.0,0.0,-0.9918,-1.0311,0.0,-1.0482,-1.0422,-1.0152,-1.0303,-1.0414,-1.0166,-1.0012,-0.985,-0.9649,-0.9269,-0.8996,-0.8996,-0.9235,-0.9653,-1.0362,0.0,0.0,0.0,0.0,0.0,0.0,0.0,0.0,0.0,0.0,0.0,0.0,0.0,0.0,0.0,0.0,-2.0545,-2.1269,-2.128,-2.128,-2.128,-2.128,-2.1052,-2.0596,-2.0307,-1.9934,-1.9523,-1.9233,0.0,0.0,0.0,0.0,0.0,-1.8319,-1.8206,-1.8216,-1.7337,-1.7089,-1.718,-1.6981,-1.6888,-1.7,0.0,0.0,0.0,0.0,0.0,0.0,0.0,0.0,0.0,0.0,0.0,-0.7817,-0.874,-0.846,0.0,0.0,0.0,0.0,0.0,0.0,0.0,0.0,0.0,0.0,0.0,0.0,0.0,0.0,-1.0251,-1.0326,-1.0669,0.0,0.0,0.0,0.0,0.0,0.0,0.0,0.0,0.0,0.0,-0.8742,0.0,0.0,0.0,0.0,0.0,0.0,0.0,0.0,0.0,0.0,0.0,0.0,0.0,0.0,0.0,0.0,0.0,-1.0007,-1.0072,-1.0038,-1.0032,-1.0072,-1.0038,-0.9799,0.0,-0.9572,-0.9252,-0.9013,-0.9064,-0.9628,-1.0106,-1.0194,0.0,0.0,0.0,0.0,0.0,0.0,0.0,0.0,0.0,0.0,0.0,0.0,0.0,0.0,0.0,0.0,-2.0256,-2.0327,-2.0327,-2.0358,-2.0385,-2.0385,-2.0203,-1.9793,-1.9793,-1.9554,-1.9108,-1.9108,0.0,0.0,0.0,0.0,0.0,-1.7833,-1.742,-1.7028,-1.6986,-1.6738,-1.6454,-1.6423,-1.6413,-1.6534,0.0,0.0,0.0,0.0,0.0,0.0,0.0,0.0,0.0,0.0,0.0,-0.7328,-0.8263,-0.8263,0.0,0.0,0.0,0.0,0.0,0.0,0.0,0.0,0.0,0.0,0.0,0.0,0.0,-0.9461,-1.0137,-1.0525,-1.0624,-1.049,0.0,0.0,0.0,0.0,0.0,0.0,0.0,0.0,-0.8125,-0.8298,0.0,0.0,0.0,0.0,-0.7903,-0.8152,0.0,0.0,0.0,0.0,0.0,0.0,0.0,0.0,-0.8755,-0.8781,-0.8867,0.0,-0.9636,-0.9337,-0.9482,-0.9628,0.0,-0.9431,-0.9521,0.0,0.0,0.0,0.0,0.0,0.0,0.0,0.0,0.0,0.0,0.0,0.0,0.0,0.0,0.0,0.0,0.0,0.0,0.0,0.0,0.0,0.0,0.0,-1.8978,-1.9385,-1.943,-1.9727,-2.0385,-2.0385,-2.0203,-1.9793,-1.9793,-1.9554,-1.9108,-1.9108,0.0,0.0,0.0,0.0,-1.7823,-1.7368,-1.7316,-1.7471,-1.6808,-1.6684,-1.681,-1.6508,-1.6413,-1.6431,0.0,0.0,0.0,0.0,0.0,0.0,0.0,0.0,0.0,0.0,0.0,0.0,0.0,0.0,0.0,0.0,0.0,0.0,0.0,0.0,0.0,0.0,0.0,0.0,0.0,0.0,0.0,0.0,0.0,-1.0972,0.0,0.0,0.0,0.0,0.0,0.0,0.0,0.0,0.0,0.0,0.0,0.0,0.0,0.0,0.0,0.0,-0.7405,-0.7637,0.0,-0.7911,-0.8279,-0.8736,0.0,0.0,0.0,0.0,-0.8221,-0.8273,-0.8445,-0.9036,-0.9555,-0.932,-0.9431,-0.9555,-0.932,0.0,0.0,0.0,0.0,0.0,0.0,0.0,0.0,0.0,0.0,0.0,0.0,0.0,0.0,0.0,0.0,0.0,0.0,0.0,0.0,0.0,0.0,0.0,0.0,0.0,-1.8539,-1.9065,-1.9108,-1.9336,-1.9799,-1.9799,-1.9686,-1.9482,-1.9482,-1.9347,-1.9098,-1.888,-1.8652,0.0,0.0,0.0,-1.7347,-1.6893,-1.6881,-1.7067,-1.657,-1.6529,-1.6715,-1.6467,-1.6413,-1.6431,0.0,0.0,0.0,0.0,0.0,0.0,0.0,0.0,0.0,0.0,0.0,0.0,0.0,0.0,0.0,0.0,0.0,0.0,0.0,0.0,0.0,0.0,0.0,0.0,0.0,0.0,0.0,0.0,0.0,0.0,0.0,0.0,0.0,0.0,0.0,0.0,0.0,0.0,0.0,0.0,0.0,0.0,0.0,0.0,0.0,0.0,0.0,0.0,0.0,-0.7637,-0.8075,-0.849,-0.8351,0.0,0.0,0.0,0.0,0.0,-0.8368,-0.9036,-0.9606,-0.9606,-0.9649,-0.967,-0.967,0.0,0.0,0.0,0.0,0.0,0.0,0.0,0.0,0.0,0.0,0.0,0.0,0.0,0.0,0.0,0.0,0.0,0.0,0.0,0.0,0.0,0.0,0.0,0.0,0.0,0.0,-1.8975,-1.9075,-1.9108,-1.9108,-1.9108,-1.9108,-1.9108,-1.9108,-1.9108,-1.9088,-1.8621,-1.8372,0.0,0.0,0.0,-1.6882,-1.6539,-1.6413,-1.6413,-1.6413,-1.6413,-1.6413,-1.6413,-1.6413,-1.6459,0.0,0.0,0.0,0.0,0.0,0.0,0.0,0.0,0.0,0.0,0.0,0.0,0.0,0.0,0.0,0.0,0.0,0.0,0.0,0.0,0.0,0.0,0.0,0.0,0.0,0.0,0.0,0.0,0.0,0.0,-1.1239,-1.1571,-1.0798,0.0,0.0,0.0,0.0,0.0,0.0,0.0,0.0,0.0,0.0,0.0,0.0,0.0,0.0,0.0,0.0,-0.7054,-0.7654,-0.8377,-0.7706,0.0,0.0,0.0,0.0,0.0,-0.8291,-0.9039,-0.9602,-0.9606,-0.9807,-1.0007,0.0,0.0,0.0,0.0,0.0,0.0,0.0,0.0,0.0,0.0,0.0,0.0,0.0,0.0,0.0,0.0,0.0,0.0,0.0,0.0,0.0,0.0,0.0,0.0,0.0,0.0,-1.7818,-1.8405,-1.8875,-1.9108,-1.9108,-1.9108,-1.9108,-1.9108,-1.9108,-1.9108,-1.9088,-1.8621,-1.8175,0.0,0.0,-1.68,-1.6477,-1.6444,-1.6413,-1.6413,-1.6413,-1.6413,-1.6413,-1.6413,-1.6413,-1.6402,0.0,0.0,0.0,0.0,0.0,0.0,0.0,0.0,0.0,0.0,0.0,0.0,0.0,0.0,0.0,0.0,0.0,0.0,0.0,0.0,0.0,0.0,0.0,0.0,0.0,0.0,0.0,0.0,0.0,-1.1995,-1.1846,-1.1453,-1.0401,-0.8875,0.0,0.0,0.0,0.0,0.0,0.0,0.0,0.0,0.0,0.0,0.0,0.0,0.0,0.0,0.0,0.0,-0.7568,-0.8075,-0.7492,0.0,0.0,0.0,0.0,0.0,-0.7963,-0.8718,-0.9367,-0.9764,-1.0157,-1.0431,0.0,0.0,0.0,0.0,0.0,0.0,0.0,0.0,0.0,0.0,0.0,0.0,0.0,0.0,0.0,0.0,0.0,0.0,0.0,0.0,0.0,0.0,0.0,0.0,0.0,0.0,-1.8168,-1.8697,-1.8965,-1.9108,-1.9108,-1.8849,-1.8735,-1.8735,-1.8735,-1.8578,-1.833,-1.7864,-1.7523,-1.7306,0.0,-1.657,-1.6413,-1.6413,-1.6413,-1.6413,-1.6413,-1.6413,-1.6413,-1.6413,-1.6413,-1.6413,0.0,0.0,0.0,0.0,0.0,0.0,0.0,0.0,0.0,0.0,0.0,0.0,0.0,0.0,0.0,0.0,0.0,0.0,0.0,0.0,0.0,0.0,0.0,0.0,0.0,0.0,0.0,-1.0994,-1.1815,-1.2243,-1.2287,-1.106,-0.994,0.0,0.0,0.0,0.0,0.0,0.0,0.0,0.0,0.0,0.0,0.0,0.0,0.0,0.0,0.0,0.0,0.0,0.0,0.0,0.0,0.0,0.0,-0.6994,-0.6796,-0.6968,-0.7697,-0.8382,-0.9067,-0.9799,0.0,-1.0747,0.0,0.0,0.0,0.0,0.0,0.0,0.0,0.0,0.0,0.0,0.0,0.0,0.0,0.0,0.0,0.0,0.0,0.0,0.0,0.0,0.0,0.0,0.0,0.0,0.0,0.0,-1.7995,-1.8415,-1.8656,-1.8754,-1.8754,-1.8402,-1.8278,-1.8414,-1.8278,-1.8061,-1.7688,-1.7223,-1.7017,-1.6986,-1.657,-1.6413,-1.6413,-1.6413,-1.6413,-1.6413,-1.6413,-1.6413,-1.6413,-1.6413,-1.6413,-1.6413,0.0,0.0,0.0,0.0,0.0,0.0,0.0,0.0,0.0,0.0,0.0,0.0,0.0,0.0,0.0,0.0,0.0,0.0,0.0,0.0,0.0,0.0,0.0,0.0,0.0,-1.02,-1.0479,-1.0913,-1.1397,-1.1694,-1.1726,-1.0455,-0.9656,0.0,0.0,0.0,0.0,0.0,0.0,0.0,-0.6902,0.0,0.0,0.0,0.0,0.0,0.0,0.0,0.0,0.0,0.0,0.0,0.0,0.0,-0.7278,-0.6908,-0.6796,-0.6968,-0.7697,-0.8203,-0.8712,-0.9452,0.0,0.0,0.0,0.0,0.0,0.0,0.0,0.0,0.0,0.0,0.0,0.0,0.0,0.0,0.0,0.0,0.0,0.0,0.0,0.0,0.0,0.0,0.0,0.0,0.0,0.0,0.0,0.0,0.0,-1.6405,-1.7312,-1.7802,-1.7802,-1.7771,-1.7978,-1.8403,-1.7968,-1.773,-1.7688,-1.7223,-1.7017,-1.6986,-1.657,-1.6413,-1.6413,-1.6413,-1.6413,-1.6413,-1.6413,-1.6413,-1.6413,-1.6413,-1.6413,-1.6413,0.0,0.0,0.0,0.0,0.0,0.0,0.0,0.0,0.0,0.0,0.0,0.0,0.0,0.0,0.0,0.0,0.0,0.0,0.0,0.0,0.0,0.0,0.0,-0.933,-0.9757,-1.0611,-1.1147,-1.1343,-1.1799,-1.1941,-1.1727,-1.0674,0.0,0.0,0.0,0.0,0.0,0.0,0.0,0.0,-0.7223,-0.7169,0.0,0.0,0.0,0.0,0.0,0.0,0.0,0.0,-0.7454,0.0,0.0,0.0,0.0,0.0,-0.6796,-0.6908,-0.7397,-0.8151,-0.893,-0.9469,0.0,0.0,0.0,0.0,0.0,0.0,0.0,0.0,0.0,0.0,0.0,0.0,0.0,0.0,0.0,0.0,0.0,0.0,0.0,0.0,0.0,0.0,0.0,0.0,0.0,0.0,0.0,0.0,0.0,-1.668,-1.7066,-1.7399,-1.7699,-1.742,-1.7358,-1.7513,-1.7358,-1.713,-1.6881,-1.6705,-1.6632,-1.6622,-1.6485,-1.6413,-1.6413,-1.6413,-1.6413,-1.6413,-1.6413,-1.6413,-1.6413,-1.6413,-1.6413,-1.6413,0.0,0.0,0.0,0.0,0.0,0.0,0.0,0.0,0.0,0.0,0.0,0.0,0.0,0.0,0.0,0.0,0.0,0.0,0.0,0.0,0.0,0.0,0.0,-0.9025,-0.9309,-1.0381,-1.1002,-1.1147,-1.1488,-1.1439,-1.1045,0.0,0.0,0.0,0.0,0.0,0.0,0.0,0.0,0.0,-0.753,-0.75,0.0,0.0,0.0,0.0,0.0,0.0,0.0,0.0,-0.7655,0.0,0.0,0.0,0.0,0.0,0.0,-0.7296,-0.7523,-0.8368,-0.9252,0.0,0.0,0.0,0.0,0.0,0.0,0.0,0.0,0.0,0.0,0.0,0.0,0.0,0.0,0.0,0.0,0.0,0.0,0.0,0.0,0.0,0.0,0.0,0.0,0.0,0.0,0.0,0.0,0.0,0.0,0.0,-1.6504,-1.6819,-1.7275,-1.6955,-1.68,-1.68,-1.68,-1.6674,-1.6413,-1.6413,-1.6413,-1.6413,-1.6413,-1.6413,-1.6413,-1.6413,-1.6413,-1.6413,-1.6413,-1.6413,-1.6413,-1.6413,-1.6413,-1.6413,0.0,0.0,0.0,0.0,0.0,0.0,0.0,0.0,0.0,0.0,0.0,0.0,0.0,0.0,0.0,0.0,0.0,0.0,0.0,0.0,0.0,0.0,0.0,-0.8885,-0.8885,-0.9288,-0.9726,-1.019,-1.02,-0.9963,-0.9503,0.0,0.0,0.0,0.0,0.0,0.0,0.0,0.0,0.0,0.0,-0.7739,-0.7792,0.0,0.0,0.0,0.0,0.0,0.0,0.0,-0.7505,-0.7505,0.0,0.0,0.0,0.0,-0.7828,-0.8201,-0.8193,-0.888,0.0,0.0,0.0,0.0,0.0,0.0,0.0,0.0,0.0,0.0,0.0,0.0,0.0,0.0,0.0,0.0,0.0,0.0,0.0,0.0,0.0,0.0,0.0,0.0,0.0,0.0,0.0,0.0,0.0,0.0,0.0,0.0,-1.543,-1.5943,-1.6413,-1.6413,-1.6413,-1.6413,-1.6402,-1.6402,-1.6413,-1.6413,-1.6413,-1.6413,-1.6413,-1.6413,-1.6413,-1.6402,-1.6402,-1.6392,-1.6392,-1.6392,-1.6402,-1.6402,-1.6402,-1.6413,0.0,0.0,0.0,0.0,0.0,0.0,0.0,0.0,0.0,0.0,0.0,0.0,0.0,0.0,0.0,0.0,0.0,0.0,0.0,0.0,0.0,0.0,0.0,0.0,0.0,0.0,-0.9278,-0.9716,-1.0046,-1.0128,0.0,0.0,0.0,-0.9685,0.0,0.0,0.0,0.0,0.0,0.0,0.0,-0.8031,-0.8227,0.0,0.0,0.0,0.0,0.0,0.0,0.0,0.0,0.0,0.0,0.0,0.0,0.0,-0.8096,-0.8622,-0.8019,0.0,0.0,0.0,0.0,0.0,0.0,0.0,0.0,0.0,0.0,0.0,0.0,0.0,0.0,0.0,0.0,0.0,0.0,0.0,0.0,0.0,0.0,0.0,0.0,0.0,0.0,0.0,0.0,0.0,0.0,0.0,0.0,0.0,-1.543,-1.5943,-1.6413,-1.6413,-1.6413,-1.6402,-1.6081,-1.6091,-1.6413,-1.6413,-1.6413,-1.6413,-1.6413,-1.6413,-1.6381,-1.6022,-1.5701,-1.5411,-1.5411,-1.5608,-1.5925,-1.5925,-1.6122,-1.6413,0.0,0.0,0.0,0.0,0.0,0.0,0.0,0.0,0.0,0.0,0.0,0.0,0.0,0.0,0.0,0.0,0.0,0.0,0.0,0.0,0.0,0.0,0.0,0.0,0.0,-0.8752,-0.8973,0.0,0.0,0.0,0.0,0.0,0.0,-0.9876,0.0,0.0,0.0,0.0,0.0,0.0,0.0,-0.8417,-0.8565,0.0,0.0,0.0,0.0,0.0,0.0,0.0,0.0,0.0,0.0,0.0,0.0,-0.8391,-0.8877,-0.9451,-0.9133,0.0,0.0,0.0,0.0,0.0,0.0,0.0,0.0,0.0,0.0,0.0,0.0,0.0,0.0,0.0,0.0,0.0,0.0,0.0,0.0,0.0,0.0,0.0,0.0,0.0,0.0,0.0,0.0,0.0,0.0,0.0,0.0,0.0,-1.5108,-1.5517,-1.5817,-1.6202,-1.6205,-1.5841,-1.5732,-1.5742,-1.5835,-1.5835,-1.5835,-1.5835,-1.5835,-1.5835,-1.5804,-1.5535,-1.5245,-1.4997,-1.4997,-1.5163,-1.5411,-1.5411,-1.5587,-1.5835,0.0,0.0,-0.6548,-0.7316,0.0,0.0,0.0,0.0,0.0,0.0,0.0,-0.8833,0.0,0.0,0.0,-0.8538,0.0,0.0,0.0,0.0,0.0,0.0,0.0,0.0,0.0,0.0,0.0,0.0,0.0,0.0,0.0,0.0,-0.9789,-1.0308,0.0,0.0,0.0,0.0,0.0,0.0,0.0,-0.8803,-0.8816,-0.8803,0.0,0.0,0.0,0.0,0.0,0.0,0.0,0.0,0.0,0.0,0.0,-0.9169,-0.984,-1.0449,0.0,0.0,0.0,0.0,0.0,0.0,0.0,0.0,0.0,0.0,0.0,0.0,0.0,0.0,0.0,0.0,0.0,0.0,0.0,0.0,0.0,0.0,0.0,0.0,0.0,0.0,0.0,0.0,0.0,0.0,0.0,0.0,0.0,0.0,-1.4619,-1.4865,-1.4865,-1.5774,-1.5779,0.0,-1.5359,-1.5339,-1.4935,-1.4976,-1.4997,-1.4997,-1.4997,-1.4976,-1.4935,-1.4935,-1.4914,-1.4873,-1.4873,-1.4894,-1.4935,-1.4935,-1.4956,-1.4997,0.0,0.0,-0.8024,-0.8405,0.0,0.0,0.0,0.0,0.0,-0.9357,-0.8872,-0.8501,-0.8489,-0.7896,0.0,-0.8017,-0.7487,0.0,0.0,0.0,0.0,0.0,0.0,0.0,0.0,0.0,0.0,0.0,0.0,0.0,0.0,0.0,0.0,0.0,0.0,0.0,0.0,0.0,0.0,0.0,-0.8869,-0.8896,-0.9015,-0.8869,-0.8717,0.0,0.0,0.0,0.0,0.0,0.0,0.0,-0.8201,-0.8673,-0.9117,-0.8617,-0.9631,0.0,0.0,0.0,0.0,0.0,0.0,0.0,0.0,0.0,0.0,0.0,0.0,0.0,0.0,0.0,0.0,0.0,0.0,0.0,0.0,0.0,0.0,0.0,0.0,0.0,0.0,0.0,0.0,0.0,0.0,0.0,0.0,0.0,0.0,-1.4181,-1.4408,-1.4516,-1.4516,-1.4708,-1.4743,0.0,-1.4588,-1.4552,-1.4469,-1.4831,-1.4997,-1.4997,-1.4997,-1.479,-1.4459,-1.4459,-1.4242,-1.391,-1.391,-1.4138,-1.4459,-1.4459,-1.4687,-1.4997,0.0,0.0,0.0,0.0,0.0,0.0,0.0,0.0,-0.9441,-0.9583,-0.9044,-0.8573,-0.8364,-0.7662,0.0,0.0,-0.7172,-0.7127,0.0,0.0,0.0,0.0,0.0,0.0,0.0,0.0,0.0,0.0,0.0,0.0,0.0,0.0,0.0,0.0,0.0,0.0,0.0,0.0,0.0,-0.9081,-0.8987,-0.9001,-0.9081,-0.8987,-0.8839,-0.8676,-0.8547,0.0,0.0,0.0,0.0,0.0,0.0,0.0,-0.8875,-0.8834,-0.9695,-1.0682,0.0,0.0,0.0,0.0,0.0,0.0,0.0,0.0,0.0,0.0,0.0,0.0,0.0,0.0,0.0,0.0,0.0,0.0,0.0,0.0,0.0,0.0,0.0,0.0,0.0,0.0,0.0,0.0,0.0,0.0,0.0,-1.3048,-1.3238,-1.3615,-1.3914,-1.4051,-1.4033,-1.4463,-1.4445,-1.4027,-1.4216,-1.419,-1.3958,-1.4221,-1.4335,-1.4335,-1.4335,-1.42,-1.3948,-1.3948,-1.3814,-1.3597,-1.3597,-1.3765,-1.3948,-1.3948,-1.4128,-1.4335,0.0,0.0,0.0,0.0,0.0,0.0,0.0,0.0,0.0,-0.9739,-0.9256,-0.873,-0.8284,-0.7551,-0.71,0.0,0.0,0.0,-0.7162,0.0,0.0,0.0,0.0,0.0,0.0,0.0,0.0,0.0,0.0,0.0,0.0,0.0,0.0,0.0,0.0,0.0,0.0,0.0,0.0,-0.9106,-0.9106,-0.9106,-0.9106,-0.9067,-0.8949,-0.8775,-0.8645,-0.8519,-0.8393,-0.8276,0.0,0.0,0.0,0.0,-0.8342,-0.9056,-0.9654,-1.0252,0.0,0.0,0.0,0.0,0.0,0.0,0.0,0.0,0.0,0.0,0.0,0.0,0.0,0.0,0.0,0.0,0.0,0.0,0.0,0.0,0.0,0.0,0.0,0.0,0.0,0.0,0.0,0.0,0.0,0.0,-1.2381,-1.2329,-1.2486,-1.2885,-1.3222,-1.3356,-1.3284,-1.4139,-1.4179,-1.3404,-1.3931,-1.3983,-1.3597,-1.3597,-1.3597,-1.3597,-1.3597,-1.3597,-1.3597,-1.3597,-1.3597,-1.3597,-1.3597,-1.3597,-1.3597,-1.3597,-1.3597,-1.3597,0.0,0.0,0.0,0.0,0.0,0.0,0.0,0.0,0.0,0.0,0.0,-0.8655,-0.8025,-0.7145,-0.6617,-0.668,-0.6142,-0.6168,0.0,0.0,0.0,0.0,0.0,0.0,0.0,0.0,0.0,0.0,0.0,0.0,0.0,0.0,0.0,0.0,0.0,0.0,0.0,0.0,0.0,-0.9106,-0.9106,-0.9106,-0.9081,-0.8896,-0.8816,-0.8775,-0.8645,-0.8519,-0.8396,-0.8368,-0.8305,0.0,0.0,0.0,0.0,0.0,0.0,0.0,0.0,0.0,0.0,0.0,0.0,0.0,0.0,0.0,0.0,0.0,0.0,0.0,0.0,0.0,0.0,0.0,0.0,0.0,0.0,0.0,0.0,0.0,0.0,0.0,0.0,0.0,0.0,0.0,0.0,0.0,-1.2355,-1.2062,-1.2064,-1.2464,-1.2189,-1.2043,-1.2051,-1.2568,-1.2761,-1.2654,-1.3353,-1.3659,-1.3597,-1.3597,-1.3597,-1.3597,-1.3597,-1.3597,-1.3597,-1.3597,-1.3597,-1.3597,-1.3597,-1.3597,-1.3597,-1.3597,-1.3597,-1.3597,0.0,0.0,0.0,0.0,0.0,0.0,0.0,0.0,0.0,0.0,0.0,-0.8705,-0.8181,-0.7224,-0.6634,-0.6705,-0.6136,0.0,0.0,0.0,0.0,0.0,0.0,0.0,0.0,0.0,0.0,0.0,0.0,0.0,0.0,-1.034,-1.0821,0.0,0.0,0.0,0.0,0.0,0.0,-0.9106,-0.9106,-0.9439,0.0,0.0,-0.9315,-0.972,0.0,0.0,0.0,-0.8425,0.0,0.0,0.0,0.0,0.0,0.0,0.0,0.0,0.0,0.0,0.0,0.0,0.0,0.0,0.0,0.0,0.0,0.0,0.0,0.0,0.0,0.0,0.0,0.0,0.0,0.0,0.0,0.0,0.0,0.0,0.0,0.0,0.0,0.0,0.0,0.0,0.0,-1.1447,-1.1773,-1.161,-1.1696,-1.2105,-1.1946,-1.1961,-1.219,-1.2392,-1.2593,-1.2793,-1.3098,-1.3386,-1.3597,-1.3597,-1.3597,-1.3597,-1.3597,-1.3597,-1.3597,-1.3597,-1.3597,-1.3597,-1.3597,-1.3597,-1.3597,-1.3597,-1.3597,-1.3597,0.0,0.0,0.0,0.0,0.0,0.0,0.0,0.0,0.0,0.0,0.0,-0.873,-0.8338,0.0,0.0,0.0,-0.6251,0.0,0.0,0.0,0.0,0.0,0.0,0.0,0.0,0.0,0.0,0.0,0.0,0.0,-1.0742,-1.0775,-1.1859,0.0,-1.2597,0.0,0.0,0.0,0.0,-0.9485,-0.9485,-0.9889,-1.0444,-0.9943,-1.0196,-1.0652,0.0,0.0,0.0,0.0,0.0,0.0,0.0,0.0,0.0,0.0,0.0,0.0,0.0,0.0,0.0,0.0,0.0,0.0,0.0,0.0,0.0,0.0,0.0,0.0,0.0,0.0,0.0,0.0,0.0,0.0,0.0,0.0,0.0,0.0,0.0,0.0,0.0,0.0,0.0,0.0,0.0,-1.1301,-1.1301,-1.1301,-1.1452,-1.1753,-1.1753,-1.1902,-1.22,-1.2406,-1.273,-1.316,-1.316,-1.3314,-1.3597,-1.3597,-1.3597,-1.3597,-1.3597,-1.3597,-1.3597,-1.3597,-1.3597,-1.3597,-1.3597,-1.3597,-1.3597,-1.3597,-1.3597,-1.3597,0.0,0.0,0.0,0.0,0.0,0.0,0.0,0.0,0.0,0.0,0.0,-0.867,-0.8338,-0.7747,-0.7203,-0.6834,-0.6251,0.0,0.0,0.0,0.0,0.0,0.0,0.0,0.0,0.0,0.0,0.0,0.0,0.0,-1.0622,-1.1062,-1.2368,-1.4304,-1.3302,-1.2272,-1.1268,0.0,0.0,0.0,-1.0527,-1.0396,-1.031,-1.1233,-1.1483,-1.1226,0.0,0.0,0.0,0.0,0.0,0.0,0.0,0.0,0.0,0.0,0.0,0.0,0.0,0.0,0.0,0.0,0.0,0.0,0.0,0.0,0.0,0.0,0.0,0.0,0.0,0.0,0.0,0.0,0.0,0.0,0.0,0.0,0.0,0.0,0.0,0.0,0.0,0.0,0.0,0.0,0.0,-1.1301,-1.1301,-1.1301,-1.1301,-1.1318,-1.1318,-1.1352,-1.1352,-1.2126,-1.2861,-1.3573,-1.3573,-1.3586,-1.3597,-1.3597,-1.3597,-1.3597,-1.3597,-1.3597,-1.3597,-1.3597,-1.3597,-1.3597,-1.3597,-1.3597,-1.3597,-1.3597,-1.3597,-1.3597,0.0,0.0,0.0,0.0,0.0,0.0,0.0,0.0,0.0,0.0,0.0,0.0,0.0,-0.8086,-0.7502,-0.6977,0.0,0.0,0.0,0.0,0.0,0.0,0.0,0.0,0.0,0.0,0.0,0.0,0.0,-0.769,-1.014,-0.9968,-1.0884,-1.2649,-1.2461,-1.236,-1.2256,-1.109,0.0,0.0,0.0,0.0,0.0,0.0,-1.1864,-1.2229,0.0,0.0,0.0,0.0,0.0,0.0,0.0,0.0,-0.7742,0.0,0.0,0.0,0.0,0.0,0.0,0.0,0.0,0.0,0.0,0.0,0.0,0.0,0.0,0.0,0.0,0.0,0.0,0.0,0.0,0.0,0.0,0.0,0.0,0.0,0.0,0.0,0.0,0.0,0.0,0.0,0.0,0.0,-1.1301,-1.1301,-1.1301,-1.1301,-1.1301,-1.1301,-1.1301,-1.1603,-1.1993,-1.2501,-1.2779,-1.3021,-1.3218,-1.3491,-1.3597,-1.3597,-1.3338,-1.3362,-1.3597,-1.3597,-1.3597,-1.3597,-1.3597,-1.3597,-1.3597,-1.3597,-1.3597,-1.3597,0.0,0.0,0.0,-1.0299,0.0,-0.9987,-0.9046,0.0,0.0,0.0,0.0,0.0,0.0,0.0,0.0,0.0,0.0,0.0,0.0,0.0,0.0,0.0,0.0,0.0,0.0,0.0,0.0,0.0,0.0,0.0,0.0,0.0,-0.9747,-1.1371,-1.0993,0.0,0.0,0.0,0.0,-1.113,0.0,0.0,-1.2497,0.0,0.0,0.0,0.0,0.0,0.0,0.0,0.0,0.0,0.0,-0.8218,-0.77,-0.7545,0.0,0.0,0.0,0.0,0.0,0.0,0.0,0.0,0.0,0.0,0.0,0.0,0.0,0.0,0.0,0.0,0.0,0.0,0.0,0.0,0.0,0.0,0.0,0.0,0.0,0.0,0.0,0.0,0.0,0.0,0.0,0.0,-1.1301,-1.1301,-1.1301,-1.1301,-1.1301,-1.1352,-1.1502,-1.1502,-1.1703,-1.2101,-1.2372,-1.2618,-1.2832,-1.3118,-1.3238,-1.3214,-1.2939,-1.3132,-1.3597,-1.3443,-1.3491,-1.3597,-1.3597,-1.3597,-1.3597,-1.3597,-1.3597,-1.3597,-1.0299,-1.0299,-1.0299,-1.0299,-1.0299,-1.0129,-0.959,-0.9498,0.0,0.0,0.0,0.0,0.0,0.0,0.0,0.0,0.0,0.0,0.0,0.0,0.0,0.0,0.0,0.0,0.0,0.0,0.0,0.0,0.0,0.0,0.0,0.0,-0.9153,0.0,-0.9035,-0.9692,-1.2026,0.0,-1.2038,-1.2112,0.0,-1.2505,-1.2667,0.0,0.0,0.0,-1.2967,-1.251,0.0,0.0,0.0,0.0,0.0,0.0,-0.8097,-0.7628,0.0,0.0,0.0,0.0,0.0,0.0,0.0,0.0,0.0,0.0,0.0,0.0,0.0,0.0,0.0,0.0,0.0,0.0,0.0,0.0,0.0,0.0,0.0,0.0,0.0,0.0,0.0,0.0,0.0,0.0,0.0,-1.1301,-1.1301,-1.1301,-1.1301,-1.1301,-1.1301,-1.1502,-1.1877,-1.1877,-1.2076,-1.2455,-1.248,-1.248,-1.248,-1.2505,-1.2505,-1.2505,-1.248,-1.291,-1.3549,-1.3146,-1.3218,-1.3573,-1.3573,-1.3573,-1.3586,-1.3586,-1.3597,-1.3597,-1.0299,-1.0299,-1.0299,-1.0299,-1.0299,-1.0129,-0.959,-0.9498,0.0,0.0,0.0,0.0,0.0,0.0,0.0,0.0,0.0,0.0,0.0,0.0,0.0,0.0,0.0,0.0,0.0,0.0,0.0,0.0,0.0,0.0,0.0,0.0,0.0,0.0,-0.8612,-0.9106,-1.0412,-1.0072,0.0,0.0,-1.1968,-1.2479,0.0,0.0,0.0,0.0,0.0,-1.3076,0.0,0.0,-1.1623,-1.0466,0.0,0.0,0.0,-0.7535,0.0,0.0,-0.8294,0.0,0.0,0.0,0.0,0.0,0.0,0.0,0.0,0.0,0.0,0.0,0.0,0.0,0.0,0.0,0.0,0.0,0.0,0.0,0.0,0.0,0.0,0.0,0.0,0.0,0.0,0.0,-1.1301,-1.1301,-1.1301,-1.1301,-1.1301,-1.1301,-1.1301,-1.1343,-1.1452,-1.1477,-1.1528,-1.1653,-1.1927,-1.2076,-1.2076,-1.2382,-1.2505,-1.248,-1.22,-1.2348,-1.2813,-1.2691,-1.2715,-1.2813,-1.2813,-1.2939,-1.317,-1.317,-1.3338,-1.3597,-1.0299,-1.0299,-1.0299,-1.0299,-1.0299,-1.0195,-0.988,0.0,0.0,0.0,0.0,0.0,0.0,0.0,0.0,0.0,0.0,0.0,0.0,0.0,0.0,0.0,0.0,0.0,0.0,0.0,0.0,0.0,0.0,0.0,0.0,0.0,0.0,0.0,0.0,-0.8096,-0.9138,0.0,0.0,0.0,-1.2079,0.0,0.0,-1.3503,-1.3615,0.0,0.0,0.0,-1.3194,-1.3194,-1.2295,0.0,0.0,0.0,-0.8266,-0.7897,0.0,0.0,0.0,0.0,0.0,0.0,0.0,0.0,0.0,0.0,0.0,0.0,0.0,0.0,0.0,0.0,0.0,0.0,0.0,0.0,0.0,0.0,0.0,0.0,0.0,0.0,0.0,0.0,0.0,-1.1603,-1.1393,-1.1301,-1.1301,-1.1301,-1.1301,-1.1301,-1.1301,-1.1301,-1.1301,-1.1301,-1.1301,-1.1301,-1.1553,-1.1653,-1.1653,-1.1902,-1.2002,-1.1977,-1.1744,-1.1778,-1.2002,-1.2002,-1.2264,-1.273,-1.29,-1.3084,-1.3266,-1.3266,-1.3396,-1.3597,0.0,-1.0312,-1.0299,-1.0299,-1.0299,-1.0299,-1.0299,0.0,0.0,0.0,0.0,0.0,0.0,0.0,0.0,0.0,0.0,0.0,0.0,0.0,0.0,0.0,0.0,-0.701,0.0,0.0,0.0,0.0,0.0,0.0,0.0,0.0,0.0,0.0,-0.6544,-0.6985,-0.8117,-0.7876,0.0,-1.1263,-1.2274,-1.2905,0.0,0.0,-1.392,0.0,-1.3973,-1.3797,-1.3586,-1.3535,-1.2699,0.0,0.0,-0.9664,-0.9478,-0.8611,-0.8968,0.0,0.0,0.0,0.0,0.0,0.0,0.0,-1.0435,-1.0386,0.0,0.0,0.0,0.0,0.0,0.0,0.0,0.0,0.0,0.0,0.0,0.0,0.0,0.0,0.0,0.0,0.0,-1.273,-1.2397,-1.2002,-1.1594,-1.1352,-1.1301,-1.1301,-1.1301,-1.1301,-1.1301,-1.1301,-1.1301,-1.1301,-1.1301,-1.1301,-1.1301,-1.1301,-1.1301,-1.1301,-1.1301,-1.1301,-1.1301,-1.1301,-1.1301,-1.1352,-1.1959,-1.2919,-1.3276,-1.3467,-1.3539,-1.3539,-1.3563,-1.3597,-1.0621,-1.0449,-1.0299,-1.0299,-1.0299,-1.0299,0.0,0.0,0.0,0.0,0.0,0.0,0.0,0.0,0.0,0.0,0.0,0.0,0.0,0.0,0.0,0.0,-0.6508,-0.6781,0.0,0.0,0.0,0.0,0.0,0.0,0.0,0.0,0.0,0.0,-0.6409,-0.6598,-0.7164,-0.8312,0.0,-1.047,-1.1102,0.0,-1.3521,-1.3405,-1.3474,-1.3692,-1.3692,-1.3644,-1.3535,0.0,-1.2648,-1.1975,0.0,0.0,0.0,0.0,0.0,-1.0458,0.0,-1.0056,-1.0458,0.0,0.0,0.0,0.0,-0.9464,0.0,0.0,0.0,0.0,0.0,0.0,0.0,0.0,0.0,0.0,0.0,0.0,0.0,0.0,0.0,0.0,0.0,-1.2943,-1.2769,-1.2397,-1.2002,-1.1653,-1.1326,-1.1301,-1.1301,-1.1301,-1.1301,-1.1301,-1.1301,-1.1301,-1.1301,-1.1301,-1.1301,-1.1301,-1.1301,-1.1301,-1.1301,-1.1301,-1.1301,-1.1301,-1.1326,-1.1653,-1.1918,-1.2116,-1.219,-1.2589,-1.3112,-1.3112,-1.3314,-1.3597,-1.0729,-1.0597,-1.0461,-1.0312,-1.0299,-1.0299,0.0,0.0,0.0,0.0,0.0,0.0,0.0,0.0,0.0,0.0,0.0,0.0,0.0,0.0,0.0,0.0,-0.6643,-0.6714,-0.7191,0.0,0.0,0.0,0.0,0.0,0.0,0.0,0.0,0.0,0.0,0.0,0.0,0.0,-0.9354,-1.049,-1.1527,0.0,-1.3407,-1.3392,-1.3484,-1.3597,-1.3597,-1.3597,-1.3524,-1.306,-1.2627,0.0,0.0,-1.125,-1.1116,0.0,-1.0694,-1.1095,0.0,0.0,-1.0797,-1.0314,0.0,0.0,0.0,0.0,0.0,0.0,0.0,0.0,0.0,0.0,0.0,0.0,0.0,0.0,0.0,0.0,0.0,0.0,0.0,0.0,0.0,-1.2473,-1.2138,-1.1603,-1.1368,-1.1172,-1.101,-1.1002,-1.1002,-1.1002,-1.1002,-1.1002,-1.1002,-1.1002,-1.1096,-1.1301,-1.1301,-1.1301,-1.1301,-1.1301,-1.1301,-1.1301,-1.1301,-1.1301,-1.1326,-1.1528,-1.1728,-1.1927,-1.2126,-1.2446,-1.2745,-1.2745,-1.2977,-1.329,-1.0837,-1.0741,-1.0621,-1.0349,-1.0299,0.0,0.0,0.0,0.0,0.0,0.0,0.0,0.0,0.0,0.0,0.0,0.0,0.0,0.0,0.0,0.0,0.0,-0.7019,-0.6917,-0.7279,0.0,0.0,0.0,0.0,0.0,0.0,0.0,0.0,0.0,0.0,0.0,0.0,0.0,0.0,-1.0866,0.0,-1.285,-1.3051,-1.3384,-1.351,-1.3473,-1.3566,-1.3597,-1.3524,-1.306,0.0,-1.2317,-1.1768,-1.1716,0.0,0.0,0.0,0.0,0.0,0.0,0.0,0.0,0.0,-1.0726,0.0,0.0,0.0,-1.1094,0.0,0.0,0.0,0.0,0.0,0.0,0.0,0.0,0.0,0.0,0.0,0.0,0.0,0.0,0.0,-1.1914,-1.1409,-1.0762,-1.0632,-1.0588,-1.0591,-1.0584,-1.0584,-1.0584,-1.0584,-1.0584,-1.0584,-1.0584,-1.0762,-1.1078,-1.1155,-1.119,-1.1198,-1.1267,-1.1301,-1.1301,-1.1301,-1.1301,-1.1301,-1.1301,-1.1494,-1.1828,-1.2224,-1.2397,-1.2387,-1.2387,-1.254,-1.274,-1.1143,-1.0861,-1.0621,-1.0349,0.0,0.0,0.0,0.0,0.0,0.0,0.0,0.0,0.0,0.0,0.0,0.0,0.0,0.0,-1.1004,0.0,0.0,0.0,-0.7878,-0.7593,-0.7649,-0.7667,0.0,0.0,0.0,0.0,0.0,0.0,-0.7025,-0.7263,-0.7529,0.0,0.0,0.0,-1.0117,0.0,-1.1938,-1.2251,0.0,-1.3009,-1.3135,-1.3029,-1.3442,-1.3597,-1.3524,0.0,-1.2863,-1.2699,0.0,-1.212,0.0,0.0,0.0,0.0,0.0,0.0,0.0,0.0,-1.1758,0.0,0.0,0.0,-1.0603,-0.9891,0.0,0.0,0.0,0.0,0.0,0.0,0.0,0.0,0.0,0.0,0.0,0.0,0.0,0.0,0.0,0.0,-1.1478,-1.1151,-1.0744,-1.0416,-1.018,-1.016,-1.016,-1.016,-1.016,-1.016,-1.016,-1.016,-1.0177,-1.0243,-1.0593,-1.0764,-1.0772,-1.1147,-1.1301,-1.1301,-1.1301,-1.1301,-1.1301,-1.1301,-1.1326,-1.1402,-1.1794,-1.1999,-1.207,-1.207,-1.1938,-1.1789,-1.119,-1.1003,-1.0801,-1.0362,0.0,0.0,0.0,0.0,0.0,0.0,0.0,0.0,0.0,0.0,0.0,0.0,0.0,-1.2398,0.0,0.0,0.0,0.0,-0.8902,-0.8226,-0.8226,0.0,0.0,0.0,-0.7384,0.0,0.0,0.0,-0.7611,-0.8077,-0.8453,0.0,-0.9875,0.0,0.0,0.0,0.0,0.0,0.0,-1.2982,-1.3367,-1.3328,-1.3524,-1.3597,-1.3524,0.0,-1.2729,0.0,0.0,0.0,0.0,0.0,0.0,0.0,0.0,0.0,0.0,0.0,0.0,0.0,0.0,0.0,-1.0869,0.0,0.0,0.0,0.0,0.0,0.0,0.0,0.0,0.0,0.0,0.0,0.0,0.0,0.0,0.0,0.0,0.0,0.0,0.0,0.0,-0.9809,-0.9817,-0.9807,-0.9807,-0.9807,-0.9807,-0.9807,-0.9807,-0.9807,-0.991,-1.0092,-1.0277,-1.0482,-1.0704,-1.0858,-1.1071,-1.1301,-1.1301,-1.1301,-1.1301,-1.1301,-1.1301,-1.1301,-1.1318,-1.1435,-1.1626,-1.185,-1.2024,-1.2172,-1.1256,0.0,0.0,0.0,0.0,0.0,-1.0635,-1.173,-1.2466,0.0,0.0,0.0,-1.4781,-1.4337,0.0,0.0,0.0,-1.3588,0.0,0.0,-1.1158,-1.1561,-0.9974,0.0,0.0,0.0,0.0,0.0,0.0,0.0,0.0,0.0,0.0,-0.862,0.0,-1.0087,-1.0833,0.0,0.0,-1.1427,-1.1787,-1.1901,-1.1973,-1.3024,-1.3483,-1.3597,-1.3597,-1.3597,-1.3524,-1.306,-1.271,0.0,-1.2679,0.0,0.0,0.0,0.0,0.0,-1.1086,0.0,0.0,0.0,0.0,0.0,0.0,0.0,0.0,0.0,0.0,0.0,0.0,0.0,0.0,0.0,0.0,0.0,0.0,0.0,0.0,0.0,0.0,0.0,0.0,0.0,0.0,0.0,0.0,0.0,-0.9422,-0.9444,-0.9444,-0.9444,-0.9444,-0.9444,-0.9444,-0.9444,-0.9551,-0.9807,-0.9918,-1.0115,-1.0397,-1.0499,-1.0678,-1.0959,-1.0959,-1.1019,-1.1122,-1.1064,-1.1073,-1.115,-1.0896,-1.0896,-1.1099,-1.1318,-1.1519,-1.176,-1.1445,-1.14,0.0,0.0,0.0,0.0,-1.1504,-1.1601,-1.1938,0.0,0.0,0.0,0.0,0.0,0.0,0.0,0.0,-1.5277,-1.5234,0.0,-1.2672,0.0,0.0,-1.0223,0.0,0.0,-0.9159,-0.8578,0.0,0.0,0.0,0.0,0.0,0.0,0.0,-1.0454,-1.0486,-1.1379,-1.2294,-1.3082,-1.2647,-1.2907,-1.3486,0.0,-1.3204,-1.3597,-1.3597,0.0,0.0,-1.306,-1.2894,0.0,0.0,0.0,0.0,0.0,0.0,0.0,0.0,0.0,0.0,-1.059,0.0,0.0,0.0,0.0,-1.1457,0.0,0.0,0.0,0.0,0.0,0.0,0.0,0.0,0.0,0.0,0.0,0.0,0.0,0.0,0.0,0.0,0.0,0.0,0.0,0.0,0.0,-0.8999,-0.9021,-0.9021,-0.9021,-0.9021,-0.9021,-0.9021,-0.9021,-0.9021,-0.9038,-0.9444,-0.9632,-0.9658,-0.9978,-1.014,-1.0149,-1.0149,-1.0371,-1.0689,-1.0431,-1.0565,-1.0896,-1.0624,-1.0522,-1.0496,-1.018,-0.9914,-0.9744,0.0,0.0,0.0,0.0,0.0,0.0,-1.1544,-1.2618,0.0,0.0,0.0,0.0,0.0,0.0,-1.6166,0.0,0.0,-1.5997,-1.5905,-1.4704,0.0,0.0,0.0,-1.1965,0.0,0.0,-0.9762,-0.9199,0.0,0.0,0.0,0.0,0.0,0.0,0.0,-1.0774,0.0,0.0,0.0,0.0,0.0,-1.2848,-1.3576,0.0,0.0,-1.3597,-1.3597,-1.3597,0.0,-1.3411,-1.3152,-1.2925,-1.3113,-1.2637,-1.2048,-1.2048,-1.182,0.0,0.0,0.0,-1.2027,-1.0931,0.0,0.0,0.0,0.0,0.0,0.0,0.0,0.0,0.0,0.0,0.0,0.0,0.0,0.0,0.0,0.0,0.0,0.0,0.0,0.0,0.0,0.0,0.0,0.0,0.0,0.0,0.0,-0.9116,-0.8996,-0.8996,-0.8996,-0.8996,-0.8996,-0.8996,-0.8996,-0.8996,-0.9132,-0.935,-0.9615,-0.9713,-0.9893,-1.0092,-0.9964,-0.9979,-1.0096,-0.987,-0.9987,-1.0294,-0.9997,-1.0012,-1.0205,-1.0549,-1.0592,-1.0584,-1.185,0.0,0.0,0.0,0.0,0.0,0.0,0.0,0.0,0.0,-1.4917,0.0,-1.6323,0.0,-1.6611,0.0,-1.6844,-1.6575,-1.6501,-1.5433,0.0,-1.5421,-1.4132,0.0,0.0,0.0,0.0,-1.0352,0.0,-0.9424,0.0,0.0,0.0,0.0,0.0,0.0,0.0,0.0,-1.2611,0.0,0.0,-1.3093,0.0,0.0,-1.3597,-1.3597,0.0,-1.3597,-1.3597,-1.3597,-1.339,-1.3194,-1.3493,-1.2896,-1.2099,-1.2245,-1.1871,-1.1333,-1.0993,-1.1457,0.0,-1.089,-1.1354,0.0,-1.0869,0.0,0.0,0.0,0.0,0.0,0.0,0.0,0.0,0.0,0.0,0.0,0.0,0.0,0.0,0.0,0.0,0.0,0.0,0.0,-0.8971,-0.9741,0.0,0.0,0.0,0.0,-0.9116,-0.8996,-0.8996,-0.8996,-0.8996,-0.8996,-0.8996,-0.8996,-0.8996,-0.9132,-0.9371,-0.9308,-0.9393,-0.9582,-0.9402,-0.9365,-0.9457,-0.9246,-0.9439,-0.9824,-0.9562,-0.9635,-0.9914,-1.0336,-1.0515,-1.0566,0.0,0.0,0.0,0.0,-1.24,0.0,0.0,0.0,-1.4623,0.0,-1.5178,-1.5761,-1.6362,-1.6428,-1.6637,-1.716,-1.7073,0.0,-1.7002,-1.5929,0.0,0.0,-1.4929,-1.4356,-1.4284,0.0,0.0,0.0,0.0,0.0,0.0,0.0,0.0,0.0,-1.0719,0.0,-1.0554,-1.2232,-1.2915,-1.2936,-1.34,-1.3597,-1.3597,-1.3597,0.0,-1.3597,-1.3597,-1.3597,-1.361,-1.3566,-1.3576,-1.3586,-1.3558,-1.3225,-1.2781,-1.2379,-1.2256,-1.2027,-1.1138,-1.124,-1.1384,-1.0466,0.0,0.0,0.0,0.0,-1.2088,0.0,0.0,0.0,0.0,0.0,0.0,0.0,0.0,0.0,0.0,0.0,0.0,0.0,0.0,0.0,0.0,0.0,-0.8659,-0.9709,-0.9358,0.0,0.0,0.0,-0.9321,-0.9016,-0.8996,-0.8996,-0.8996,-0.8996,-0.8996,-0.8996,-0.8996,-0.8996,-0.8996,-0.8785,-0.8704,-0.8683,-0.8467,-0.8569,-0.8842,-0.8567,-0.8875,-0.9509,-0.9269,-0.9343,-0.9588,-0.9588,-0.9588,-0.9666,-1.2591,-1.2942,-1.3301,0.0,-1.3029,-1.3057,0.0,0.0,0.0,0.0,-1.5945,-1.6375,-1.6924,-1.699,-1.7042,-1.7186,-1.7178,0.0,0.0,0.0,0.0,-1.6503,-1.5911,-1.5509,-1.5398,-1.3783,0.0,-1.2491,0.0,0.0,-1.0224,0.0,0.0,0.0,0.0,0.0,-1.1041,-1.1748,-1.2366,-1.2936,-1.34,-1.3597,0.0,0.0,-1.3597,-1.3597,-1.3597,-1.3597,-1.3545,-1.3194,-1.3307,-1.3496,-1.2846,-1.2545,-1.2369,-1.1902,-1.152,-1.1219,-1.0972,-1.124,-1.1457,-1.0869,-1.1157,-1.1416,0.0,0.0,0.0,0.0,0.0,0.0,0.0,0.0,0.0,0.0,0.0,0.0,0.0,0.0,0.0,0.0,0.0,0.0,0.0,-0.8585,-0.8952,-0.9531,-0.9274,0.0,0.0,0.0,0.0,-0.8987,-0.8996,-0.8996,-0.8996,-0.8996,-0.8996,-0.8996,-0.8846,-0.8846,-0.8984,-0.8631,-0.8561,-0.8675,-0.8267,-0.8157,-0.8213,-0.7997,-0.8165,-0.8587,-0.8761,-0.9138,-0.9588,-0.9588,-0.9588,-0.9614,-1.2861,0.0,0.0,-1.4964,0.0,0.0,-1.437,0.0,0.0,-1.5743,-1.6253,0.0,-1.6827,-1.7055,-1.7199,-1.7199,-1.7157,0.0,0.0,0.0,0.0,-1.6782,-1.6435,-1.6182,-1.612,-1.4517,0.0,-1.297,0.0,0.0,-1.0148,0.0,0.0,0.0,0.0,-1.0335,0.0,-1.1661,-1.234,-1.2936,-1.34,0.0,0.0,-1.3597,-1.3597,-1.3597,-1.3597,-1.3597,-1.3524,-1.306,-1.308,-1.3173,-1.2504,-1.2162,-1.1934,-1.1684,-1.1271,-1.091,-1.091,-1.1086,-1.1262,-1.1151,-1.147,-1.1716,-1.1358,-1.146,-1.1591,0.0,0.0,0.0,0.0,0.0,0.0,0.0,0.0,0.0,0.0,0.0,0.0,0.0,0.0,0.0,0.0,-0.8611,-0.9067,-0.9478,-0.9349,0.0,0.0,0.0,0.0,-0.9016,-0.8996,-0.8996,-0.8996,-0.8996,-0.8996,-0.8996,-0.8805,-0.8765,-0.8846,-0.8419,-0.8296,-0.837,-0.8028,-0.7863,-0.7863,-0.7753,-0.799,-0.8458,-0.8919,-0.9226,-0.9438,-0.9563,-0.9588,-0.9588,0.0,0.0,0.0,0.0,0.0,0.0,0.0,-1.5594,0.0,-1.5718,0.0,-1.6763,-1.6533,-1.6924,-1.7199,-1.7178,0.0,-1.7065,-1.7157,-1.6854,-1.674,-1.6854,-1.6629,-1.65,-1.65,-1.5509,0.0,0.0,0.0,0.0,0.0,0.0,0.0,0.0,0.0,0.0,0.0,-1.1768,-1.2523,0.0,-1.34,-1.3597,-1.3597,-1.3597,-1.3597,-1.3597,-1.3597,-1.3597,-1.3514,-1.2998,-1.2853,-1.2801,-1.2286,-1.1871,-1.1601,-1.1519,-1.1219,-1.091,-1.0881,-1.0881,-1.0955,-1.1236,-1.1633,-1.1938,-1.1748,-1.1747,-1.1755,-1.1624,-1.1094,-1.0925,0.0,0.0,0.0,0.0,0.0,0.0,0.0,0.0,0.0,0.0,0.0,0.0,0.0,-0.869,-0.9092,-0.9396,0.0,0.0,0.0,0.0,0.0,-0.8959,-0.8978,0.0,-0.8996,0.0,-0.8996,-0.8955,-0.8765,-0.8663,-0.8643,-0.8165,-0.7979,-0.7979,-0.7787,-0.7691,-0.7691,-0.7691,-0.8099,-0.8743,-0.9285,-0.9387,-0.9288,-0.9519,-0.9588,-0.9588,0.0,0.0,0.0,0.0,0.0,-1.6795,-1.6968,-1.6381,-1.6086,-1.6518,-1.6904,-1.7104,-1.7055,-1.7146,-1.7157,-1.7044,-1.7002,0.0,0.0,0.0,0.0,-1.6718,-1.6586,-1.65,-1.65,-1.5509,-1.4436,0.0,-1.2303,-1.1197,0.0,0.0,0.0,0.0,0.0,0.0,-1.0499,-1.1765,0.0,-1.2936,-1.34,-1.3597,-1.3597,-1.3597,-1.3597,-1.3597,-1.3597,-1.3597,-1.3486,-1.268,-1.2627,-1.2698,-1.152,-1.1344,-1.1519,-1.1147,-1.0962,-1.0881,-1.0833,-1.0822,-1.0805,-1.0741,-1.1045,-1.1236,-1.0775,-1.0954,-1.1192,-1.1067,-1.0949,-1.0951,-1.125,0.0,0.0,0.0,0.0,0.0,0.0,0.0,0.0,0.0,0.0,0.0,0.0,0.0,0.0,0.0,0.0,0.0,0.0,0.0,0.0,0.0,0.0,0.0,0.0,0.0,-0.8915,-0.8744,-0.8549,-0.8455,-0.8435,-0.7974,-0.7842,-0.7979,-0.7787,-0.7691,-0.7691,-0.7691,-0.8099,-0.8699,-0.8809,-0.9131,-0.9541,-0.9592,-0.9588,-0.9588,0.0,0.0,0.0,0.0,0.0,0.0,0.0,-1.7007,0.0,-1.6592,-1.6817,-1.691,-1.6693,-1.6925,-1.7065,-1.696,-1.6939,-1.6918,-1.6897,-1.6761,-1.6697,-1.6697,-1.6565,0.0,-1.65,-1.5521,-1.4585,-1.37,-1.2431,-1.1308,0.0,0.0,0.0,0.0,0.0,-1.0127,0.0,0.0,0.0,-1.2936,-1.34,-1.3597,-1.3597,-1.3597,-1.3597,-1.3597,-1.3597,-1.3597,-1.3476,-1.2587,-1.2431,-1.2389,-1.1262,-1.1064,-1.1199,-1.0962,-1.091,-1.0881,-1.0862,-1.0852,-1.0865,-1.0903,-1.1055,-1.1175,-1.1051,-1.101,-1.097,-1.0908,-1.0732,-1.0626,-1.0716,-1.0795,0.0,0.0,0.0,0.0,0.0,0.0,0.0,0.0,0.0,0.0,0.0,0.0,0.0,0.0,0.0,0.0,0.0,0.0,0.0,0.0,0.0,0.0,0.0,0.0,0.0,-0.8549,-0.8296,-0.809,-0.7925,-0.7774,-0.767,-0.7579,-0.7482,-0.744,-0.7433,-0.7438,-0.7717,-0.816,-0.8502,-0.8806,-0.9089,-0.9452,-0.9588,-0.9588,0.0,-1.874,0.0,0.0,-1.8486,0.0,-1.772,-1.7372,-1.7014,-1.6583,-1.6718,-1.6712,-1.6392,-1.6744,-1.6939,-1.6867,-1.6867,-1.6846,-1.6812,-1.6705,-1.6654,-1.6654,-1.6543,-1.65,-1.65,-1.5712,-1.4874,0.0,0.0,0.0,0.0,0.0,-1.0244,-1.0065,0.0,0.0,0.0,0.0,-1.2658,-1.308,-1.3442,-1.3597,-1.3597,-1.3597,-1.3597,-1.3597,-1.3597,-1.3597,-1.3473,-1.2679,-1.2359,-1.2141,-1.1313,-1.0983,-1.091,-1.091,-1.091,-1.0912,-1.0956,-1.0967,-1.1,-1.1105,-1.1214,-1.1293,-1.1314,-1.1105,-1.0889,-1.0791,-1.0508,-1.0303,-1.0244,-1.0607,0.0,0.0,0.0,0.0,0.0,0.0,0.0,0.0,0.0,0.0,0.0,0.0,0.0,0.0,0.0,0.0,0.0,0.0,0.0,0.0,0.0,-0.8221,-0.856,0.0,-0.8373,0.0,-0.8103,-0.7835,-0.7544,-0.7587,-0.744,-0.7195,-0.7125,-0.7104,-0.7096,-0.7172,-0.737,-0.7679,-0.8355,-0.8644,-0.8716,-0.9376,-0.9588,-0.9588,0.0,0.0,0.0,0.0,0.0,0.0,0.0,-1.724,-1.6997,-1.6946,-1.6975,-1.6933,-1.6841,-1.6892,-1.6867,-1.6718,-1.6718,-1.6675,-1.6543,-1.6522,-1.6522,-1.6522,-1.65,-1.65,-1.65,-1.6407,-1.5451,0.0,0.0,0.0,0.0,0.0,-1.1188,-1.0552,0.0,0.0,0.0,-1.2483,-1.3101,-1.3535,-1.3576,-1.3597,-1.3597,-1.3597,-1.3597,-1.3597,-1.3597,-1.3597,-1.3514,-1.2927,-1.2562,-1.2214,-1.1695,-1.124,-1.091,-1.091,-1.091,-1.0935,-1.1125,-1.1166,-1.1135,-1.0981,-1.1243,-1.1373,-1.0606,-1.0664,-1.0801,-1.044,-1.0332,-1.0176,-0.9766,-1.0059,-1.0371,0.0,0.0,0.0,0.0,0.0,0.0,0.0,0.0,0.0,0.0,0.0,0.0,0.0,0.0,0.0,0.0,0.0,0.0,-0.7671,0.0,-0.7991,-0.8158,-0.8315,0.0,-0.8041,-0.8021,-0.7884,-0.767,-0.7384,-0.7237,-0.7188,-0.688,-0.6747,-0.6774,-0.7068,-0.7386,-0.7764,-0.842,-0.8863,-0.9162,-0.9478,-0.9588,-0.9588,0.0,0.0,0.0,0.0,0.0,0.0,0.0,-1.696,-1.6897,-1.6825,-1.6918,-1.696,-1.6897,-1.6825,-1.674,-1.6599,-1.6577,-1.6543,-1.65,-1.65,-1.65,-1.65,-1.65,-1.638,-1.6086,-1.5812,-1.5107,0.0,0.0,0.0,0.0,0.0,0.0,0.0,0.0,-1.1761,-1.2048,-1.2658,-1.3173,-1.3597,-1.3597,-1.3597,-1.3597,-1.3597,-1.3597,-1.3597,-1.3597,-1.3597,-1.3566,-1.3356,-1.2995,-1.2564,-1.197,-1.1705,-1.1542,-1.1186,-1.1084,-1.1105,-1.1186,-1.1195,-1.1165,-1.1052,-1.117,-1.1057,-1.0104,-0.9996,-1.0011,-0.9603,-0.9716,-0.9913,-0.9991,-0.9952,-0.9884,0.0,0.0,0.0,0.0,0.0,0.0,0.0,0.0,0.0,0.0,0.0,0.0,0.0,0.0,-0.7448,-0.7403,0.0,0.0,-0.7119,0.0,-0.7714,-0.7802,-0.7908,-0.7829,-0.7517,-0.7517,-0.7265,-0.6802,-0.6859,-0.6795,-0.6611,-0.6662,-0.6704,-0.6704,-0.6838,-0.7201,-0.7661,-0.7988,-0.8322,-0.8702,-0.9059,-0.9248,-0.9361,-1.8959,0.0,-1.8635,0.0,-1.7598,-1.7415,-1.6748,-1.6761,-1.6803,-1.6697,-1.6825,-1.6876,-1.6791,-1.6705,-1.6599,-1.65,-1.65,-1.65,-1.65,-1.65,-1.65,-1.65,-1.65,0.0,-1.602,-1.568,-1.5188,-1.4532,-1.3717,0.0,0.0,-1.1988,0.0,0.0,-1.1911,-1.2172,-1.2415,-1.2824,-1.317,-1.3491,-1.3491,-1.3491,-1.3491,-1.3491,-1.3491,-1.3491,-1.3515,-1.3515,-1.3491,-1.3491,-1.3252,-1.2914,-1.2373,-1.2152,-1.2022,-1.1581,-1.1327,-1.1225,-1.1314,-1.1254,-1.1143,-1.1044,-1.0943,-1.0636,-0.9765,-0.9582,-0.9489,-0.9088,-0.9319,-0.9628,-0.9725,-0.9558,-0.943,-0.943,0.0,0.0,0.0,0.0,0.0,0.0,0.0,-0.8709,0.0,0.0,0.0,0.0,0.0,-0.74,-0.738,0.0,0.0,0.0,0.0,0.0,0.0,-0.7421,-0.7286,-0.7062,-0.7062,-0.6802,-0.6349,-0.6492,-0.6435,-0.6206,-0.6349,-0.6456,-0.6556,-0.6471,-0.6696,-0.7105,-0.7428,-0.7652,-0.7902,-0.8511,-0.8836,-0.8961,-1.7422,-1.7333,-1.7146,-1.6616,-1.6522,-1.6522,-1.65,-1.662,-1.6697,-1.6697,-1.6697,-1.6654,-1.6522,-1.65,-1.65,-1.65,-1.65,-1.65,-1.65,-1.65,-1.65,0.0,0.0,-1.65,-1.65,-1.65,-1.6042,-1.5099,0.0,0.0,-1.2673,-1.2077,-1.2034,-1.2489,-1.2552,-1.2594,-1.2612,-1.3037,-1.3208,-1.3194,-1.3194,-1.3194,-1.3194,-1.3194,-1.3194,-1.3218,-1.3338,-1.3314,-1.3194,-1.3194,-1.3208,-1.3151,-1.2937,-1.2518,-1.2104,-1.2094,-1.1662,-1.1265,-1.1606,-1.1398,-1.1057,-1.0838,-1.0548,-1.0161,-0.9623,-0.9556,-0.9489,-0.9088,-0.9319,-0.937,-0.857,-0.8741,-0.8996,-0.8996,0.0,0.0,0.0,0.0,0.0,0.0,-0.8759,-0.8845,-0.8435,0.0,0.0,0.0,0.0,0.0,0.0,0.0,0.0,-0.7478,-0.6994,0.0,-0.7001,-0.6819,-0.6704,-0.6704,-0.6704,-0.6704,-0.6683,-0.6349,-0.6206,-0.6184,-0.5847,-0.5911,-0.6179,-0.5922,-0.5814,-0.5907,-0.6839,-0.6997,-0.6852,-0.7916,-0.8364,-0.8435,-1.8159,-1.7974,-1.7693,-1.7421,-1.7165,-1.6884,-1.6543,-1.6543,-1.6543,-1.6543,-1.6543,-1.6556,-1.65,-1.65,-1.65,0.0,-1.65,-1.65,0.0,-1.65,-1.65,-1.65,-1.65,-1.6185,-1.5546,-1.5546,-1.5027,-1.394,0.0,0.0,0.0,-1.2807,-1.2798,-1.2981,-1.2953,-1.2976,-1.3013,-1.3158,-1.3194,-1.3194,-1.3194,-1.3194,-1.3194,-1.3194,-1.3194,-1.3218,-1.3242,-1.3242,-1.3194,-1.3194,-1.3194,-1.3188,-1.3118,-1.295,-1.2729,-1.2408,-1.2106,-1.1903,-1.2005,-1.1743,-1.1477,-1.1692,-1.1238,-1.0588,-1.0149,-0.9388,-0.8744,-0.8618,-0.8692,-0.8785,-0.8814,-0.87,-0.8651,-0.8832,-0.8336,0.0,0.0,0.0,0.0,0.0,0.0,-0.832,0.0,-0.8332,0.0,0.0,0.0,0.0,0.0,0.0,0.0,0.0,-0.6894,0.0,-0.6468,-0.6626,-0.6577,-0.6349,-0.6349,-0.6243,-0.6013,-0.5911,-0.5761,-0.5583,-0.5712,-0.575,-0.5728,-0.5873,-0.6012,-0.618,-0.6463,-0.6659,-0.6806,-0.7156,-0.7378,-0.753,-1.8226,-1.8088,-1.7848,-1.7618,-1.7372,-1.7031,-1.6565,-1.65,-1.65,-1.65,-1.65,-1.65,-1.65,-1.65,0.0,-1.65,-1.65,-1.65,-1.65,-1.65,-1.65,-1.65,-1.6281,-1.591,-1.5367,0.0,0.0,-1.4048,-1.3851,-1.3587,-1.3257,-1.3152,-1.3107,-1.3094,-1.3041,-1.3041,-1.3094,-1.3094,-1.3094,-1.3094,-1.3094,-1.3094,-1.3094,-1.3094,-1.3094,-1.3094,-1.3142,-1.3142,-1.3094,-1.3142,-1.3142,-1.3094,-1.3142,-1.3113,-1.2977,-1.2728,-1.2437,-1.2203,-1.2203,-1.1904,-1.1648,-1.1857,-1.1236,-1.0447,-0.9867,-0.9052,-0.8394,-0.8394,-0.8394,-0.8435,-0.8488,-0.8414,-0.8388,-0.8553,-0.8178,-0.7968,-0.8173,0.0,0.0,0.0,0.0,0.0,0.0,-0.848,0.0,0.0,0.0,0.0,0.0,0.0,0.0,-0.6409,-0.6676,0.0,-0.6198,-0.6286,-0.6221,-0.6019,-0.5906,-0.5761,-0.555,-0.5524,-0.547,-0.5376,-0.5519,-0.5547,-0.5496,-0.5558,-0.5655,-0.5795,-0.5947,-0.6063,-0.6196,-0.6465,-0.6659,-0.6767,-1.7679,-1.7727,0.0,0.0,-1.7178,0.0,-1.6565,-1.65,-1.65,-1.65,-1.65,-1.65,-1.65,-1.65,-1.65,-1.65,0.0,0.0,0.0,-1.6466,-1.6445,-1.6445,-1.5886,-1.5622,-1.57,-1.5141,-1.4915,-1.4994,-1.4408,-1.38,-1.3194,-1.3138,-1.3036,-1.2905,-1.2905,-1.2905,-1.2905,-1.2905,-1.2905,-1.2905,-1.2905,-1.2905,-1.2905,-1.2905,-1.2905,-1.2929,-1.3036,-1.3012,-1.2929,-1.3036,-1.3002,-1.2929,-1.3061,-1.3002,-1.2929,-1.3061,-1.2693,-1.2252,-1.2252,-1.1921,-1.1554,-1.1477,-1.078,-0.9897,-0.9023,-0.8617,-0.8413,-0.8424,-0.8408,-0.8255,-0.784,-0.8012,-0.8231,-0.8231,-0.8216,-0.8202,-0.8202,0.0,0.0,0.0,0.0,0.0,0.0,-0.8639,-0.86,0.0,0.0,0.0,0.0,0.0,-0.6693,-0.6677,-0.6413,-0.6249,-0.6206,-0.589,-0.5728,-0.5679,-0.5456,-0.5325,-0.5293,-0.5235,-0.5297,-0.542,-0.5256,-0.5277,-0.5382,-0.502,-0.4879,-0.4928,-0.533,-0.5334,-0.5206,-0.5898,-0.6125,-0.6185,0.0,0.0,-1.6892,-1.7157,-1.6892,-1.6629,-1.6522,-1.65,-1.65,-1.65,-1.65,-1.65,-1.65,-1.65,-1.65,-1.65,-1.65,-1.65,-1.65,-1.6151,-1.5976,-1.5976,-1.549,-1.5074,-1.4731,-1.4605,-1.4269,-1.3789,-1.3512,-1.3282,-1.3113,-1.3109,-1.3036,-1.2905,-1.2905,-1.2905,-1.2905,-1.2905,-1.2905,-1.2905,-1.2905,-1.2905,-1.2905,-1.2905,-1.2905,-1.2905,-1.2929,-1.2929,-1.2905,-1.2929,-1.2929,-1.2905,-1.2929,-1.2929,-1.2929,-1.3061,-1.2933,-1.2725,-1.2725,-1.2087,-1.1533,-1.1853,-1.1202,-1.025,-0.9388,-0.8942,-0.869,-0.8626,-0.8438,-0.8268,-0.8301,-0.8463,-0.8545,-0.8437,-0.831,-0.8202,-0.8202,-0.7924,0.0,0.0,-0.8016,-0.7989,-0.7485,-0.7741,-0.7591,0.0,0.0,0.0,0.0,-0.6695,-0.6689,-0.6328,-0.6738,-0.6717,-0.6206,-0.612,-0.5935,-0.5621,-0.5706,-0.556,-0.5216,-0.5358,-0.5204,-0.4823,-0.492,-0.4825,-0.4596,-0.4586,-0.4696,-0.4857,-0.5094,-0.5208,-0.5283,-0.5453,-0.5518,-0.5536,-1.7413,-1.7269,-1.7123,-1.7199,-1.6989,-1.6757,-1.6543,-1.65,-1.65,-1.65,-1.65,-1.65,-1.6457,-1.6457,-1.6436,-1.6383,-1.6414,-1.6457,-1.6457,-1.6163,-1.5866,-1.5634,-1.5119,-1.4628,-1.4222,-1.3962,-1.3644,-1.3314,-1.3162,-1.3109,-1.3109,-1.3036,-1.2964,-1.2905,-1.2905,-1.2905,-1.2905,-1.2905,-1.2905,-1.2905,-1.2905,-1.2905,-1.2905,-1.2905,-1.2905,-1.2905,-1.2905,-1.2905,-1.2856,-1.2627,-1.2529,-1.2529,-1.2529,-1.2348,-1.224,-1.2832,-1.2783,-1.248,-1.219,-1.1731,-1.1296,-1.1316,-1.0829,-1.0108,-0.9311,-0.8882,-0.8633,-0.8547,-0.8423,-0.8374,-0.8493,-0.8723,-0.886,-0.8629,-0.8263,-0.7964,-0.7817,-0.7294,0.0,-0.7004,-0.749,-0.7717,-0.7432,-0.7697,-0.7566,-0.6838,0.0,0.0,-0.5804,-0.6081,-0.6163,-0.5976,-0.6319,-0.6233,-0.5647,-0.5705,-0.5672,-0.5548,-0.5571,-0.5445,-0.5196,-0.5182,-0.4944,-0.456,-0.4661,-0.4556,-0.4318,-0.4533,-0.4694,-0.4832,-0.51,-0.524,-0.5297,-0.5297,-0.5297,-0.5297,-1.7605,-1.7605,-1.7496,-1.7144,-1.7094,-1.6968,-1.6565,-1.65,-1.65,-1.65,-1.65,-1.6457,-1.6414,-1.6371,-1.6318,-1.6222,-1.6297,-1.6306,-1.625,-1.6066,-1.5746,-1.5209,-1.4618,-1.4167,-1.3884,-1.3378,-1.3138,-1.317,-1.3113,-1.3061,-1.3061,-1.2954,-1.2905,-1.2905,-1.2905,-1.2905,-1.2905,-1.2905,-1.2905,-1.2905,-1.2905,-1.2905,-1.2905,-1.2905,-1.2905,-1.2905,-1.2905,-1.2905,-1.2832,-1.2372,-1.2224,-1.2224,-1.2224,-1.1868,-1.161,-1.2421,-1.2323,-1.1868,-1.146,-1.1209,-1.0947,-1.0421,-1.0067,-0.9734,-0.9122,-0.8726,-0.848,-0.8437,-0.8488,-0.8538,-0.8564,-0.8855,-0.8976,-0.8696,-0.8068,-0.7536,-0.7266,0.0,-0.6087,-0.6305,-0.6917,-0.7393,-0.7579,-0.7616,-0.7517,-0.7211,-0.6349,-0.5739,0.0,-0.5512,-0.5556,-0.5588,-0.5696,-0.5539,-0.512,-0.5272,-0.5386,-0.5478,-0.5365,-0.5247,-0.5141,-0.4936,-0.4694,-0.4461,-0.4489,-0.4436,-0.4341,-0.4546,-0.4696,-0.4827,-0.503,-0.516,-0.5242,-0.5242,-0.5242,-0.5215,-1.6701,-1.6701,-1.668,-1.6629,-1.6607,-1.6586,-1.6522,-1.65,-1.65,-1.65,-1.6457,-1.6414,-1.6392,-1.6297,-1.6222,-1.62,-1.611,-1.5923,-1.5567,-1.5164,-1.4732,-1.4247,-1.3684,-1.3375,-1.3338,-1.3176,-1.3109,-1.3123,-1.2978,-1.2929,-1.2929,-1.2905,-1.2905,-1.2905,-1.2905,-1.2905,-1.2905,-1.2905,-1.2905,-1.2905,-1.2905,-1.2905,-1.2905,-1.2905,-1.2905,-1.2905,-1.2905,-1.2905,-1.2881,-1.2808,-1.2783,-1.2783,-1.2783,-1.27,-1.2471,-1.1685,-1.141,-1.1435,-1.1843,-1.1259,-1.0395,-0.9847,-0.9521,-0.9316,-0.9336,-0.889,-0.8602,-0.8985,-0.8861,-0.8731,-0.8894,-0.8697,-0.8499,-0.8385,-0.7522,-0.6889,-0.6961,0.0,-0.6109,-0.6435,-0.6247,-0.6107,-0.6196,-0.5768,-0.5438,-0.5335,-0.5226,-0.5217,-0.5329,-0.5545,-0.5507,-0.5118,-0.5653,-0.5859,-0.5682,-0.5866,-0.577,-0.5422,-0.5624,-0.5396,-0.4861,-0.4992,-0.48,-0.4347,-0.4456,-0.4485,-0.4427,-0.4038,-0.4264,-0.484,-0.4385,-0.4508,-0.4956,-0.4956,-0.4956,-0.4956,-1.6371,-1.6383,-1.6371,-1.634,-1.6383,-1.6371,-1.634,-1.634,-1.634,-1.634,-1.6318,-1.6275,-1.6197,-1.6132,-1.5957,-1.5637,-1.5558,-1.5198,-1.4479,-1.4743,-1.4582,-1.3823,-1.3563,-1.33,-1.3045,-1.3017,-1.2978,-1.2978,-1.2929,-1.2905,-1.2905,-1.2905,-1.2905,-1.2905,-1.2905,-1.2905,-1.2905,-1.2905,-1.2905,-1.2905,-1.2905,-1.2905,-1.2905,-1.2905,-1.2905,-1.2905,-1.2905,-1.2905,-1.2808,-1.219,-1.1993,-1.1943,-1.1635,-1.1351,-1.1116,-1.1107,-1.0728,-1.0379,-1.0592,-1.0259,-0.9777,-0.9465,-0.9191,-0.898,-0.8964,-0.8749,-0.8501,-0.8312,-0.8326,-0.8326,-0.8125,-0.7984,-0.7961,-0.8069,-0.706,0.0,0.0,-0.5706,-0.5174,-0.5387,-0.5527,-0.5634,-0.5785,-0.5679,-0.5485,-0.5185,-0.5062,-0.4923,-0.477,-0.4879,-0.4857,-0.4622,-0.4923,-0.5087,-0.5093,-0.5189,-0.5193,-0.5081,-0.5195,-0.5098,-0.4804,-0.4747,-0.4582,-0.4327,-0.3953,-0.3809,-0.3758,-0.338,-0.3444,-0.3747,-0.3571,-0.3895,-0.4422,-0.4422,-0.4618,-0.4901,-1.6253,-1.6231,-1.6253,-1.6222,-1.6231,-1.6253,-1.6222,-1.62,-1.62,-1.62,-1.6078,-1.5957,-1.5856,-1.569,-1.5423,-1.496,-1.4915,-1.4547,-1.3658,-1.4316,-1.4362,-1.3478,-1.343,-1.3272,-1.2905,-1.2905,-1.2905,-1.2905,-1.2905,-1.2905,-1.2905,-1.2905,-1.2905,-1.2905,-1.2905,-1.2905,-1.2905,-1.2905,-1.2905,-1.2905,-1.2905,-1.2832,-1.27,-1.27,-1.2627,-1.2495,-1.2495,-1.2495,-1.2372,-1.1485,-1.12,-1.1124,-1.0668,-1.0251,-1.0038,-1.0593,-1.0167,-0.951,-0.9536,-0.9439,-0.9342,-0.9237,-0.895,-0.8648,-0.8468,-0.8353,-0.8096,-0.747,-0.7607,-0.7738,-0.7343,-0.7337,-0.7471,-0.7606,0.0,0.0,0.0,-0.5143,-0.448,-0.4648,-0.4977,-0.5274,-0.5505,-0.5621,-0.5538,-0.5175,-0.4945,-0.4683,-0.4316,-0.4294,-0.4294,-0.4294,-0.4294,-0.4361,-0.4497,-0.4501,-0.461,-0.4804,-0.4759,-0.4685,-0.454,-0.4293,-0.4098,-0.3912,-0.3302,-0.3074,-0.3075,-0.2711,-0.265,-0.284,-0.2968,-0.337,-0.3926,-0.4064,-0.4398,-0.4791,-1.6222,-1.62,-1.6222,-1.62,-1.62,-1.6222,-1.62,-1.62,-1.62,-1.62,-1.5702,-1.5355,-1.5355,-1.4801,-1.4421,-1.4374,-1.4374,-1.4142,-1.3634,-1.3658,-1.3478,-1.2978,-1.2954,-1.2954,-1.2905,-1.2905,-1.2905,-1.2905,-1.2905,-1.2905,-1.2905,-1.2905,-1.2905,-1.2905,-1.2905,-1.2905,-1.2905,-1.2905,-1.2905,-1.2905,-1.2905,-1.2603,-1.215,-1.215,-1.1819,-1.1334,-1.1334,-1.1334,-1.1309,-1.1234,-1.12,-1.1175,-1.0998,-1.0939,-1.0788,-1.0244,-0.9658,-0.9335,-0.9814,-0.9588,-0.9211,-0.9211,-0.8763,-0.828,-0.8016,-0.7616,-0.7224,-0.6924,-0.7018,-0.7166,-0.7112,-0.7112,-0.7084,-0.691,0.0,0.0,-0.577,-0.5187,-0.4855,-0.5116,-0.4796,-0.469,-0.5027,-0.467,-0.4424,-0.438,-0.4368,-0.4338,-0.4294,-0.4294,-0.4294,-0.4294,-0.4294,-0.4361,-0.4497,-0.4501,-0.461,-0.4804,-0.4664,-0.431,-0.3782,-0.3624,-0.3222,-0.2637,-0.2586,-0.2665,-0.2769,-0.2075,-0.223,-0.2891,-0.2779,-0.3098,-0.371,-0.4267,-0.4491,-0.4515,-1.5947,-1.5947,-1.5947,-1.5947,-1.5947,-1.5859,-1.5558,-1.5513,-1.5401,-1.5062,-1.4823,-1.4686,-1.4686,-1.4456,-1.4188,-1.3884,-1.3871,-1.3658,-1.321,-1.3162,-1.3089,-1.2905,-1.2905,-1.2905,-1.2905,-1.2905,-1.2905,-1.2905,-1.2578,-1.2406,-1.2406,-1.2406,-1.22,-1.1859,-1.2249,-1.22,-1.1843,-1.1843,-1.1843,-1.1843,-1.1843,-1.171,-1.1535,-1.1535,-1.141,-1.12,-1.12,-1.12,-1.1158,-1.0829,-1.0643,-1.0499,-1.0141,-0.9961,-0.9814,-0.9491,-0.9185,-0.9008,-0.9211,-0.9159,-0.9061,-0.8982,-0.8507,-0.8021,-0.7918,-0.7637,-0.7172,-0.6404,-0.6539,-0.6602,-0.5972,-0.5866,-0.5944,-0.62,0.0,-0.5287,-0.5491,-0.4998,-0.4623,-0.4641,-0.4486,-0.4416,-0.4561,-0.4403,-0.4294,-0.4294,-0.4294,-0.414,-0.3759,-0.3382,-0.318,-0.318,-0.318,-0.3563,-0.4378,-0.401,-0.3858,-0.3935,-0.3497,-0.317,-0.2942,-0.2809,-0.2627,-0.2364,-0.1988,-0.1876,-0.1954,-0.1388,-0.1338,-0.168,-0.2014,-0.2514,-0.3125,-0.371,-0.4184,-0.4491,-1.5792,-1.5792,-1.5792,-1.5792,-1.5792,-1.5681,-1.5356,-1.5198,-1.496,-1.4605,-1.4281,-1.4071,-1.4071,-1.3954,-1.3729,-1.3416,-1.3392,-1.3224,-1.2847,-1.2832,-1.2856,-1.2905,-1.2905,-1.2905,-1.2905,-1.2725,-1.2652,-1.2652,-1.2092,-1.1819,-1.1819,-1.1819,-1.161,-1.1225,-1.1635,-1.1585,-1.12,-1.12,-1.12,-1.12,-1.12,-1.1099,-1.0956,-1.0956,-1.0821,-1.0643,-1.0643,-1.0617,-1.0515,-1.0138,-0.995,-0.9814,-0.9413,-0.9185,-0.9061,-0.8956,-0.8883,-0.8804,-0.8804,-0.8718,-0.8685,-0.8778,-0.8338,-0.7834,-0.7535,-0.7214,-0.6713,-0.5669,-0.5775,-0.5828,-0.5123,-0.5174,-0.5349,-0.5527,-0.5285,-0.5125,-0.5198,-0.4858,-0.449,-0.4247,-0.4156,-0.4043,-0.388,-0.3781,-0.3737,-0.3737,-0.3737,-0.3558,-0.3136,-0.2716,-0.2492,-0.2492,-0.2492,-0.2893,-0.3737,-0.3315,-0.3114,-0.3114,-0.265,-0.2361,-0.2208,-0.2077,-0.1945,-0.1768,-0.1366,-0.1208,-0.1221,-0.0914,-0.0819,-0.0921,-0.1568,-0.204,-0.2486,-0.3098,-0.3569,-0.3932,-1.5792,-1.5792,-1.5792,-1.5792,-1.5792,-1.5792,-1.5792,-1.5379,-1.5085,-1.5085,-1.4222,-1.3597,-1.3597,-1.3176,-1.2905,-1.2905,-1.2881,-1.2832,-1.27,-1.2686,-1.2749,-1.2881,-1.2881,-1.2881,-1.2881,-1.2357,-1.2101,-1.2101,-1.1485,-1.12,-1.12,-1.12,-1.1183,-1.1175,-1.12,-1.1183,-1.1175,-1.1175,-1.1175,-1.1175,-1.1175,-1.088,-1.0403,-1.0403,-0.9984,-0.9387,-0.9387,-0.9309,-0.9211,-0.9211,-0.9211,-0.9185,-0.9035,-0.891,-0.8804,-0.8804,-0.8778,-0.8778,-0.8778,-0.8342,-0.8037,-0.8646,-0.8345,-0.7637,-0.672,-0.6198,-0.5646,-0.4703,-0.4658,-0.48,-0.48,-0.5291,-0.5492,-0.4898,-0.5296,-0.5467,-0.4874,-0.48,-0.4593,-0.4048,-0.3812,-0.3473,-0.2954,-0.265,-0.2492,-0.2492,-0.2492,-0.2492,-0.2492,-0.2492,-0.2492,-0.2492,-0.2492,-0.2492,-0.2492,-0.2492,-0.2492,-0.2492,-0.2344,-0.2036,-0.1591,-0.1456,-0.1144,-0.0697,-0.0697,-0.0697,-0.0702,-0.0783,-0.0806,-0.0864,-0.1525,-0.1789,-0.1874,-0.2486,-0.2708,-0.2708,-1.5108,-1.5028,-1.4926,-1.4594,-1.4536,-1.441,-1.4037,-1.3849,-1.3647,-1.3324,-1.2997,-1.2837,-1.2837,-1.2691,-1.2627,-1.2627,-1.224,-1.1959,-1.1934,-1.1592,-1.1742,-1.2578,-1.2295,-1.1907,-1.1434,-1.1283,-1.1183,-1.1183,-1.0626,-1.0354,-1.0354,-1.0354,-1.0149,-0.9821,-1.02,-1.0149,-0.9795,-0.9795,-0.9795,-0.9795,-0.9795,-0.9699,-0.955,-0.955,-0.9446,-0.9263,-0.9263,-0.9237,-0.9211,-0.9211,-0.9133,-0.9035,-0.891,-0.8831,-0.8725,-0.8282,-0.8096,-0.7937,-0.7557,-0.723,-0.7182,-0.7957,-0.7574,-0.6878,-0.6523,-0.6157,-0.5692,-0.5,-0.4974,-0.4972,-0.4597,-0.4669,-0.4692,-0.4411,-0.4534,-0.4416,-0.376,-0.3808,-0.3654,-0.3033,-0.2903,-0.2797,-0.263,-0.2539,-0.2492,-0.2492,-0.2099,-0.1878,-0.1878,-0.1477,-0.1232,-0.1232,-0.1232,-0.1232,-0.1232,-0.1655,-0.1878,-0.1856,-0.139,-0.11,-0.0965,-0.092,-0.0831,-0.0697,-0.0697,-0.0731,-0.0776,-0.0794,-0.0827,-0.0919,-0.1392,-0.1615,-0.1705,-0.2176,-0.2428,-0.2567,-1.5085,-1.5017,-1.4846,-1.4363,-1.4271,-1.4107,-1.3589,-1.3328,-1.3098,-1.2803,-1.2618,-1.2505,-1.2505,-1.2505,-1.2505,-1.2505,-1.1918,-1.156,-1.156,-1.1032,-1.0897,-1.1326,-1.1124,-1.104,-1.1099,-1.0695,-1.0491,-1.0491,-0.9943,-0.9692,-0.9692,-0.9692,-0.951,-0.9211,-0.9536,-0.9517,-0.9211,-0.9211,-0.9211,-0.9211,-0.9211,-0.9211,-0.9211,-0.9211,-0.9159,-0.9106,-0.9106,-0.9087,-0.9035,-0.9035,-0.8982,-0.891,-0.8831,-0.8646,-0.8368,-0.7931,-0.761,-0.7289,-0.688,-0.6534,-0.6421,-0.6934,-0.6754,-0.635,-0.6031,-0.5714,-0.5285,-0.4679,-0.4625,-0.4525,-0.4024,-0.3932,-0.3841,-0.3566,-0.352,-0.3397,-0.2976,-0.3027,-0.2901,-0.2354,-0.2207,-0.2089,-0.1963,-0.1848,-0.1787,-0.1787,-0.1456,-0.1265,-0.1287,-0.0944,-0.0742,-0.073,-0.0743,-0.0737,-0.0737,-0.1064,-0.1234,-0.1234,-0.0876,-0.0697,-0.0697,-0.0697,-0.0674,-0.0629,-0.0629,-0.0639,-0.0631,-0.0451,-0.0494,-0.0678,-0.0502,-0.0597,-0.0811,-0.0809,-0.0892,-0.1004,-1.5277,-1.5255,-1.5085,-1.456,-1.4468,-1.4329,-1.3897,-1.3433,-1.3098,-1.3098,-1.273,-1.2455,-1.2455,-1.2455,-1.2431,-1.2406,-1.1744,-1.1343,-1.1343,-1.0762,-1.0218,-0.9684,-0.9684,-1.0251,-1.1401,-1.0423,-0.9891,-0.9891,-0.9413,-0.9159,-0.9159,-0.9159,-0.9159,-0.9159,-0.9159,-0.9159,-0.9159,-0.9159,-0.9159,-0.9159,-0.9159,-0.9159,-0.9159,-0.9159,-0.9087,-0.8982,-0.8982,-0.891,-0.8804,-0.8778,-0.8778,-0.8778,-0.8699,-0.8309,-0.7818,-0.7584,-0.7176,-0.6718,-0.6507,-0.6073,-0.5691,-0.5691,-0.5814,-0.5824,-0.5341,-0.4946,-0.4531,-0.3962,-0.3814,-0.3634,-0.3192,-0.3126,-0.2968,-0.2539,-0.247,-0.2448,-0.2406,-0.2406,-0.2283,-0.1928,-0.1678,-0.1418,-0.1114,-0.0857,-0.0705,-0.0705,-0.0705,-0.074,-0.0791,-0.079,-0.0801,-0.0777,-0.0727,-0.0737,-0.0761,-0.0618,-0.0584,-0.0697,-0.0697,-0.0652,-0.0629,-0.0607,-0.0517,-0.0359,-0.0359,-0.0314,-0.0225,0.0187,0.0121,-0.0152,0.0834,0.092,0.0588,0.1147,0.1342,0.1313,-1.3484,-1.3379,-1.3222,-1.2759,-1.2662,-1.2623,-1.2525,-1.2412,-1.2338,-1.2338,-1.2249,-1.2175,-1.2175,-1.2175,-1.2026,-1.1603,-1.0617,-1.0002,-1.0002,-0.9491,-0.9484,-1.0192,-0.9439,-0.9342,-1.002,-0.9387,-0.9061,-0.9061,-0.8936,-0.8883,-0.8883,-0.8883,-0.8883,-0.8883,-0.8883,-0.8883,-0.8883,-0.8883,-0.8883,-0.8883,-0.8883,-0.8883,-0.8883,-0.8883,-0.8857,-0.8831,-0.8831,-0.8831,-0.8778,-0.8685,-0.8633,-0.8547,-0.7957,-0.7679,-0.7412,-0.6475,-0.6009,-0.5706,-0.523,-0.4956,-0.4791,-0.4791,-0.4484,-0.4251,-0.4526,-0.4256,-0.3815,-0.3443,-0.3053,-0.2741,-0.2524,-0.2502,-0.2435,-0.221,-0.2186,-0.2055,-0.17,-0.1633,-0.1482,-0.1045,-0.0976,-0.0946,-0.088,-0.0801,-0.0788,-0.0788,-0.0788,-0.0791,-0.0798,-0.0801,-0.0744,-0.0653,-0.0232,-0.0159,-0.0478,0.0315,0.0247,-0.0697,-0.0584,-0.0359,0.0,0.0112,0.0381,0.0761,0.0761,0.0761,0.0784,0.0881,0.0898,0.088,0.1216,0.135,0.1371,0.1595,0.1621,0.151,-1.3242,-1.3194,-1.3016,-1.2516,-1.2418,-1.2353,-1.2126,-1.1877,-1.1728,-1.1728,-1.1485,-1.1292,-1.1292,-1.1292,-1.1166,-1.0897,-1.0097,-0.9588,-0.9588,-0.9113,-0.9061,-0.9614,-0.9113,-0.8929,-0.9211,-0.8936,-0.8804,-0.8804,-0.8804,-0.8804,-0.8804,-0.8804,-0.8804,-0.8804,-0.8804,-0.8804,-0.8804,-0.8804,-0.8804,-0.8804,-0.8804,-0.8804,-0.8804,-0.8804,-0.8804,-0.8804,-0.8804,-0.8752,-0.8685,-0.8553,-0.8302,-0.8004,-0.7626,-0.7117,-0.6551,-0.5846,-0.5414,-0.5034,-0.4712,-0.4349,-0.4128,-0.4436,-0.4042,-0.3659,-0.3865,-0.3508,-0.3049,-0.278,-0.2532,-0.2272,-0.1969,-0.1922,-0.1816,-0.1527,-0.1477,-0.1376,-0.1102,-0.1077,-0.0995,-0.0763,-0.0742,-0.0743,-0.0742,-0.0756,-0.0602,-0.0245,-0.0289,-0.0146,0.0232,0.0123,0.0121,0.0251,0.0475,0.0485,0.0277,0.0814,0.0784,0.0157,0.0224,0.0381,0.0626,0.0693,0.0895,0.1186,0.1186,0.1208,0.1254,0.1477,0.15,0.1457,0.2034,0.2207,0.2179,0.2517,0.2601,0.2488,-1.3276,-1.3276,-1.3132,-1.2701,-1.2604,-1.2482,-1.2092,-1.1569,-1.1217,-1.1217,-1.0711,-1.0338,-1.0338,-1.0244,-1.0185,-1.0185,-0.971,-0.938,-0.938,-0.8975,-0.8725,-0.8725,-0.8725,-0.8725,-0.8725,-0.8725,-0.8752,-0.8804,-0.8804,-0.8804,-0.8804,-0.8804,-0.8804,-0.8804,-0.8804,-0.8804,-0.8804,-0.8804,-0.8804,-0.8804,-0.8804,-0.8804,-0.8804,-0.8804,-0.8804,-0.8804,-0.8804,-0.8639,-0.8415,-0.8182,-0.7744,-0.7305,-0.7165,-0.647,-0.566,-0.541,-0.5007,-0.4632,-0.4519,-0.4128,-0.3876,-0.4377,-0.3959,-0.3407,-0.3316,-0.2881,-0.2447,-0.213,-0.2014,-0.1838,-0.1463,-0.1312,-0.1124,-0.0751,-0.0676,-0.0667,-0.0599,-0.0662,-0.0736,-0.0785,-0.065,-0.0523,-0.0412,-0.0413,-0.0163,0.0455,0.0396,0.062,0.1309,0.1112,0.1053,0.1197,0.1172,0.1131,0.106,0.1299,0.1365,0.1276,0.1365,0.1365,0.1253,0.1276,0.1387,0.1567,0.1567,0.1612,0.1679,0.2079,0.2079,0.1917,0.2814,0.3022,0.2883,0.3408,0.3572,0.3498,-1.1968,-1.1968,-1.1943,-1.1868,-1.1843,-1.1819,-1.1753,-1.1242,-1.088,-1.088,-1.0379,-1.0038,-1.0038,-0.964,-0.9361,-0.9361,-0.8863,-0.8553,-0.8553,-0.8507,-0.8454,-0.8454,-0.8454,-0.8454,-0.8454,-0.8454,-0.856,-0.8804,-0.8804,-0.8804,-0.8804,-0.8804,-0.8804,-0.8804,-0.8804,-0.8804,-0.8804,-0.8804,-0.8804,-0.8804,-0.8804,-0.8804,-0.8804,-0.8804,-0.8804,-0.8804,-0.8804,-0.8374,-0.7723,-0.7074,-0.6713,-0.6438,-0.5792,-0.5496,-0.5281,-0.4791,-0.457,-0.4519,-0.4519,-0.4436,-0.4405,-0.4491,-0.3652,-0.2817,-0.2805,-0.2684,-0.239,-0.1727,-0.1261,-0.0957,-0.0908,-0.0554,-0.0277,-0.02,-0.02,-0.02,-0.0174,-0.0532,-0.0784,-0.0789,-0.0332,0.0191,0.0715,0.0767,0.0818,0.0922,0.0893,0.0946,0.1037,0.1022,0.1052,0.1184,0.164,0.169,0.1355,0.2223,0.2415,0.1966,0.2437,0.2393,0.1875,0.1943,0.2235,0.2687,0.2687,0.2687,0.2709,0.2776,0.2809,0.283,0.2976,0.3141,0.3329,0.3517,0.3517,0.3425,-1.1703,-1.1703,-1.1703,-1.1703,-1.1418,-1.1209,-1.1209,-1.0472,-0.9906,-0.9906,-0.9432,-0.9119,-0.9119,-0.889,-0.8765,-0.8765,-0.8527,-0.8395,-0.8395,-0.8395,-0.8395,-0.8395,-0.8064,-0.7904,-0.7904,-0.7557,-0.745,-0.7563,-0.8235,-0.8586,-0.8586,-0.8586,-0.8427,-0.8209,-0.8527,-0.8553,-0.8282,-0.8209,-0.8182,-0.8156,-0.775,-0.7563,-0.7563,-0.7563,-0.7563,-0.7563,-0.7477,-0.7257,-0.6907,-0.6502,-0.6122,-0.5737,-0.5414,-0.5089,-0.4818,-0.457,-0.4267,-0.3987,-0.3987,-0.3514,-0.307,-0.3403,-0.2847,-0.2096,-0.1675,-0.1573,-0.1468,-0.1209,-0.0804,-0.0455,-0.0455,-0.0107,0.0186,0.0235,0.0364,0.0465,0.0506,0.0439,0.0354,0.0277,0.0506,0.0764,0.1036,0.1061,0.1213,0.158,0.1574,0.1753,0.2203,0.2115,0.2116,0.2211,0.2402,0.2415,0.2239,0.2687,0.2776,0.2551,0.2776,0.2754,0.2504,0.2529,0.2684,0.289,0.289,0.289,0.289,0.289,0.2938,0.3002,0.3002,0.3248,0.3636,0.3698,0.368,0.363]}]]